<?xml version="1.0" encoding="UTF-8" standalone="no" ?>
<gpx xmlns="http://www.topografix.com/GPX/1/1" xmlns:xsi="http://www.w3.org/2001/XMLSchema-instance" xsi:schemaLocation="http://www.topografix.com/GPX/1/1 http://www.topografix.com/GPX/1/1/gpx.xsd" version="1.1" creator="VisuGPX - https://www.visugpx.com">
  <metadata>
    <name>Traversée Marseilleveyre</name>
    <desc><![CDATA[Traversée Madrague de Montredon -> Callelongue par pas de la cabre pas de la chèvre]]></desc>
  </metadata>
  <trk>
    <name><![CDATA[2018-03-03 09-56]]></name>
    <trkseg>
      <trkpt lat="43.23119" lon="5.35488">
        <ele>115.8</ele>
        <time>2018-03-03T08:56:06Z</time>
      </trkpt>
      <trkpt lat="43.23117" lon="5.35488">
        <ele>86.2</ele>
        <time>2018-03-03T08:56:12Z</time>
      </trkpt>
      <trkpt lat="43.23117" lon="5.35487">
        <ele>24.4</ele>
        <time>2018-03-03T08:56:52Z</time>
      </trkpt>
      <trkpt lat="43.23112" lon="5.35486">
        <ele>17.4</ele>
        <time>2018-03-03T08:58:33Z</time>
      </trkpt>
      <trkpt lat="43.23108" lon="5.35484">
        <ele>16.6</ele>
        <time>2018-03-03T08:58:38Z</time>
      </trkpt>
      <trkpt lat="43.23103" lon="5.35481">
        <ele>18</ele>
        <time>2018-03-03T08:58:43Z</time>
      </trkpt>
      <trkpt lat="43.23099" lon="5.3548">
        <ele>18.2</ele>
        <time>2018-03-03T08:58:48Z</time>
      </trkpt>
      <trkpt lat="43.23095" lon="5.3548">
        <ele>18.8</ele>
        <time>2018-03-03T08:58:53Z</time>
      </trkpt>
      <trkpt lat="43.23091" lon="5.35479">
        <ele>18.6</ele>
        <time>2018-03-03T08:58:58Z</time>
      </trkpt>
      <trkpt lat="43.23089" lon="5.35479">
        <ele>20</ele>
        <time>2018-03-03T08:59:03Z</time>
      </trkpt>
      <trkpt lat="43.23085" lon="5.35479">
        <ele>19.8</ele>
        <time>2018-03-03T08:59:08Z</time>
      </trkpt>
      <trkpt lat="43.2308" lon="5.35479">
        <ele>17</ele>
        <time>2018-03-03T08:59:13Z</time>
      </trkpt>
      <trkpt lat="43.23076" lon="5.35479">
        <ele>18.8</ele>
        <time>2018-03-03T08:59:18Z</time>
      </trkpt>
      <trkpt lat="43.23072" lon="5.35479">
        <ele>20</ele>
        <time>2018-03-03T08:59:23Z</time>
      </trkpt>
      <trkpt lat="43.23068" lon="5.3548">
        <ele>21.4</ele>
        <time>2018-03-03T08:59:28Z</time>
      </trkpt>
      <trkpt lat="43.23063" lon="5.35479">
        <ele>19.8</ele>
        <time>2018-03-03T08:59:33Z</time>
      </trkpt>
      <trkpt lat="43.23058" lon="5.35479">
        <ele>18.4</ele>
        <time>2018-03-03T08:59:38Z</time>
      </trkpt>
      <trkpt lat="43.23054" lon="5.35479">
        <ele>19.6</ele>
        <time>2018-03-03T08:59:43Z</time>
      </trkpt>
      <trkpt lat="43.2305" lon="5.3548">
        <ele>18.6</ele>
        <time>2018-03-03T08:59:48Z</time>
      </trkpt>
      <trkpt lat="43.23047" lon="5.35486">
        <ele>19.4</ele>
        <time>2018-03-03T08:59:53Z</time>
      </trkpt>
      <trkpt lat="43.23042" lon="5.3549">
        <ele>19.4</ele>
        <time>2018-03-03T08:59:58Z</time>
      </trkpt>
      <trkpt lat="43.23038" lon="5.35491">
        <ele>23.6</ele>
        <time>2018-03-03T09:00:03Z</time>
      </trkpt>
      <trkpt lat="43.23033" lon="5.35491">
        <ele>22.4</ele>
        <time>2018-03-03T09:00:08Z</time>
      </trkpt>
      <trkpt lat="43.23028" lon="5.35491">
        <ele>23.4</ele>
        <time>2018-03-03T09:00:13Z</time>
      </trkpt>
      <trkpt lat="43.23023" lon="5.3549">
        <ele>21.6</ele>
        <time>2018-03-03T09:00:18Z</time>
      </trkpt>
      <trkpt lat="43.23019" lon="5.3549">
        <ele>24.8</ele>
        <time>2018-03-03T09:00:23Z</time>
      </trkpt>
      <trkpt lat="43.23014" lon="5.35489">
        <ele>22.2</ele>
        <time>2018-03-03T09:00:28Z</time>
      </trkpt>
      <trkpt lat="43.2301" lon="5.35487">
        <ele>24.6</ele>
        <time>2018-03-03T09:00:33Z</time>
      </trkpt>
      <trkpt lat="43.23006" lon="5.35484">
        <ele>22.2</ele>
        <time>2018-03-03T09:00:38Z</time>
      </trkpt>
      <trkpt lat="43.23002" lon="5.35481">
        <ele>22.6</ele>
        <time>2018-03-03T09:00:43Z</time>
      </trkpt>
      <trkpt lat="43.22998" lon="5.35478">
        <ele>26.8</ele>
        <time>2018-03-03T09:00:48Z</time>
      </trkpt>
      <trkpt lat="43.22994" lon="5.35475">
        <ele>25</ele>
        <time>2018-03-03T09:00:53Z</time>
      </trkpt>
      <trkpt lat="43.2299" lon="5.35471">
        <ele>25.4</ele>
        <time>2018-03-03T09:00:58Z</time>
      </trkpt>
      <trkpt lat="43.22987" lon="5.35467">
        <ele>25.6</ele>
        <time>2018-03-03T09:01:03Z</time>
      </trkpt>
      <trkpt lat="43.22984" lon="5.35465">
        <ele>27.8</ele>
        <time>2018-03-03T09:01:08Z</time>
      </trkpt>
      <trkpt lat="43.22981" lon="5.35462">
        <ele>28.2</ele>
        <time>2018-03-03T09:01:13Z</time>
      </trkpt>
      <trkpt lat="43.22978" lon="5.35458">
        <ele>27.8</ele>
        <time>2018-03-03T09:01:18Z</time>
      </trkpt>
      <trkpt lat="43.22975" lon="5.35454">
        <ele>25.8</ele>
        <time>2018-03-03T09:01:23Z</time>
      </trkpt>
      <trkpt lat="43.22972" lon="5.35451">
        <ele>28.2</ele>
        <time>2018-03-03T09:01:28Z</time>
      </trkpt>
      <trkpt lat="43.22968" lon="5.35447">
        <ele>32</ele>
        <time>2018-03-03T09:01:33Z</time>
      </trkpt>
      <trkpt lat="43.22964" lon="5.35447">
        <ele>31.8</ele>
        <time>2018-03-03T09:01:38Z</time>
      </trkpt>
      <trkpt lat="43.22962" lon="5.35451">
        <ele>30.4</ele>
        <time>2018-03-03T09:01:43Z</time>
      </trkpt>
      <trkpt lat="43.22961" lon="5.35455">
        <ele>30.6</ele>
        <time>2018-03-03T09:01:48Z</time>
      </trkpt>
      <trkpt lat="43.22961" lon="5.35456">
        <ele>30.8</ele>
        <time>2018-03-03T09:01:53Z</time>
      </trkpt>
      <trkpt lat="43.22965" lon="5.3546">
        <ele>33.8</ele>
        <time>2018-03-03T09:01:58Z</time>
      </trkpt>
      <trkpt lat="43.22968" lon="5.35464">
        <ele>32.4</ele>
        <time>2018-03-03T09:02:03Z</time>
      </trkpt>
      <trkpt lat="43.2297" lon="5.35466">
        <ele>33.4</ele>
        <time>2018-03-03T09:02:08Z</time>
      </trkpt>
      <trkpt lat="43.22971" lon="5.35467">
        <ele>32.6</ele>
        <time>2018-03-03T09:02:13Z</time>
      </trkpt>
      <trkpt lat="43.22971" lon="5.35468">
        <ele>31</ele>
        <time>2018-03-03T09:02:18Z</time>
      </trkpt>
      <trkpt lat="43.22972" lon="5.35473">
        <ele>35.8</ele>
        <time>2018-03-03T09:02:23Z</time>
      </trkpt>
      <trkpt lat="43.22971" lon="5.35476">
        <ele>36.8</ele>
        <time>2018-03-03T09:02:28Z</time>
      </trkpt>
      <trkpt lat="43.22971" lon="5.35482">
        <ele>35.6</ele>
        <time>2018-03-03T09:02:33Z</time>
      </trkpt>
      <trkpt lat="43.22971" lon="5.35488">
        <ele>35.6</ele>
        <time>2018-03-03T09:02:38Z</time>
      </trkpt>
      <trkpt lat="43.2297" lon="5.35494">
        <ele>35.4</ele>
        <time>2018-03-03T09:02:43Z</time>
      </trkpt>
      <trkpt lat="43.2297" lon="5.355">
        <ele>36.2</ele>
        <time>2018-03-03T09:02:48Z</time>
      </trkpt>
      <trkpt lat="43.2297" lon="5.35506">
        <ele>34</ele>
        <time>2018-03-03T09:02:53Z</time>
      </trkpt>
      <trkpt lat="43.2297" lon="5.35512">
        <ele>35.6</ele>
        <time>2018-03-03T09:02:58Z</time>
      </trkpt>
      <trkpt lat="43.22971" lon="5.35517">
        <ele>38</ele>
        <time>2018-03-03T09:03:03Z</time>
      </trkpt>
      <trkpt lat="43.22971" lon="5.35516">
        <ele>37.8</ele>
        <time>2018-03-03T09:03:18Z</time>
      </trkpt>
      <trkpt lat="43.22974" lon="5.35517">
        <ele>36</ele>
        <time>2018-03-03T09:03:23Z</time>
      </trkpt>
      <trkpt lat="43.22978" lon="5.35519">
        <ele>36</ele>
        <time>2018-03-03T09:03:28Z</time>
      </trkpt>
      <trkpt lat="43.22982" lon="5.35524">
        <ele>35.6</ele>
        <time>2018-03-03T09:03:33Z</time>
      </trkpt>
      <trkpt lat="43.22985" lon="5.3553">
        <ele>35.8</ele>
        <time>2018-03-03T09:03:38Z</time>
      </trkpt>
      <trkpt lat="43.22987" lon="5.35533">
        <ele>37.2</ele>
        <time>2018-03-03T09:03:43Z</time>
      </trkpt>
      <trkpt lat="43.22991" lon="5.35535">
        <ele>32</ele>
        <time>2018-03-03T09:03:48Z</time>
      </trkpt>
      <trkpt lat="43.22995" lon="5.35532">
        <ele>34</ele>
        <time>2018-03-03T09:03:53Z</time>
      </trkpt>
      <trkpt lat="43.23" lon="5.35533">
        <ele>33.2</ele>
        <time>2018-03-03T09:03:58Z</time>
      </trkpt>
      <trkpt lat="43.23002" lon="5.35536">
        <ele>35.8</ele>
        <time>2018-03-03T09:04:03Z</time>
      </trkpt>
      <trkpt lat="43.23001" lon="5.35539">
        <ele>36.8</ele>
        <time>2018-03-03T09:04:08Z</time>
      </trkpt>
      <trkpt lat="43.23003" lon="5.35542">
        <ele>35.4</ele>
        <time>2018-03-03T09:04:14Z</time>
      </trkpt>
      <trkpt lat="43.23005" lon="5.35544">
        <ele>36.8</ele>
        <time>2018-03-03T09:04:19Z</time>
      </trkpt>
      <trkpt lat="43.23007" lon="5.35546">
        <ele>36.2</ele>
        <time>2018-03-03T09:04:24Z</time>
      </trkpt>
      <trkpt lat="43.2301" lon="5.35548">
        <ele>37.2</ele>
        <time>2018-03-03T09:04:29Z</time>
      </trkpt>
      <trkpt lat="43.23012" lon="5.3555">
        <ele>36.4</ele>
        <time>2018-03-03T09:04:34Z</time>
      </trkpt>
      <trkpt lat="43.23013" lon="5.35553">
        <ele>40.4</ele>
        <time>2018-03-03T09:04:39Z</time>
      </trkpt>
      <trkpt lat="43.23015" lon="5.35556">
        <ele>40</ele>
        <time>2018-03-03T09:04:44Z</time>
      </trkpt>
      <trkpt lat="43.23015" lon="5.35559">
        <ele>40.6</ele>
        <time>2018-03-03T09:04:49Z</time>
      </trkpt>
      <trkpt lat="43.23015" lon="5.35562">
        <ele>40.2</ele>
        <time>2018-03-03T09:04:54Z</time>
      </trkpt>
      <trkpt lat="43.23013" lon="5.35565">
        <ele>40.2</ele>
        <time>2018-03-03T09:04:59Z</time>
      </trkpt>
      <trkpt lat="43.23011" lon="5.35567">
        <ele>39.8</ele>
        <time>2018-03-03T09:05:04Z</time>
      </trkpt>
      <trkpt lat="43.23009" lon="5.35569">
        <ele>41.8</ele>
        <time>2018-03-03T09:05:09Z</time>
      </trkpt>
      <trkpt lat="43.23008" lon="5.35571">
        <ele>41.8</ele>
        <time>2018-03-03T09:05:14Z</time>
      </trkpt>
      <trkpt lat="43.23009" lon="5.35574">
        <ele>46</ele>
        <time>2018-03-03T09:05:19Z</time>
      </trkpt>
      <trkpt lat="43.2301" lon="5.35576">
        <ele>44.8</ele>
        <time>2018-03-03T09:05:24Z</time>
      </trkpt>
      <trkpt lat="43.23011" lon="5.35578">
        <ele>51.4</ele>
        <time>2018-03-03T09:05:29Z</time>
      </trkpt>
      <trkpt lat="43.23012" lon="5.35581">
        <ele>46.6</ele>
        <time>2018-03-03T09:05:34Z</time>
      </trkpt>
      <trkpt lat="43.23013" lon="5.35584">
        <ele>46.6</ele>
        <time>2018-03-03T09:05:39Z</time>
      </trkpt>
      <trkpt lat="43.23014" lon="5.35586">
        <ele>45.6</ele>
        <time>2018-03-03T09:05:44Z</time>
      </trkpt>
      <trkpt lat="43.23014" lon="5.35587">
        <ele>47.6</ele>
        <time>2018-03-03T09:05:49Z</time>
      </trkpt>
      <trkpt lat="43.23014" lon="5.35587">
        <ele>48</ele>
        <time>2018-03-03T09:05:54Z</time>
      </trkpt>
      <trkpt lat="43.23013" lon="5.3559">
        <ele>49.6</ele>
        <time>2018-03-03T09:05:59Z</time>
      </trkpt>
      <trkpt lat="43.23013" lon="5.3559">
        <ele>49.6</ele>
        <time>2018-03-03T09:06:04Z</time>
      </trkpt>
      <trkpt lat="43.23013" lon="5.35592">
        <ele>45.2</ele>
        <time>2018-03-03T09:06:09Z</time>
      </trkpt>
      <trkpt lat="43.23013" lon="5.35596">
        <ele>50</ele>
        <time>2018-03-03T09:06:14Z</time>
      </trkpt>
      <trkpt lat="43.23014" lon="5.35598">
        <ele>49</ele>
        <time>2018-03-03T09:06:19Z</time>
      </trkpt>
      <trkpt lat="43.23013" lon="5.356">
        <ele>53.2</ele>
        <time>2018-03-03T09:06:24Z</time>
      </trkpt>
      <trkpt lat="43.23012" lon="5.35604">
        <ele>54.2</ele>
        <time>2018-03-03T09:06:29Z</time>
      </trkpt>
      <trkpt lat="43.23012" lon="5.35609">
        <ele>53</ele>
        <time>2018-03-03T09:06:34Z</time>
      </trkpt>
      <trkpt lat="43.2301" lon="5.35612">
        <ele>52.6</ele>
        <time>2018-03-03T09:06:39Z</time>
      </trkpt>
      <trkpt lat="43.23009" lon="5.35615">
        <ele>54.6</ele>
        <time>2018-03-03T09:06:44Z</time>
      </trkpt>
      <trkpt lat="43.23007" lon="5.35619">
        <ele>55.8</ele>
        <time>2018-03-03T09:06:49Z</time>
      </trkpt>
      <trkpt lat="43.23004" lon="5.3562">
        <ele>52.8</ele>
        <time>2018-03-03T09:06:54Z</time>
      </trkpt>
      <trkpt lat="43.23" lon="5.35623">
        <ele>56.8</ele>
        <time>2018-03-03T09:06:59Z</time>
      </trkpt>
      <trkpt lat="43.22999" lon="5.35628">
        <ele>57.8</ele>
        <time>2018-03-03T09:07:04Z</time>
      </trkpt>
      <trkpt lat="43.22997" lon="5.35633">
        <ele>59.4</ele>
        <time>2018-03-03T09:07:09Z</time>
      </trkpt>
      <trkpt lat="43.22995" lon="5.35637">
        <ele>58.6</ele>
        <time>2018-03-03T09:07:14Z</time>
      </trkpt>
      <trkpt lat="43.22992" lon="5.3564">
        <ele>59.4</ele>
        <time>2018-03-03T09:07:19Z</time>
      </trkpt>
      <trkpt lat="43.22989" lon="5.35644">
        <ele>62.4</ele>
        <time>2018-03-03T09:07:24Z</time>
      </trkpt>
      <trkpt lat="43.22988" lon="5.35647">
        <ele>64.8</ele>
        <time>2018-03-03T09:07:29Z</time>
      </trkpt>
      <trkpt lat="43.22986" lon="5.35653">
        <ele>60</ele>
        <time>2018-03-03T09:07:34Z</time>
      </trkpt>
      <trkpt lat="43.22984" lon="5.35655">
        <ele>64.2</ele>
        <time>2018-03-03T09:07:39Z</time>
      </trkpt>
      <trkpt lat="43.22982" lon="5.35658">
        <ele>65.4</ele>
        <time>2018-03-03T09:07:44Z</time>
      </trkpt>
      <trkpt lat="43.22981" lon="5.35664">
        <ele>66.6</ele>
        <time>2018-03-03T09:07:49Z</time>
      </trkpt>
      <trkpt lat="43.22979" lon="5.3567">
        <ele>66.6</ele>
        <time>2018-03-03T09:07:54Z</time>
      </trkpt>
      <trkpt lat="43.22977" lon="5.35677">
        <ele>64.8</ele>
        <time>2018-03-03T09:07:59Z</time>
      </trkpt>
      <trkpt lat="43.22976" lon="5.35682">
        <ele>68</ele>
        <time>2018-03-03T09:08:04Z</time>
      </trkpt>
      <trkpt lat="43.22974" lon="5.35686">
        <ele>67.8</ele>
        <time>2018-03-03T09:08:09Z</time>
      </trkpt>
      <trkpt lat="43.22971" lon="5.35688">
        <ele>67.4</ele>
        <time>2018-03-03T09:08:14Z</time>
      </trkpt>
      <trkpt lat="43.22968" lon="5.3569">
        <ele>70.4</ele>
        <time>2018-03-03T09:08:19Z</time>
      </trkpt>
      <trkpt lat="43.22967" lon="5.35691">
        <ele>71</ele>
        <time>2018-03-03T09:08:24Z</time>
      </trkpt>
      <trkpt lat="43.22965" lon="5.35694">
        <ele>69</ele>
        <time>2018-03-03T09:08:29Z</time>
      </trkpt>
      <trkpt lat="43.22961" lon="5.35695">
        <ele>69.4</ele>
        <time>2018-03-03T09:08:34Z</time>
      </trkpt>
      <trkpt lat="43.22959" lon="5.35698">
        <ele>69.4</ele>
        <time>2018-03-03T09:08:39Z</time>
      </trkpt>
      <trkpt lat="43.22959" lon="5.35701">
        <ele>70.4</ele>
        <time>2018-03-03T09:08:44Z</time>
      </trkpt>
      <trkpt lat="43.22957" lon="5.35705">
        <ele>73</ele>
        <time>2018-03-03T09:08:49Z</time>
      </trkpt>
      <trkpt lat="43.22956" lon="5.35708">
        <ele>69.4</ele>
        <time>2018-03-03T09:08:54Z</time>
      </trkpt>
      <trkpt lat="43.22957" lon="5.35712">
        <ele>72.2</ele>
        <time>2018-03-03T09:08:59Z</time>
      </trkpt>
      <trkpt lat="43.22958" lon="5.35717">
        <ele>70.8</ele>
        <time>2018-03-03T09:09:04Z</time>
      </trkpt>
      <trkpt lat="43.22956" lon="5.35722">
        <ele>71.8</ele>
        <time>2018-03-03T09:09:09Z</time>
      </trkpt>
      <trkpt lat="43.22955" lon="5.35725">
        <ele>77.2</ele>
        <time>2018-03-03T09:09:14Z</time>
      </trkpt>
      <trkpt lat="43.22954" lon="5.35728">
        <ele>75.2</ele>
        <time>2018-03-03T09:09:19Z</time>
      </trkpt>
      <trkpt lat="43.22952" lon="5.3573">
        <ele>75.2</ele>
        <time>2018-03-03T09:09:24Z</time>
      </trkpt>
      <trkpt lat="43.22949" lon="5.35731">
        <ele>76.2</ele>
        <time>2018-03-03T09:09:29Z</time>
      </trkpt>
      <trkpt lat="43.22948" lon="5.35731">
        <ele>78.4</ele>
        <time>2018-03-03T09:09:34Z</time>
      </trkpt>
      <trkpt lat="43.22947" lon="5.3573">
        <ele>75.8</ele>
        <time>2018-03-03T09:09:39Z</time>
      </trkpt>
      <trkpt lat="43.22946" lon="5.35731">
        <ele>75</ele>
        <time>2018-03-03T09:09:44Z</time>
      </trkpt>
      <trkpt lat="43.22946" lon="5.35731">
        <ele>72.8</ele>
        <time>2018-03-03T09:10:19Z</time>
      </trkpt>
      <trkpt lat="43.22946" lon="5.35734">
        <ele>70.8</ele>
        <time>2018-03-03T09:12:49Z</time>
      </trkpt>
      <trkpt lat="43.22945" lon="5.35735">
        <ele>71.2</ele>
        <time>2018-03-03T09:12:54Z</time>
      </trkpt>
      <trkpt lat="43.22945" lon="5.35736">
        <ele>73.4</ele>
        <time>2018-03-03T09:12:59Z</time>
      </trkpt>
      <trkpt lat="43.22943" lon="5.35738">
        <ele>73.8</ele>
        <time>2018-03-03T09:13:04Z</time>
      </trkpt>
      <trkpt lat="43.2294" lon="5.35741">
        <ele>75.2</ele>
        <time>2018-03-03T09:13:10Z</time>
      </trkpt>
      <trkpt lat="43.2294" lon="5.35745">
        <ele>76.6</ele>
        <time>2018-03-03T09:13:15Z</time>
      </trkpt>
      <trkpt lat="43.22941" lon="5.3575">
        <ele>75.4</ele>
        <time>2018-03-03T09:13:20Z</time>
      </trkpt>
      <trkpt lat="43.22939" lon="5.35753">
        <ele>78</ele>
        <time>2018-03-03T09:13:25Z</time>
      </trkpt>
      <trkpt lat="43.22937" lon="5.35756">
        <ele>77.6</ele>
        <time>2018-03-03T09:13:30Z</time>
      </trkpt>
      <trkpt lat="43.22937" lon="5.35761">
        <ele>79.6</ele>
        <time>2018-03-03T09:13:35Z</time>
      </trkpt>
      <trkpt lat="43.22935" lon="5.35764">
        <ele>76.4</ele>
        <time>2018-03-03T09:13:40Z</time>
      </trkpt>
      <trkpt lat="43.22932" lon="5.35767">
        <ele>78</ele>
        <time>2018-03-03T09:13:45Z</time>
      </trkpt>
      <trkpt lat="43.22931" lon="5.35771">
        <ele>77.6</ele>
        <time>2018-03-03T09:13:50Z</time>
      </trkpt>
      <trkpt lat="43.22931" lon="5.35776">
        <ele>79.8</ele>
        <time>2018-03-03T09:13:55Z</time>
      </trkpt>
      <trkpt lat="43.2293" lon="5.35781">
        <ele>81.6</ele>
        <time>2018-03-03T09:14:00Z</time>
      </trkpt>
      <trkpt lat="43.22929" lon="5.35785">
        <ele>81.2</ele>
        <time>2018-03-03T09:14:05Z</time>
      </trkpt>
      <trkpt lat="43.22928" lon="5.35791">
        <ele>81.4</ele>
        <time>2018-03-03T09:14:10Z</time>
      </trkpt>
      <trkpt lat="43.22928" lon="5.35796">
        <ele>80.2</ele>
        <time>2018-03-03T09:14:15Z</time>
      </trkpt>
      <trkpt lat="43.22927" lon="5.35801">
        <ele>82.4</ele>
        <time>2018-03-03T09:14:20Z</time>
      </trkpt>
      <trkpt lat="43.22925" lon="5.35805">
        <ele>84.8</ele>
        <time>2018-03-03T09:14:25Z</time>
      </trkpt>
      <trkpt lat="43.22922" lon="5.35808">
        <ele>85.6</ele>
        <time>2018-03-03T09:14:30Z</time>
      </trkpt>
      <trkpt lat="43.22919" lon="5.35811">
        <ele>84.8</ele>
        <time>2018-03-03T09:14:35Z</time>
      </trkpt>
      <trkpt lat="43.22916" lon="5.35814">
        <ele>85.2</ele>
        <time>2018-03-03T09:14:40Z</time>
      </trkpt>
      <trkpt lat="43.22913" lon="5.35818">
        <ele>86.4</ele>
        <time>2018-03-03T09:14:45Z</time>
      </trkpt>
      <trkpt lat="43.22911" lon="5.35823">
        <ele>85.2</ele>
        <time>2018-03-03T09:14:50Z</time>
      </trkpt>
      <trkpt lat="43.22908" lon="5.35826">
        <ele>86.2</ele>
        <time>2018-03-03T09:14:55Z</time>
      </trkpt>
      <trkpt lat="43.22907" lon="5.3583">
        <ele>86.6</ele>
        <time>2018-03-03T09:15:00Z</time>
      </trkpt>
      <trkpt lat="43.22906" lon="5.35835">
        <ele>88.6</ele>
        <time>2018-03-03T09:15:05Z</time>
      </trkpt>
      <trkpt lat="43.22904" lon="5.35839">
        <ele>90.2</ele>
        <time>2018-03-03T09:15:10Z</time>
      </trkpt>
      <trkpt lat="43.22901" lon="5.35843">
        <ele>87.2</ele>
        <time>2018-03-03T09:15:15Z</time>
      </trkpt>
      <trkpt lat="43.22897" lon="5.35846">
        <ele>88.2</ele>
        <time>2018-03-03T09:15:20Z</time>
      </trkpt>
      <trkpt lat="43.22894" lon="5.35847">
        <ele>89</ele>
        <time>2018-03-03T09:15:25Z</time>
      </trkpt>
      <trkpt lat="43.22891" lon="5.35849">
        <ele>92</ele>
        <time>2018-03-03T09:15:30Z</time>
      </trkpt>
      <trkpt lat="43.22889" lon="5.35851">
        <ele>90.8</ele>
        <time>2018-03-03T09:15:35Z</time>
      </trkpt>
      <trkpt lat="43.22887" lon="5.35854">
        <ele>91.2</ele>
        <time>2018-03-03T09:15:40Z</time>
      </trkpt>
      <trkpt lat="43.22885" lon="5.35856">
        <ele>94.2</ele>
        <time>2018-03-03T09:15:45Z</time>
      </trkpt>
      <trkpt lat="43.22882" lon="5.35858">
        <ele>93.4</ele>
        <time>2018-03-03T09:15:50Z</time>
      </trkpt>
      <trkpt lat="43.22879" lon="5.35857">
        <ele>92.6</ele>
        <time>2018-03-03T09:16:00Z</time>
      </trkpt>
      <trkpt lat="43.22876" lon="5.35858">
        <ele>92.2</ele>
        <time>2018-03-03T09:16:05Z</time>
      </trkpt>
      <trkpt lat="43.22872" lon="5.35858">
        <ele>92</ele>
        <time>2018-03-03T09:16:10Z</time>
      </trkpt>
      <trkpt lat="43.22868" lon="5.35859">
        <ele>95.8</ele>
        <time>2018-03-03T09:16:15Z</time>
      </trkpt>
      <trkpt lat="43.22864" lon="5.35858">
        <ele>95.2</ele>
        <time>2018-03-03T09:16:20Z</time>
      </trkpt>
      <trkpt lat="43.2286" lon="5.3586">
        <ele>98.8</ele>
        <time>2018-03-03T09:16:25Z</time>
      </trkpt>
      <trkpt lat="43.22856" lon="5.35861">
        <ele>97.2</ele>
        <time>2018-03-03T09:16:30Z</time>
      </trkpt>
      <trkpt lat="43.22853" lon="5.35863">
        <ele>98.6</ele>
        <time>2018-03-03T09:16:35Z</time>
      </trkpt>
      <trkpt lat="43.22849" lon="5.35863">
        <ele>101.6</ele>
        <time>2018-03-03T09:16:40Z</time>
      </trkpt>
      <trkpt lat="43.22846" lon="5.35863">
        <ele>101.4</ele>
        <time>2018-03-03T09:16:45Z</time>
      </trkpt>
      <trkpt lat="43.22844" lon="5.35866">
        <ele>103</ele>
        <time>2018-03-03T09:16:50Z</time>
      </trkpt>
      <trkpt lat="43.22842" lon="5.35871">
        <ele>103</ele>
        <time>2018-03-03T09:16:55Z</time>
      </trkpt>
      <trkpt lat="43.2284" lon="5.35873">
        <ele>102.4</ele>
        <time>2018-03-03T09:17:00Z</time>
      </trkpt>
      <trkpt lat="43.22836" lon="5.35873">
        <ele>104.8</ele>
        <time>2018-03-03T09:17:05Z</time>
      </trkpt>
      <trkpt lat="43.22833" lon="5.35878">
        <ele>104.8</ele>
        <time>2018-03-03T09:17:10Z</time>
      </trkpt>
      <trkpt lat="43.22829" lon="5.35881">
        <ele>104.2</ele>
        <time>2018-03-03T09:17:15Z</time>
      </trkpt>
      <trkpt lat="43.22826" lon="5.35885">
        <ele>103</ele>
        <time>2018-03-03T09:17:20Z</time>
      </trkpt>
      <trkpt lat="43.22824" lon="5.35888">
        <ele>102.8</ele>
        <time>2018-03-03T09:17:25Z</time>
      </trkpt>
      <trkpt lat="43.22822" lon="5.35892">
        <ele>105.4</ele>
        <time>2018-03-03T09:17:30Z</time>
      </trkpt>
      <trkpt lat="43.22818" lon="5.35896">
        <ele>104.4</ele>
        <time>2018-03-03T09:17:35Z</time>
      </trkpt>
      <trkpt lat="43.22816" lon="5.35902">
        <ele>102.6</ele>
        <time>2018-03-03T09:17:40Z</time>
      </trkpt>
      <trkpt lat="43.22815" lon="5.35908">
        <ele>101.6</ele>
        <time>2018-03-03T09:17:45Z</time>
      </trkpt>
      <trkpt lat="43.22812" lon="5.35912">
        <ele>103.6</ele>
        <time>2018-03-03T09:17:50Z</time>
      </trkpt>
      <trkpt lat="43.22808" lon="5.35915">
        <ele>104</ele>
        <time>2018-03-03T09:17:55Z</time>
      </trkpt>
      <trkpt lat="43.22805" lon="5.35918">
        <ele>105.8</ele>
        <time>2018-03-03T09:18:00Z</time>
      </trkpt>
      <trkpt lat="43.22801" lon="5.3592">
        <ele>105.4</ele>
        <time>2018-03-03T09:18:05Z</time>
      </trkpt>
      <trkpt lat="43.22799" lon="5.35923">
        <ele>107</ele>
        <time>2018-03-03T09:18:10Z</time>
      </trkpt>
      <trkpt lat="43.22796" lon="5.35924">
        <ele>108</ele>
        <time>2018-03-03T09:18:15Z</time>
      </trkpt>
      <trkpt lat="43.22793" lon="5.35926">
        <ele>107.8</ele>
        <time>2018-03-03T09:18:20Z</time>
      </trkpt>
      <trkpt lat="43.22791" lon="5.35928">
        <ele>111</ele>
        <time>2018-03-03T09:18:25Z</time>
      </trkpt>
      <trkpt lat="43.22788" lon="5.3593">
        <ele>111.2</ele>
        <time>2018-03-03T09:18:30Z</time>
      </trkpt>
      <trkpt lat="43.22785" lon="5.35932">
        <ele>112.4</ele>
        <time>2018-03-03T09:18:35Z</time>
      </trkpt>
      <trkpt lat="43.22781" lon="5.35935">
        <ele>112.8</ele>
        <time>2018-03-03T09:18:40Z</time>
      </trkpt>
      <trkpt lat="43.22777" lon="5.35937">
        <ele>113.4</ele>
        <time>2018-03-03T09:18:45Z</time>
      </trkpt>
      <trkpt lat="43.22775" lon="5.35938">
        <ele>112.8</ele>
        <time>2018-03-03T09:18:50Z</time>
      </trkpt>
      <trkpt lat="43.22771" lon="5.35939">
        <ele>113.2</ele>
        <time>2018-03-03T09:18:55Z</time>
      </trkpt>
      <trkpt lat="43.22766" lon="5.35941">
        <ele>115.4</ele>
        <time>2018-03-03T09:19:00Z</time>
      </trkpt>
      <trkpt lat="43.22762" lon="5.35943">
        <ele>116</ele>
        <time>2018-03-03T09:19:05Z</time>
      </trkpt>
      <trkpt lat="43.22757" lon="5.35945">
        <ele>113.8</ele>
        <time>2018-03-03T09:19:10Z</time>
      </trkpt>
      <trkpt lat="43.22753" lon="5.35947">
        <ele>113.2</ele>
        <time>2018-03-03T09:19:15Z</time>
      </trkpt>
      <trkpt lat="43.22751" lon="5.35948">
        <ele>115.4</ele>
        <time>2018-03-03T09:19:20Z</time>
      </trkpt>
      <trkpt lat="43.2275" lon="5.35947">
        <ele>115</ele>
        <time>2018-03-03T09:19:25Z</time>
      </trkpt>
      <trkpt lat="43.22748" lon="5.35947">
        <ele>111.8</ele>
        <time>2018-03-03T09:19:30Z</time>
      </trkpt>
      <trkpt lat="43.22744" lon="5.3595">
        <ele>111.2</ele>
        <time>2018-03-03T09:19:35Z</time>
      </trkpt>
      <trkpt lat="43.22741" lon="5.35952">
        <ele>113.2</ele>
        <time>2018-03-03T09:19:40Z</time>
      </trkpt>
      <trkpt lat="43.22742" lon="5.35953">
        <ele>112.8</ele>
        <time>2018-03-03T09:19:50Z</time>
      </trkpt>
      <trkpt lat="43.2274" lon="5.35964">
        <ele>111.6</ele>
        <time>2018-03-03T09:20:10Z</time>
      </trkpt>
      <trkpt lat="43.22741" lon="5.35967">
        <ele>112.6</ele>
        <time>2018-03-03T09:20:15Z</time>
      </trkpt>
      <trkpt lat="43.2274" lon="5.3597">
        <ele>116.6</ele>
        <time>2018-03-03T09:20:20Z</time>
      </trkpt>
      <trkpt lat="43.2274" lon="5.3597">
        <ele>116.4</ele>
        <time>2018-03-03T09:20:25Z</time>
      </trkpt>
      <trkpt lat="43.22739" lon="5.35972">
        <ele>116.2</ele>
        <time>2018-03-03T09:20:30Z</time>
      </trkpt>
      <trkpt lat="43.2274" lon="5.35978">
        <ele>117</ele>
        <time>2018-03-03T09:20:35Z</time>
      </trkpt>
      <trkpt lat="43.22739" lon="5.35982">
        <ele>116.6</ele>
        <time>2018-03-03T09:20:40Z</time>
      </trkpt>
      <trkpt lat="43.2274" lon="5.35987">
        <ele>115.6</ele>
        <time>2018-03-03T09:20:45Z</time>
      </trkpt>
      <trkpt lat="43.2274" lon="5.35988">
        <ele>116.4</ele>
        <time>2018-03-03T09:20:55Z</time>
      </trkpt>
      <trkpt lat="43.2274" lon="5.35988">
        <ele>116.6</ele>
        <time>2018-03-03T09:21:15Z</time>
      </trkpt>
      <trkpt lat="43.22741" lon="5.35991">
        <ele>117.6</ele>
        <time>2018-03-03T09:21:20Z</time>
      </trkpt>
      <trkpt lat="43.22742" lon="5.35996">
        <ele>116.2</ele>
        <time>2018-03-03T09:21:25Z</time>
      </trkpt>
      <trkpt lat="43.22742" lon="5.36">
        <ele>113.4</ele>
        <time>2018-03-03T09:21:30Z</time>
      </trkpt>
      <trkpt lat="43.22741" lon="5.36006">
        <ele>113.6</ele>
        <time>2018-03-03T09:21:35Z</time>
      </trkpt>
      <trkpt lat="43.2274" lon="5.36009">
        <ele>117</ele>
        <time>2018-03-03T09:21:40Z</time>
      </trkpt>
      <trkpt lat="43.22736" lon="5.36014">
        <ele>116</ele>
        <time>2018-03-03T09:21:45Z</time>
      </trkpt>
      <trkpt lat="43.22734" lon="5.3602">
        <ele>117.2</ele>
        <time>2018-03-03T09:21:50Z</time>
      </trkpt>
      <trkpt lat="43.22731" lon="5.36025">
        <ele>117.6</ele>
        <time>2018-03-03T09:21:55Z</time>
      </trkpt>
      <trkpt lat="43.22729" lon="5.36029">
        <ele>119</ele>
        <time>2018-03-03T09:22:00Z</time>
      </trkpt>
      <trkpt lat="43.22728" lon="5.36032">
        <ele>118</ele>
        <time>2018-03-03T09:22:05Z</time>
      </trkpt>
      <trkpt lat="43.22726" lon="5.36034">
        <ele>120.4</ele>
        <time>2018-03-03T09:22:10Z</time>
      </trkpt>
      <trkpt lat="43.22726" lon="5.36039">
        <ele>119.2</ele>
        <time>2018-03-03T09:22:15Z</time>
      </trkpt>
      <trkpt lat="43.22726" lon="5.3604">
        <ele>121.4</ele>
        <time>2018-03-03T09:22:20Z</time>
      </trkpt>
      <trkpt lat="43.22726" lon="5.36043">
        <ele>120.4</ele>
        <time>2018-03-03T09:22:25Z</time>
      </trkpt>
      <trkpt lat="43.22726" lon="5.36046">
        <ele>121.8</ele>
        <time>2018-03-03T09:22:30Z</time>
      </trkpt>
      <trkpt lat="43.22727" lon="5.36049">
        <ele>122.4</ele>
        <time>2018-03-03T09:22:35Z</time>
      </trkpt>
      <trkpt lat="43.22727" lon="5.36052">
        <ele>124.4</ele>
        <time>2018-03-03T09:22:40Z</time>
      </trkpt>
      <trkpt lat="43.22727" lon="5.36055">
        <ele>120.8</ele>
        <time>2018-03-03T09:22:45Z</time>
      </trkpt>
      <trkpt lat="43.22729" lon="5.36057">
        <ele>121.2</ele>
        <time>2018-03-03T09:22:50Z</time>
      </trkpt>
      <trkpt lat="43.22731" lon="5.3606">
        <ele>123.2</ele>
        <time>2018-03-03T09:22:55Z</time>
      </trkpt>
      <trkpt lat="43.22735" lon="5.36061">
        <ele>125.8</ele>
        <time>2018-03-03T09:23:00Z</time>
      </trkpt>
      <trkpt lat="43.22738" lon="5.36063">
        <ele>128.4</ele>
        <time>2018-03-03T09:23:05Z</time>
      </trkpt>
      <trkpt lat="43.22739" lon="5.36066">
        <ele>128.6</ele>
        <time>2018-03-03T09:23:10Z</time>
      </trkpt>
      <trkpt lat="43.22741" lon="5.36071">
        <ele>129</ele>
        <time>2018-03-03T09:23:20Z</time>
      </trkpt>
      <trkpt lat="43.2274" lon="5.36073">
        <ele>131.2</ele>
        <time>2018-03-03T09:23:25Z</time>
      </trkpt>
      <trkpt lat="43.22739" lon="5.36076">
        <ele>130.6</ele>
        <time>2018-03-03T09:23:30Z</time>
      </trkpt>
      <trkpt lat="43.22738" lon="5.36077">
        <ele>131.2</ele>
        <time>2018-03-03T09:23:35Z</time>
      </trkpt>
      <trkpt lat="43.22737" lon="5.3608">
        <ele>131.6</ele>
        <time>2018-03-03T09:23:40Z</time>
      </trkpt>
      <trkpt lat="43.22736" lon="5.36082">
        <ele>132.4</ele>
        <time>2018-03-03T09:23:45Z</time>
      </trkpt>
      <trkpt lat="43.22736" lon="5.36086">
        <ele>132.8</ele>
        <time>2018-03-03T09:23:50Z</time>
      </trkpt>
      <trkpt lat="43.22737" lon="5.36088">
        <ele>133.4</ele>
        <time>2018-03-03T09:23:55Z</time>
      </trkpt>
      <trkpt lat="43.2274" lon="5.36091">
        <ele>138.4</ele>
        <time>2018-03-03T09:24:00Z</time>
      </trkpt>
      <trkpt lat="43.22741" lon="5.36092">
        <ele>135.8</ele>
        <time>2018-03-03T09:24:05Z</time>
      </trkpt>
      <trkpt lat="43.2274" lon="5.36094">
        <ele>137.8</ele>
        <time>2018-03-03T09:24:10Z</time>
      </trkpt>
      <trkpt lat="43.2274" lon="5.36097">
        <ele>136.4</ele>
        <time>2018-03-03T09:24:15Z</time>
      </trkpt>
      <trkpt lat="43.22741" lon="5.36099">
        <ele>137.8</ele>
        <time>2018-03-03T09:24:21Z</time>
      </trkpt>
      <trkpt lat="43.22741" lon="5.361">
        <ele>138.2</ele>
        <time>2018-03-03T09:24:26Z</time>
      </trkpt>
      <trkpt lat="43.22741" lon="5.36101">
        <ele>141.6</ele>
        <time>2018-03-03T09:24:31Z</time>
      </trkpt>
      <trkpt lat="43.22741" lon="5.36105">
        <ele>140.2</ele>
        <time>2018-03-03T09:24:36Z</time>
      </trkpt>
      <trkpt lat="43.22741" lon="5.36105">
        <ele>140.6</ele>
        <time>2018-03-03T09:24:46Z</time>
      </trkpt>
      <trkpt lat="43.22741" lon="5.36106">
        <ele>142.8</ele>
        <time>2018-03-03T09:24:51Z</time>
      </trkpt>
      <trkpt lat="43.2274" lon="5.36108">
        <ele>141.6</ele>
        <time>2018-03-03T09:24:56Z</time>
      </trkpt>
      <trkpt lat="43.2274" lon="5.36108">
        <ele>141.6</ele>
        <time>2018-03-03T09:25:01Z</time>
      </trkpt>
      <trkpt lat="43.2274" lon="5.3611">
        <ele>137.6</ele>
        <time>2018-03-03T09:25:06Z</time>
      </trkpt>
      <trkpt lat="43.22739" lon="5.36114">
        <ele>141</ele>
        <time>2018-03-03T09:25:11Z</time>
      </trkpt>
      <trkpt lat="43.22739" lon="5.36118">
        <ele>140.6</ele>
        <time>2018-03-03T09:25:16Z</time>
      </trkpt>
      <trkpt lat="43.22737" lon="5.36119">
        <ele>141.6</ele>
        <time>2018-03-03T09:25:21Z</time>
      </trkpt>
      <trkpt lat="43.22734" lon="5.36119">
        <ele>144.6</ele>
        <time>2018-03-03T09:25:26Z</time>
      </trkpt>
      <trkpt lat="43.22733" lon="5.36121">
        <ele>144</ele>
        <time>2018-03-03T09:25:31Z</time>
      </trkpt>
      <trkpt lat="43.22731" lon="5.36123">
        <ele>145.6</ele>
        <time>2018-03-03T09:25:36Z</time>
      </trkpt>
      <trkpt lat="43.2273" lon="5.36124">
        <ele>147.8</ele>
        <time>2018-03-03T09:25:41Z</time>
      </trkpt>
      <trkpt lat="43.22731" lon="5.36127">
        <ele>146</ele>
        <time>2018-03-03T09:25:46Z</time>
      </trkpt>
      <trkpt lat="43.2273" lon="5.3613">
        <ele>147.6</ele>
        <time>2018-03-03T09:25:51Z</time>
      </trkpt>
      <trkpt lat="43.2273" lon="5.36133">
        <ele>148.8</ele>
        <time>2018-03-03T09:25:56Z</time>
      </trkpt>
      <trkpt lat="43.22729" lon="5.36136">
        <ele>149</ele>
        <time>2018-03-03T09:26:01Z</time>
      </trkpt>
      <trkpt lat="43.22728" lon="5.36139">
        <ele>150.8</ele>
        <time>2018-03-03T09:26:06Z</time>
      </trkpt>
      <trkpt lat="43.22727" lon="5.36143">
        <ele>149.8</ele>
        <time>2018-03-03T09:26:11Z</time>
      </trkpt>
      <trkpt lat="43.22726" lon="5.36147">
        <ele>152.2</ele>
        <time>2018-03-03T09:26:16Z</time>
      </trkpt>
      <trkpt lat="43.22726" lon="5.36151">
        <ele>149</ele>
        <time>2018-03-03T09:26:21Z</time>
      </trkpt>
      <trkpt lat="43.22724" lon="5.36156">
        <ele>151.2</ele>
        <time>2018-03-03T09:26:26Z</time>
      </trkpt>
      <trkpt lat="43.22722" lon="5.3616">
        <ele>151.2</ele>
        <time>2018-03-03T09:26:31Z</time>
      </trkpt>
      <trkpt lat="43.22722" lon="5.3616">
        <ele>151.6</ele>
        <time>2018-03-03T09:26:51Z</time>
      </trkpt>
      <trkpt lat="43.2272" lon="5.3616">
        <ele>151.2</ele>
        <time>2018-03-03T09:26:56Z</time>
      </trkpt>
      <trkpt lat="43.22718" lon="5.36162">
        <ele>152</ele>
        <time>2018-03-03T09:27:01Z</time>
      </trkpt>
      <trkpt lat="43.22712" lon="5.36165">
        <ele>151.6</ele>
        <time>2018-03-03T09:27:06Z</time>
      </trkpt>
      <trkpt lat="43.22708" lon="5.36167">
        <ele>154</ele>
        <time>2018-03-03T09:27:11Z</time>
      </trkpt>
      <trkpt lat="43.22703" lon="5.36169">
        <ele>152.2</ele>
        <time>2018-03-03T09:27:16Z</time>
      </trkpt>
      <trkpt lat="43.22699" lon="5.36171">
        <ele>153.6</ele>
        <time>2018-03-03T09:27:21Z</time>
      </trkpt>
      <trkpt lat="43.22698" lon="5.36171">
        <ele>152.8</ele>
        <time>2018-03-03T09:27:26Z</time>
      </trkpt>
      <trkpt lat="43.22694" lon="5.36172">
        <ele>155.4</ele>
        <time>2018-03-03T09:27:31Z</time>
      </trkpt>
      <trkpt lat="43.22691" lon="5.36174">
        <ele>155.4</ele>
        <time>2018-03-03T09:27:36Z</time>
      </trkpt>
      <trkpt lat="43.22686" lon="5.36175">
        <ele>155.4</ele>
        <time>2018-03-03T09:27:41Z</time>
      </trkpt>
      <trkpt lat="43.22684" lon="5.36175">
        <ele>153.8</ele>
        <time>2018-03-03T09:27:46Z</time>
      </trkpt>
      <trkpt lat="43.22683" lon="5.36176">
        <ele>153.4</ele>
        <time>2018-03-03T09:27:51Z</time>
      </trkpt>
      <trkpt lat="43.22683" lon="5.36178">
        <ele>154.4</ele>
        <time>2018-03-03T09:28:01Z</time>
      </trkpt>
      <trkpt lat="43.22683" lon="5.36178">
        <ele>153</ele>
        <time>2018-03-03T09:28:06Z</time>
      </trkpt>
      <trkpt lat="43.2268" lon="5.3618">
        <ele>151.6</ele>
        <time>2018-03-03T09:28:16Z</time>
      </trkpt>
      <trkpt lat="43.22679" lon="5.36182">
        <ele>152.2</ele>
        <time>2018-03-03T09:28:21Z</time>
      </trkpt>
      <trkpt lat="43.22676" lon="5.36184">
        <ele>148.8</ele>
        <time>2018-03-03T09:28:46Z</time>
      </trkpt>
      <trkpt lat="43.22676" lon="5.36186">
        <ele>148.8</ele>
        <time>2018-03-03T09:28:51Z</time>
      </trkpt>
      <trkpt lat="43.22675" lon="5.36187">
        <ele>148.6</ele>
        <time>2018-03-03T09:29:01Z</time>
      </trkpt>
      <trkpt lat="43.22673" lon="5.36191">
        <ele>147.8</ele>
        <time>2018-03-03T09:29:07Z</time>
      </trkpt>
      <trkpt lat="43.22667" lon="5.36196">
        <ele>148</ele>
        <time>2018-03-03T09:29:12Z</time>
      </trkpt>
      <trkpt lat="43.22663" lon="5.362">
        <ele>146.6</ele>
        <time>2018-03-03T09:29:17Z</time>
      </trkpt>
      <trkpt lat="43.22664" lon="5.36203">
        <ele>146.2</ele>
        <time>2018-03-03T09:29:22Z</time>
      </trkpt>
      <trkpt lat="43.22664" lon="5.36207">
        <ele>147.2</ele>
        <time>2018-03-03T09:29:27Z</time>
      </trkpt>
      <trkpt lat="43.22663" lon="5.36209">
        <ele>147.8</ele>
        <time>2018-03-03T09:29:32Z</time>
      </trkpt>
      <trkpt lat="43.22662" lon="5.36212">
        <ele>147</ele>
        <time>2018-03-03T09:29:37Z</time>
      </trkpt>
      <trkpt lat="43.22662" lon="5.36213">
        <ele>152</ele>
        <time>2018-03-03T09:29:42Z</time>
      </trkpt>
      <trkpt lat="43.22663" lon="5.36215">
        <ele>151.4</ele>
        <time>2018-03-03T09:29:47Z</time>
      </trkpt>
      <trkpt lat="43.22663" lon="5.36216">
        <ele>153.4</ele>
        <time>2018-03-03T09:29:52Z</time>
      </trkpt>
      <trkpt lat="43.22666" lon="5.36218">
        <ele>151.6</ele>
        <time>2018-03-03T09:29:57Z</time>
      </trkpt>
      <trkpt lat="43.22666" lon="5.36224">
        <ele>158</ele>
        <time>2018-03-03T09:30:27Z</time>
      </trkpt>
      <trkpt lat="43.22666" lon="5.36228">
        <ele>157.2</ele>
        <time>2018-03-03T09:30:37Z</time>
      </trkpt>
      <trkpt lat="43.22666" lon="5.36231">
        <ele>157.2</ele>
        <time>2018-03-03T09:30:42Z</time>
      </trkpt>
      <trkpt lat="43.22665" lon="5.36234">
        <ele>160.2</ele>
        <time>2018-03-03T09:30:47Z</time>
      </trkpt>
      <trkpt lat="43.22665" lon="5.36236">
        <ele>158.8</ele>
        <time>2018-03-03T09:30:52Z</time>
      </trkpt>
      <trkpt lat="43.22665" lon="5.36239">
        <ele>161</ele>
        <time>2018-03-03T09:30:57Z</time>
      </trkpt>
      <trkpt lat="43.22664" lon="5.36243">
        <ele>158.8</ele>
        <time>2018-03-03T09:31:02Z</time>
      </trkpt>
      <trkpt lat="43.22662" lon="5.36246">
        <ele>158.8</ele>
        <time>2018-03-03T09:31:07Z</time>
      </trkpt>
      <trkpt lat="43.2266" lon="5.36249">
        <ele>157.4</ele>
        <time>2018-03-03T09:31:12Z</time>
      </trkpt>
      <trkpt lat="43.22658" lon="5.36253">
        <ele>156</ele>
        <time>2018-03-03T09:31:17Z</time>
      </trkpt>
      <trkpt lat="43.22657" lon="5.36259">
        <ele>155.6</ele>
        <time>2018-03-03T09:31:22Z</time>
      </trkpt>
      <trkpt lat="43.22658" lon="5.36262">
        <ele>153.6</ele>
        <time>2018-03-03T09:31:27Z</time>
      </trkpt>
      <trkpt lat="43.22659" lon="5.36263">
        <ele>154</ele>
        <time>2018-03-03T09:31:42Z</time>
      </trkpt>
      <trkpt lat="43.22659" lon="5.36264">
        <ele>153.6</ele>
        <time>2018-03-03T09:31:52Z</time>
      </trkpt>
      <trkpt lat="43.22657" lon="5.36264">
        <ele>153.4</ele>
        <time>2018-03-03T09:31:57Z</time>
      </trkpt>
      <trkpt lat="43.22655" lon="5.36267">
        <ele>154.2</ele>
        <time>2018-03-03T09:32:02Z</time>
      </trkpt>
      <trkpt lat="43.22654" lon="5.36274">
        <ele>152.2</ele>
        <time>2018-03-03T09:32:07Z</time>
      </trkpt>
      <trkpt lat="43.22653" lon="5.3628">
        <ele>154</ele>
        <time>2018-03-03T09:32:12Z</time>
      </trkpt>
      <trkpt lat="43.22653" lon="5.36286">
        <ele>152.6</ele>
        <time>2018-03-03T09:32:17Z</time>
      </trkpt>
      <trkpt lat="43.22652" lon="5.36292">
        <ele>149.4</ele>
        <time>2018-03-03T09:32:22Z</time>
      </trkpt>
      <trkpt lat="43.22651" lon="5.36297">
        <ele>155.2</ele>
        <time>2018-03-03T09:32:27Z</time>
      </trkpt>
      <trkpt lat="43.22647" lon="5.36301">
        <ele>154</ele>
        <time>2018-03-03T09:32:32Z</time>
      </trkpt>
      <trkpt lat="43.22642" lon="5.36306">
        <ele>154.8</ele>
        <time>2018-03-03T09:32:37Z</time>
      </trkpt>
      <trkpt lat="43.22641" lon="5.36312">
        <ele>157.4</ele>
        <time>2018-03-03T09:32:42Z</time>
      </trkpt>
      <trkpt lat="43.22642" lon="5.36316">
        <ele>154.8</ele>
        <time>2018-03-03T09:32:47Z</time>
      </trkpt>
      <trkpt lat="43.22641" lon="5.3632">
        <ele>158.4</ele>
        <time>2018-03-03T09:32:52Z</time>
      </trkpt>
      <trkpt lat="43.2264" lon="5.36324">
        <ele>157.2</ele>
        <time>2018-03-03T09:32:57Z</time>
      </trkpt>
      <trkpt lat="43.22639" lon="5.36328">
        <ele>157</ele>
        <time>2018-03-03T09:33:02Z</time>
      </trkpt>
      <trkpt lat="43.2264" lon="5.36331">
        <ele>157</ele>
        <time>2018-03-03T09:33:07Z</time>
      </trkpt>
      <trkpt lat="43.22639" lon="5.36335">
        <ele>156.2</ele>
        <time>2018-03-03T09:33:12Z</time>
      </trkpt>
      <trkpt lat="43.22637" lon="5.36337">
        <ele>156.8</ele>
        <time>2018-03-03T09:33:17Z</time>
      </trkpt>
      <trkpt lat="43.22635" lon="5.36337">
        <ele>156.4</ele>
        <time>2018-03-03T09:33:22Z</time>
      </trkpt>
      <trkpt lat="43.22635" lon="5.36336">
        <ele>158.4</ele>
        <time>2018-03-03T09:33:37Z</time>
      </trkpt>
      <trkpt lat="43.22635" lon="5.36335">
        <ele>158.2</ele>
        <time>2018-03-03T09:33:43Z</time>
      </trkpt>
      <trkpt lat="43.22632" lon="5.36333">
        <ele>163</ele>
        <time>2018-03-03T09:33:48Z</time>
      </trkpt>
      <trkpt lat="43.22629" lon="5.3633">
        <ele>159.2</ele>
        <time>2018-03-03T09:33:53Z</time>
      </trkpt>
      <trkpt lat="43.22626" lon="5.36328">
        <ele>164.8</ele>
        <time>2018-03-03T09:33:58Z</time>
      </trkpt>
      <trkpt lat="43.22624" lon="5.36326">
        <ele>165</ele>
        <time>2018-03-03T09:34:03Z</time>
      </trkpt>
      <trkpt lat="43.22623" lon="5.36324">
        <ele>164</ele>
        <time>2018-03-03T09:34:08Z</time>
      </trkpt>
      <trkpt lat="43.22621" lon="5.36322">
        <ele>182.2</ele>
        <time>2018-03-03T09:35:13Z</time>
      </trkpt>
      <trkpt lat="43.22621" lon="5.36323">
        <ele>185.8</ele>
        <time>2018-03-03T09:35:18Z</time>
      </trkpt>
      <trkpt lat="43.22622" lon="5.36324">
        <ele>188.2</ele>
        <time>2018-03-03T09:35:28Z</time>
      </trkpt>
      <trkpt lat="43.22623" lon="5.36326">
        <ele>188.6</ele>
        <time>2018-03-03T09:35:33Z</time>
      </trkpt>
      <trkpt lat="43.22625" lon="5.36327">
        <ele>190.8</ele>
        <time>2018-03-03T09:35:43Z</time>
      </trkpt>
      <trkpt lat="43.22626" lon="5.36328">
        <ele>194</ele>
        <time>2018-03-03T09:35:53Z</time>
      </trkpt>
      <trkpt lat="43.22626" lon="5.36329">
        <ele>195.6</ele>
        <time>2018-03-03T09:35:58Z</time>
      </trkpt>
      <trkpt lat="43.22627" lon="5.3633">
        <ele>197</ele>
        <time>2018-03-03T09:36:03Z</time>
      </trkpt>
      <trkpt lat="43.22627" lon="5.36331">
        <ele>199.8</ele>
        <time>2018-03-03T09:36:13Z</time>
      </trkpt>
      <trkpt lat="43.22627" lon="5.36333">
        <ele>200.6</ele>
        <time>2018-03-03T09:36:18Z</time>
      </trkpt>
      <trkpt lat="43.22627" lon="5.36334">
        <ele>201</ele>
        <time>2018-03-03T09:36:23Z</time>
      </trkpt>
      <trkpt lat="43.22623" lon="5.36338">
        <ele>198.8</ele>
        <time>2018-03-03T09:36:28Z</time>
      </trkpt>
      <trkpt lat="43.22619" lon="5.3634">
        <ele>194.2</ele>
        <time>2018-03-03T09:36:33Z</time>
      </trkpt>
      <trkpt lat="43.22618" lon="5.3634">
        <ele>196.8</ele>
        <time>2018-03-03T09:36:38Z</time>
      </trkpt>
      <trkpt lat="43.22617" lon="5.3634">
        <ele>196.8</ele>
        <time>2018-03-03T09:36:43Z</time>
      </trkpt>
      <trkpt lat="43.22617" lon="5.3634">
        <ele>196.8</ele>
        <time>2018-03-03T09:36:48Z</time>
      </trkpt>
      <trkpt lat="43.22616" lon="5.3634">
        <ele>198.4</ele>
        <time>2018-03-03T09:36:53Z</time>
      </trkpt>
      <trkpt lat="43.22615" lon="5.36341">
        <ele>198</ele>
        <time>2018-03-03T09:36:58Z</time>
      </trkpt>
      <trkpt lat="43.22613" lon="5.36342">
        <ele>198.2</ele>
        <time>2018-03-03T09:37:03Z</time>
      </trkpt>
      <trkpt lat="43.22612" lon="5.36343">
        <ele>201.6</ele>
        <time>2018-03-03T09:37:08Z</time>
      </trkpt>
      <trkpt lat="43.22612" lon="5.36343">
        <ele>201.6</ele>
        <time>2018-03-03T09:37:18Z</time>
      </trkpt>
      <trkpt lat="43.22607" lon="5.36347">
        <ele>198.2</ele>
        <time>2018-03-03T09:37:23Z</time>
      </trkpt>
      <trkpt lat="43.22604" lon="5.36348">
        <ele>195.8</ele>
        <time>2018-03-03T09:37:28Z</time>
      </trkpt>
      <trkpt lat="43.22601" lon="5.3635">
        <ele>191.6</ele>
        <time>2018-03-03T09:37:38Z</time>
      </trkpt>
      <trkpt lat="43.22601" lon="5.36352">
        <ele>190</ele>
        <time>2018-03-03T09:37:43Z</time>
      </trkpt>
      <trkpt lat="43.22601" lon="5.36353">
        <ele>188.6</ele>
        <time>2018-03-03T09:37:48Z</time>
      </trkpt>
      <trkpt lat="43.22601" lon="5.36354">
        <ele>187.8</ele>
        <time>2018-03-03T09:37:53Z</time>
      </trkpt>
      <trkpt lat="43.226" lon="5.36355">
        <ele>188.4</ele>
        <time>2018-03-03T09:37:58Z</time>
      </trkpt>
      <trkpt lat="43.22599" lon="5.36355">
        <ele>187.2</ele>
        <time>2018-03-03T09:38:03Z</time>
      </trkpt>
      <trkpt lat="43.22595" lon="5.36361">
        <ele>193</ele>
        <time>2018-03-03T09:38:54Z</time>
      </trkpt>
      <trkpt lat="43.22595" lon="5.36362">
        <ele>192</ele>
        <time>2018-03-03T09:38:59Z</time>
      </trkpt>
      <trkpt lat="43.22595" lon="5.36364">
        <ele>192.4</ele>
        <time>2018-03-03T09:39:09Z</time>
      </trkpt>
      <trkpt lat="43.22594" lon="5.36366">
        <ele>192.8</ele>
        <time>2018-03-03T09:39:19Z</time>
      </trkpt>
      <trkpt lat="43.22593" lon="5.36369">
        <ele>192.8</ele>
        <time>2018-03-03T09:39:24Z</time>
      </trkpt>
      <trkpt lat="43.22592" lon="5.36371">
        <ele>195.4</ele>
        <time>2018-03-03T09:39:29Z</time>
      </trkpt>
      <trkpt lat="43.22592" lon="5.36373">
        <ele>195.4</ele>
        <time>2018-03-03T09:39:44Z</time>
      </trkpt>
      <trkpt lat="43.22593" lon="5.36374">
        <ele>195.4</ele>
        <time>2018-03-03T09:39:49Z</time>
      </trkpt>
      <trkpt lat="43.22594" lon="5.36374">
        <ele>195.8</ele>
        <time>2018-03-03T09:40:04Z</time>
      </trkpt>
      <trkpt lat="43.22594" lon="5.36375">
        <ele>198.8</ele>
        <time>2018-03-03T09:41:19Z</time>
      </trkpt>
      <trkpt lat="43.22595" lon="5.36375">
        <ele>198.8</ele>
        <time>2018-03-03T09:41:24Z</time>
      </trkpt>
      <trkpt lat="43.22595" lon="5.36376">
        <ele>199.6</ele>
        <time>2018-03-03T09:41:44Z</time>
      </trkpt>
      <trkpt lat="43.22597" lon="5.36377">
        <ele>201.4</ele>
        <time>2018-03-03T09:41:49Z</time>
      </trkpt>
      <trkpt lat="43.22598" lon="5.36377">
        <ele>201.4</ele>
        <time>2018-03-03T09:41:59Z</time>
      </trkpt>
      <trkpt lat="43.22598" lon="5.36377">
        <ele>201.2</ele>
        <time>2018-03-03T09:42:19Z</time>
      </trkpt>
      <trkpt lat="43.22599" lon="5.36377">
        <ele>202</ele>
        <time>2018-03-03T09:42:24Z</time>
      </trkpt>
      <trkpt lat="43.226" lon="5.36378">
        <ele>201.4</ele>
        <time>2018-03-03T09:42:29Z</time>
      </trkpt>
      <trkpt lat="43.226" lon="5.36378">
        <ele>201.8</ele>
        <time>2018-03-03T09:42:34Z</time>
      </trkpt>
      <trkpt lat="43.226" lon="5.3638">
        <ele>204</ele>
        <time>2018-03-03T09:42:39Z</time>
      </trkpt>
      <trkpt lat="43.22601" lon="5.36381">
        <ele>203.8</ele>
        <time>2018-03-03T09:42:44Z</time>
      </trkpt>
      <trkpt lat="43.22601" lon="5.36381">
        <ele>203.8</ele>
        <time>2018-03-03T09:43:04Z</time>
      </trkpt>
      <trkpt lat="43.22602" lon="5.36382">
        <ele>205.6</ele>
        <time>2018-03-03T09:43:09Z</time>
      </trkpt>
      <trkpt lat="43.22604" lon="5.36386">
        <ele>204.4</ele>
        <time>2018-03-03T09:43:14Z</time>
      </trkpt>
      <trkpt lat="43.22605" lon="5.3639">
        <ele>206.4</ele>
        <time>2018-03-03T09:43:19Z</time>
      </trkpt>
      <trkpt lat="43.22606" lon="5.36393">
        <ele>207</ele>
        <time>2018-03-03T09:43:59Z</time>
      </trkpt>
      <trkpt lat="43.22606" lon="5.36393">
        <ele>206.2</ele>
        <time>2018-03-03T09:44:04Z</time>
      </trkpt>
      <trkpt lat="43.22606" lon="5.36395">
        <ele>206.2</ele>
        <time>2018-03-03T09:44:09Z</time>
      </trkpt>
      <trkpt lat="43.22606" lon="5.36395">
        <ele>205.8</ele>
        <time>2018-03-03T09:44:24Z</time>
      </trkpt>
      <trkpt lat="43.22606" lon="5.36396">
        <ele>205.4</ele>
        <time>2018-03-03T09:44:34Z</time>
      </trkpt>
      <trkpt lat="43.22606" lon="5.36397">
        <ele>205</ele>
        <time>2018-03-03T09:44:44Z</time>
      </trkpt>
      <trkpt lat="43.22608" lon="5.36399">
        <ele>205</ele>
        <time>2018-03-03T09:44:49Z</time>
      </trkpt>
      <trkpt lat="43.22608" lon="5.36399">
        <ele>204.8</ele>
        <time>2018-03-03T09:44:54Z</time>
      </trkpt>
      <trkpt lat="43.22609" lon="5.364">
        <ele>203.8</ele>
        <time>2018-03-03T09:46:14Z</time>
      </trkpt>
      <trkpt lat="43.22609" lon="5.364">
        <ele>203.8</ele>
        <time>2018-03-03T09:46:19Z</time>
      </trkpt>
      <trkpt lat="43.2261" lon="5.36401">
        <ele>201.8</ele>
        <time>2018-03-03T09:46:29Z</time>
      </trkpt>
      <trkpt lat="43.22609" lon="5.36403">
        <ele>204.6</ele>
        <time>2018-03-03T09:46:34Z</time>
      </trkpt>
      <trkpt lat="43.22608" lon="5.36406">
        <ele>202.6</ele>
        <time>2018-03-03T09:46:39Z</time>
      </trkpt>
      <trkpt lat="43.22608" lon="5.36406">
        <ele>200.6</ele>
        <time>2018-03-03T09:47:09Z</time>
      </trkpt>
      <trkpt lat="43.22609" lon="5.36406">
        <ele>198.2</ele>
        <time>2018-03-03T09:47:24Z</time>
      </trkpt>
      <trkpt lat="43.2261" lon="5.36407">
        <ele>199.6</ele>
        <time>2018-03-03T09:47:29Z</time>
      </trkpt>
      <trkpt lat="43.22612" lon="5.3641">
        <ele>199.4</ele>
        <time>2018-03-03T09:47:34Z</time>
      </trkpt>
      <trkpt lat="43.22615" lon="5.3641">
        <ele>198</ele>
        <time>2018-03-03T09:47:39Z</time>
      </trkpt>
      <trkpt lat="43.22616" lon="5.3641">
        <ele>200</ele>
        <time>2018-03-03T09:48:19Z</time>
      </trkpt>
      <trkpt lat="43.22617" lon="5.36412">
        <ele>203.6</ele>
        <time>2018-03-03T09:48:24Z</time>
      </trkpt>
      <trkpt lat="43.2262" lon="5.36416">
        <ele>199.6</ele>
        <time>2018-03-03T09:48:29Z</time>
      </trkpt>
      <trkpt lat="43.22622" lon="5.36417">
        <ele>196.8</ele>
        <time>2018-03-03T09:48:34Z</time>
      </trkpt>
      <trkpt lat="43.22625" lon="5.36418">
        <ele>193.6</ele>
        <time>2018-03-03T09:48:39Z</time>
      </trkpt>
      <trkpt lat="43.22627" lon="5.3642">
        <ele>195.8</ele>
        <time>2018-03-03T09:48:59Z</time>
      </trkpt>
      <trkpt lat="43.2263" lon="5.36421">
        <ele>194.2</ele>
        <time>2018-03-03T09:49:04Z</time>
      </trkpt>
      <trkpt lat="43.22632" lon="5.3642">
        <ele>197</ele>
        <time>2018-03-03T09:49:09Z</time>
      </trkpt>
      <trkpt lat="43.22633" lon="5.3642">
        <ele>193.8</ele>
        <time>2018-03-03T09:50:04Z</time>
      </trkpt>
      <trkpt lat="43.22633" lon="5.36421">
        <ele>193.8</ele>
        <time>2018-03-03T09:50:09Z</time>
      </trkpt>
      <trkpt lat="43.22634" lon="5.36423">
        <ele>198</ele>
        <time>2018-03-03T09:50:14Z</time>
      </trkpt>
      <trkpt lat="43.22633" lon="5.36425">
        <ele>191</ele>
        <time>2018-03-03T09:51:19Z</time>
      </trkpt>
      <trkpt lat="43.22634" lon="5.36426">
        <ele>190.8</ele>
        <time>2018-03-03T09:51:24Z</time>
      </trkpt>
      <trkpt lat="43.22638" lon="5.36431">
        <ele>187.4</ele>
        <time>2018-03-03T09:52:55Z</time>
      </trkpt>
      <trkpt lat="43.22642" lon="5.36434">
        <ele>185.8</ele>
        <time>2018-03-03T09:53:15Z</time>
      </trkpt>
      <trkpt lat="43.22643" lon="5.36435">
        <ele>186</ele>
        <time>2018-03-03T09:53:20Z</time>
      </trkpt>
      <trkpt lat="43.22643" lon="5.36436">
        <ele>185.6</ele>
        <time>2018-03-03T09:53:25Z</time>
      </trkpt>
      <trkpt lat="43.22644" lon="5.36438">
        <ele>186.4</ele>
        <time>2018-03-03T09:53:30Z</time>
      </trkpt>
      <trkpt lat="43.22644" lon="5.36439">
        <ele>189.2</ele>
        <time>2018-03-03T09:53:55Z</time>
      </trkpt>
      <trkpt lat="43.22644" lon="5.36441">
        <ele>185.4</ele>
        <time>2018-03-03T09:54:00Z</time>
      </trkpt>
      <trkpt lat="43.22646" lon="5.36441">
        <ele>183.2</ele>
        <time>2018-03-03T09:54:05Z</time>
      </trkpt>
      <trkpt lat="43.22646" lon="5.36444">
        <ele>184.8</ele>
        <time>2018-03-03T09:54:10Z</time>
      </trkpt>
      <trkpt lat="43.22646" lon="5.36446">
        <ele>184</ele>
        <time>2018-03-03T09:54:15Z</time>
      </trkpt>
      <trkpt lat="43.22646" lon="5.36446">
        <ele>185.8</ele>
        <time>2018-03-03T09:54:20Z</time>
      </trkpt>
      <trkpt lat="43.22644" lon="5.36449">
        <ele>185.2</ele>
        <time>2018-03-03T09:54:40Z</time>
      </trkpt>
      <trkpt lat="43.22643" lon="5.36452">
        <ele>187</ele>
        <time>2018-03-03T09:55:20Z</time>
      </trkpt>
      <trkpt lat="43.22643" lon="5.36453">
        <ele>187.4</ele>
        <time>2018-03-03T09:55:25Z</time>
      </trkpt>
      <trkpt lat="43.22642" lon="5.36455">
        <ele>181.8</ele>
        <time>2018-03-03T09:55:50Z</time>
      </trkpt>
      <trkpt lat="43.2264" lon="5.36457">
        <ele>183.2</ele>
        <time>2018-03-03T09:55:55Z</time>
      </trkpt>
      <trkpt lat="43.22639" lon="5.36458">
        <ele>184.4</ele>
        <time>2018-03-03T09:56:00Z</time>
      </trkpt>
      <trkpt lat="43.22639" lon="5.36458">
        <ele>184</ele>
        <time>2018-03-03T09:56:05Z</time>
      </trkpt>
      <trkpt lat="43.22639" lon="5.36459">
        <ele>183.6</ele>
        <time>2018-03-03T09:56:10Z</time>
      </trkpt>
      <trkpt lat="43.22639" lon="5.36462">
        <ele>184.8</ele>
        <time>2018-03-03T09:56:15Z</time>
      </trkpt>
      <trkpt lat="43.22639" lon="5.36462">
        <ele>182.6</ele>
        <time>2018-03-03T09:56:30Z</time>
      </trkpt>
      <trkpt lat="43.2264" lon="5.36461">
        <ele>180.8</ele>
        <time>2018-03-03T09:56:35Z</time>
      </trkpt>
      <trkpt lat="43.22642" lon="5.36463">
        <ele>179.4</ele>
        <time>2018-03-03T09:56:40Z</time>
      </trkpt>
      <trkpt lat="43.22644" lon="5.36464">
        <ele>177.8</ele>
        <time>2018-03-03T09:56:45Z</time>
      </trkpt>
      <trkpt lat="43.22645" lon="5.36464">
        <ele>178</ele>
        <time>2018-03-03T09:56:50Z</time>
      </trkpt>
      <trkpt lat="43.22646" lon="5.36465">
        <ele>176.4</ele>
        <time>2018-03-03T09:56:55Z</time>
      </trkpt>
      <trkpt lat="43.22647" lon="5.36465">
        <ele>176.8</ele>
        <time>2018-03-03T09:57:00Z</time>
      </trkpt>
      <trkpt lat="43.22646" lon="5.36467">
        <ele>177.4</ele>
        <time>2018-03-03T09:57:20Z</time>
      </trkpt>
      <trkpt lat="43.22646" lon="5.36467">
        <ele>180.2</ele>
        <time>2018-03-03T09:57:25Z</time>
      </trkpt>
      <trkpt lat="43.22645" lon="5.36468">
        <ele>178.8</ele>
        <time>2018-03-03T09:57:30Z</time>
      </trkpt>
      <trkpt lat="43.22645" lon="5.36468">
        <ele>180.2</ele>
        <time>2018-03-03T09:57:40Z</time>
      </trkpt>
      <trkpt lat="43.22645" lon="5.3647">
        <ele>180.8</ele>
        <time>2018-03-03T09:57:45Z</time>
      </trkpt>
      <trkpt lat="43.22644" lon="5.36471">
        <ele>183.2</ele>
        <time>2018-03-03T09:58:00Z</time>
      </trkpt>
      <trkpt lat="43.22644" lon="5.36472">
        <ele>184.2</ele>
        <time>2018-03-03T09:58:20Z</time>
      </trkpt>
      <trkpt lat="43.22646" lon="5.36475">
        <ele>184.6</ele>
        <time>2018-03-03T09:58:25Z</time>
      </trkpt>
      <trkpt lat="43.22649" lon="5.36478">
        <ele>185.6</ele>
        <time>2018-03-03T09:58:30Z</time>
      </trkpt>
      <trkpt lat="43.22653" lon="5.36478">
        <ele>182.2</ele>
        <time>2018-03-03T09:58:35Z</time>
      </trkpt>
      <trkpt lat="43.22657" lon="5.36475">
        <ele>182.6</ele>
        <time>2018-03-03T09:58:50Z</time>
      </trkpt>
      <trkpt lat="43.22657" lon="5.36475">
        <ele>180.4</ele>
        <time>2018-03-03T09:59:06Z</time>
      </trkpt>
      <trkpt lat="43.22656" lon="5.36473">
        <ele>179.2</ele>
        <time>2018-03-03T09:59:12Z</time>
      </trkpt>
      <trkpt lat="43.22658" lon="5.36469">
        <ele>176.2</ele>
        <time>2018-03-03T09:59:57Z</time>
      </trkpt>
      <trkpt lat="43.22658" lon="5.36468">
        <ele>176</ele>
        <time>2018-03-03T10:00:02Z</time>
      </trkpt>
      <trkpt lat="43.22658" lon="5.36467">
        <ele>176.6</ele>
        <time>2018-03-03T10:00:07Z</time>
      </trkpt>
      <trkpt lat="43.22658" lon="5.36466">
        <ele>175.8</ele>
        <time>2018-03-03T10:00:27Z</time>
      </trkpt>
      <trkpt lat="43.22659" lon="5.36464">
        <ele>176.4</ele>
        <time>2018-03-03T10:00:32Z</time>
      </trkpt>
      <trkpt lat="43.22659" lon="5.36463">
        <ele>176.2</ele>
        <time>2018-03-03T10:00:37Z</time>
      </trkpt>
      <trkpt lat="43.2266" lon="5.3646">
        <ele>172</ele>
        <time>2018-03-03T10:03:18Z</time>
      </trkpt>
      <trkpt lat="43.22659" lon="5.36463">
        <ele>171.8</ele>
        <time>2018-03-03T10:04:49Z</time>
      </trkpt>
      <trkpt lat="43.22658" lon="5.36466">
        <ele>175.2</ele>
        <time>2018-03-03T10:04:54Z</time>
      </trkpt>
      <trkpt lat="43.22659" lon="5.36472">
        <ele>169.2</ele>
        <time>2018-03-03T10:06:34Z</time>
      </trkpt>
      <trkpt lat="43.22657" lon="5.36475">
        <ele>167.2</ele>
        <time>2018-03-03T10:06:39Z</time>
      </trkpt>
      <trkpt lat="43.22655" lon="5.36475">
        <ele>169</ele>
        <time>2018-03-03T10:06:44Z</time>
      </trkpt>
      <trkpt lat="43.22654" lon="5.36477">
        <ele>165.8</ele>
        <time>2018-03-03T10:06:49Z</time>
      </trkpt>
      <trkpt lat="43.22654" lon="5.36479">
        <ele>166</ele>
        <time>2018-03-03T10:06:54Z</time>
      </trkpt>
      <trkpt lat="43.22654" lon="5.3648">
        <ele>165.8</ele>
        <time>2018-03-03T10:06:59Z</time>
      </trkpt>
      <trkpt lat="43.22653" lon="5.3648">
        <ele>166.6</ele>
        <time>2018-03-03T10:07:09Z</time>
      </trkpt>
      <trkpt lat="43.22651" lon="5.36481">
        <ele>167.8</ele>
        <time>2018-03-03T10:07:14Z</time>
      </trkpt>
      <trkpt lat="43.22648" lon="5.36482">
        <ele>164.6</ele>
        <time>2018-03-03T10:07:19Z</time>
      </trkpt>
      <trkpt lat="43.22645" lon="5.36483">
        <ele>165.2</ele>
        <time>2018-03-03T10:07:24Z</time>
      </trkpt>
      <trkpt lat="43.22643" lon="5.36484">
        <ele>165.4</ele>
        <time>2018-03-03T10:07:29Z</time>
      </trkpt>
      <trkpt lat="43.22643" lon="5.36484">
        <ele>165.6</ele>
        <time>2018-03-03T10:07:34Z</time>
      </trkpt>
      <trkpt lat="43.22643" lon="5.36485">
        <ele>163.4</ele>
        <time>2018-03-03T10:07:39Z</time>
      </trkpt>
      <trkpt lat="43.22642" lon="5.36486">
        <ele>164</ele>
        <time>2018-03-03T10:07:44Z</time>
      </trkpt>
      <trkpt lat="43.22641" lon="5.36486">
        <ele>164</ele>
        <time>2018-03-03T10:07:59Z</time>
      </trkpt>
      <trkpt lat="43.22639" lon="5.36487">
        <ele>161.2</ele>
        <time>2018-03-03T10:08:04Z</time>
      </trkpt>
      <trkpt lat="43.22637" lon="5.36488">
        <ele>159.8</ele>
        <time>2018-03-03T10:08:09Z</time>
      </trkpt>
      <trkpt lat="43.22635" lon="5.36489">
        <ele>159</ele>
        <time>2018-03-03T10:08:14Z</time>
      </trkpt>
      <trkpt lat="43.22634" lon="5.36489">
        <ele>158.2</ele>
        <time>2018-03-03T10:08:19Z</time>
      </trkpt>
      <trkpt lat="43.22632" lon="5.3649">
        <ele>157.4</ele>
        <time>2018-03-03T10:08:24Z</time>
      </trkpt>
      <trkpt lat="43.22628" lon="5.36491">
        <ele>154.2</ele>
        <time>2018-03-03T10:08:34Z</time>
      </trkpt>
      <trkpt lat="43.22627" lon="5.36491">
        <ele>154.4</ele>
        <time>2018-03-03T10:08:39Z</time>
      </trkpt>
      <trkpt lat="43.22624" lon="5.36493">
        <ele>155</ele>
        <time>2018-03-03T10:08:44Z</time>
      </trkpt>
      <trkpt lat="43.22623" lon="5.36494">
        <ele>153.4</ele>
        <time>2018-03-03T10:08:49Z</time>
      </trkpt>
      <trkpt lat="43.22622" lon="5.36498">
        <ele>155</ele>
        <time>2018-03-03T10:08:54Z</time>
      </trkpt>
      <trkpt lat="43.22621" lon="5.36502">
        <ele>153</ele>
        <time>2018-03-03T10:08:59Z</time>
      </trkpt>
      <trkpt lat="43.2262" lon="5.36506">
        <ele>150.4</ele>
        <time>2018-03-03T10:09:04Z</time>
      </trkpt>
      <trkpt lat="43.22617" lon="5.36509">
        <ele>151</ele>
        <time>2018-03-03T10:09:09Z</time>
      </trkpt>
      <trkpt lat="43.22616" lon="5.36512">
        <ele>149.4</ele>
        <time>2018-03-03T10:09:14Z</time>
      </trkpt>
      <trkpt lat="43.22615" lon="5.36515">
        <ele>148.6</ele>
        <time>2018-03-03T10:09:19Z</time>
      </trkpt>
      <trkpt lat="43.22615" lon="5.36517">
        <ele>148.4</ele>
        <time>2018-03-03T10:09:24Z</time>
      </trkpt>
      <trkpt lat="43.22613" lon="5.36523">
        <ele>145.8</ele>
        <time>2018-03-03T10:09:29Z</time>
      </trkpt>
      <trkpt lat="43.22612" lon="5.36525">
        <ele>144</ele>
        <time>2018-03-03T10:09:34Z</time>
      </trkpt>
      <trkpt lat="43.22613" lon="5.36529">
        <ele>145</ele>
        <time>2018-03-03T10:09:39Z</time>
      </trkpt>
      <trkpt lat="43.22613" lon="5.36532">
        <ele>146</ele>
        <time>2018-03-03T10:09:44Z</time>
      </trkpt>
      <trkpt lat="43.22612" lon="5.36534">
        <ele>145.6</ele>
        <time>2018-03-03T10:09:49Z</time>
      </trkpt>
      <trkpt lat="43.22612" lon="5.36534">
        <ele>144.6</ele>
        <time>2018-03-03T10:09:59Z</time>
      </trkpt>
      <trkpt lat="43.22612" lon="5.36536">
        <ele>143.6</ele>
        <time>2018-03-03T10:10:04Z</time>
      </trkpt>
      <trkpt lat="43.22612" lon="5.36539">
        <ele>143.6</ele>
        <time>2018-03-03T10:10:09Z</time>
      </trkpt>
      <trkpt lat="43.2261" lon="5.36541">
        <ele>142</ele>
        <time>2018-03-03T10:10:34Z</time>
      </trkpt>
      <trkpt lat="43.22609" lon="5.36541">
        <ele>143.4</ele>
        <time>2018-03-03T10:10:39Z</time>
      </trkpt>
      <trkpt lat="43.22608" lon="5.3654">
        <ele>145</ele>
        <time>2018-03-03T10:10:44Z</time>
      </trkpt>
      <trkpt lat="43.22606" lon="5.36539">
        <ele>146.8</ele>
        <time>2018-03-03T10:10:54Z</time>
      </trkpt>
      <trkpt lat="43.22604" lon="5.3654">
        <ele>144.4</ele>
        <time>2018-03-03T10:10:59Z</time>
      </trkpt>
      <trkpt lat="43.22601" lon="5.36542">
        <ele>148.6</ele>
        <time>2018-03-03T10:11:04Z</time>
      </trkpt>
      <trkpt lat="43.22598" lon="5.36546">
        <ele>147.4</ele>
        <time>2018-03-03T10:11:09Z</time>
      </trkpt>
      <trkpt lat="43.22596" lon="5.3655">
        <ele>146</ele>
        <time>2018-03-03T10:11:14Z</time>
      </trkpt>
      <trkpt lat="43.22593" lon="5.36553">
        <ele>147.4</ele>
        <time>2018-03-03T10:11:19Z</time>
      </trkpt>
      <trkpt lat="43.22592" lon="5.36556">
        <ele>146.4</ele>
        <time>2018-03-03T10:11:24Z</time>
      </trkpt>
      <trkpt lat="43.22591" lon="5.36558">
        <ele>143.2</ele>
        <time>2018-03-03T10:11:29Z</time>
      </trkpt>
      <trkpt lat="43.22591" lon="5.3656">
        <ele>146.4</ele>
        <time>2018-03-03T10:11:34Z</time>
      </trkpt>
      <trkpt lat="43.2259" lon="5.36561">
        <ele>146.4</ele>
        <time>2018-03-03T10:11:39Z</time>
      </trkpt>
      <trkpt lat="43.2259" lon="5.36563">
        <ele>146.8</ele>
        <time>2018-03-03T10:11:44Z</time>
      </trkpt>
      <trkpt lat="43.22588" lon="5.36564">
        <ele>146</ele>
        <time>2018-03-03T10:11:49Z</time>
      </trkpt>
      <trkpt lat="43.22586" lon="5.36566">
        <ele>146.6</ele>
        <time>2018-03-03T10:11:54Z</time>
      </trkpt>
      <trkpt lat="43.22585" lon="5.36568">
        <ele>146.2</ele>
        <time>2018-03-03T10:11:59Z</time>
      </trkpt>
      <trkpt lat="43.22585" lon="5.36573">
        <ele>145.4</ele>
        <time>2018-03-03T10:12:04Z</time>
      </trkpt>
      <trkpt lat="43.22585" lon="5.36577">
        <ele>143.8</ele>
        <time>2018-03-03T10:12:09Z</time>
      </trkpt>
      <trkpt lat="43.22584" lon="5.3658">
        <ele>147.8</ele>
        <time>2018-03-03T10:12:14Z</time>
      </trkpt>
      <trkpt lat="43.22583" lon="5.36583">
        <ele>146.4</ele>
        <time>2018-03-03T10:12:19Z</time>
      </trkpt>
      <trkpt lat="43.22583" lon="5.36584">
        <ele>147.8</ele>
        <time>2018-03-03T10:12:24Z</time>
      </trkpt>
      <trkpt lat="43.22583" lon="5.36587">
        <ele>150</ele>
        <time>2018-03-03T10:12:29Z</time>
      </trkpt>
      <trkpt lat="43.22581" lon="5.3659">
        <ele>152.8</ele>
        <time>2018-03-03T10:12:34Z</time>
      </trkpt>
      <trkpt lat="43.22579" lon="5.36594">
        <ele>149.8</ele>
        <time>2018-03-03T10:12:39Z</time>
      </trkpt>
      <trkpt lat="43.22577" lon="5.36598">
        <ele>148.8</ele>
        <time>2018-03-03T10:12:44Z</time>
      </trkpt>
      <trkpt lat="43.22574" lon="5.36602">
        <ele>150</ele>
        <time>2018-03-03T10:12:49Z</time>
      </trkpt>
      <trkpt lat="43.22571" lon="5.36602">
        <ele>149</ele>
        <time>2018-03-03T10:12:54Z</time>
      </trkpt>
      <trkpt lat="43.2257" lon="5.36601">
        <ele>153.4</ele>
        <time>2018-03-03T10:12:59Z</time>
      </trkpt>
      <trkpt lat="43.2257" lon="5.36602">
        <ele>151.6</ele>
        <time>2018-03-03T10:13:05Z</time>
      </trkpt>
      <trkpt lat="43.22568" lon="5.36601">
        <ele>153.6</ele>
        <time>2018-03-03T10:13:10Z</time>
      </trkpt>
      <trkpt lat="43.22566" lon="5.366">
        <ele>154.4</ele>
        <time>2018-03-03T10:13:15Z</time>
      </trkpt>
      <trkpt lat="43.22563" lon="5.36601">
        <ele>155.8</ele>
        <time>2018-03-03T10:13:20Z</time>
      </trkpt>
      <trkpt lat="43.22559" lon="5.36602">
        <ele>152.4</ele>
        <time>2018-03-03T10:13:25Z</time>
      </trkpt>
      <trkpt lat="43.22555" lon="5.36604">
        <ele>158.4</ele>
        <time>2018-03-03T10:13:30Z</time>
      </trkpt>
      <trkpt lat="43.22552" lon="5.36606">
        <ele>158.2</ele>
        <time>2018-03-03T10:13:35Z</time>
      </trkpt>
      <trkpt lat="43.2255" lon="5.36608">
        <ele>156.6</ele>
        <time>2018-03-03T10:13:40Z</time>
      </trkpt>
      <trkpt lat="43.22547" lon="5.3661">
        <ele>156.4</ele>
        <time>2018-03-03T10:13:45Z</time>
      </trkpt>
      <trkpt lat="43.22546" lon="5.3661">
        <ele>158.2</ele>
        <time>2018-03-03T10:13:50Z</time>
      </trkpt>
      <trkpt lat="43.22545" lon="5.36611">
        <ele>161.2</ele>
        <time>2018-03-03T10:13:55Z</time>
      </trkpt>
      <trkpt lat="43.22544" lon="5.36611">
        <ele>160.8</ele>
        <time>2018-03-03T10:14:00Z</time>
      </trkpt>
      <trkpt lat="43.22543" lon="5.36612">
        <ele>160.8</ele>
        <time>2018-03-03T10:14:05Z</time>
      </trkpt>
      <trkpt lat="43.22542" lon="5.36613">
        <ele>160.8</ele>
        <time>2018-03-03T10:14:10Z</time>
      </trkpt>
      <trkpt lat="43.22541" lon="5.36612">
        <ele>161.8</ele>
        <time>2018-03-03T10:14:20Z</time>
      </trkpt>
      <trkpt lat="43.22541" lon="5.36612">
        <ele>161.4</ele>
        <time>2018-03-03T10:14:25Z</time>
      </trkpt>
      <trkpt lat="43.2254" lon="5.36611">
        <ele>161.8</ele>
        <time>2018-03-03T10:14:30Z</time>
      </trkpt>
      <trkpt lat="43.22538" lon="5.36611">
        <ele>162.6</ele>
        <time>2018-03-03T10:14:35Z</time>
      </trkpt>
      <trkpt lat="43.22537" lon="5.36612">
        <ele>164</ele>
        <time>2018-03-03T10:14:40Z</time>
      </trkpt>
      <trkpt lat="43.22536" lon="5.36612">
        <ele>164.2</ele>
        <time>2018-03-03T10:14:45Z</time>
      </trkpt>
      <trkpt lat="43.22535" lon="5.36612">
        <ele>164.4</ele>
        <time>2018-03-03T10:14:50Z</time>
      </trkpt>
      <trkpt lat="43.22535" lon="5.36612">
        <ele>164.4</ele>
        <time>2018-03-03T10:14:55Z</time>
      </trkpt>
      <trkpt lat="43.22534" lon="5.36613">
        <ele>167.2</ele>
        <time>2018-03-03T10:15:00Z</time>
      </trkpt>
      <trkpt lat="43.22535" lon="5.36614">
        <ele>165.2</ele>
        <time>2018-03-03T10:15:25Z</time>
      </trkpt>
      <trkpt lat="43.22534" lon="5.36616">
        <ele>166.2</ele>
        <time>2018-03-03T10:15:30Z</time>
      </trkpt>
      <trkpt lat="43.22533" lon="5.36617">
        <ele>166.4</ele>
        <time>2018-03-03T10:15:35Z</time>
      </trkpt>
      <trkpt lat="43.22532" lon="5.3662">
        <ele>166.2</ele>
        <time>2018-03-03T10:15:40Z</time>
      </trkpt>
      <trkpt lat="43.22531" lon="5.3662">
        <ele>168.2</ele>
        <time>2018-03-03T10:15:45Z</time>
      </trkpt>
      <trkpt lat="43.22531" lon="5.3662">
        <ele>167</ele>
        <time>2018-03-03T10:15:50Z</time>
      </trkpt>
      <trkpt lat="43.2253" lon="5.36621">
        <ele>166.6</ele>
        <time>2018-03-03T10:15:55Z</time>
      </trkpt>
      <trkpt lat="43.22528" lon="5.36621">
        <ele>168.2</ele>
        <time>2018-03-03T10:16:00Z</time>
      </trkpt>
      <trkpt lat="43.22527" lon="5.3662">
        <ele>170</ele>
        <time>2018-03-03T10:16:05Z</time>
      </trkpt>
      <trkpt lat="43.22525" lon="5.36619">
        <ele>172</ele>
        <time>2018-03-03T10:16:10Z</time>
      </trkpt>
      <trkpt lat="43.22523" lon="5.3662">
        <ele>173.6</ele>
        <time>2018-03-03T10:16:15Z</time>
      </trkpt>
      <trkpt lat="43.22522" lon="5.36621">
        <ele>173.6</ele>
        <time>2018-03-03T10:16:20Z</time>
      </trkpt>
      <trkpt lat="43.22521" lon="5.36621">
        <ele>172.8</ele>
        <time>2018-03-03T10:16:25Z</time>
      </trkpt>
      <trkpt lat="43.2252" lon="5.36621">
        <ele>172.8</ele>
        <time>2018-03-03T10:16:30Z</time>
      </trkpt>
      <trkpt lat="43.22518" lon="5.36621">
        <ele>174.4</ele>
        <time>2018-03-03T10:16:35Z</time>
      </trkpt>
      <trkpt lat="43.22516" lon="5.36621">
        <ele>178</ele>
        <time>2018-03-03T10:16:40Z</time>
      </trkpt>
      <trkpt lat="43.22513" lon="5.36622">
        <ele>179</ele>
        <time>2018-03-03T10:16:45Z</time>
      </trkpt>
      <trkpt lat="43.22511" lon="5.36624">
        <ele>184.6</ele>
        <time>2018-03-03T10:16:50Z</time>
      </trkpt>
      <trkpt lat="43.2251" lon="5.36623">
        <ele>184.6</ele>
        <time>2018-03-03T10:17:00Z</time>
      </trkpt>
      <trkpt lat="43.22509" lon="5.36622">
        <ele>185</ele>
        <time>2018-03-03T10:17:05Z</time>
      </trkpt>
      <trkpt lat="43.22506" lon="5.36622">
        <ele>182.2</ele>
        <time>2018-03-03T10:17:10Z</time>
      </trkpt>
      <trkpt lat="43.22503" lon="5.36623">
        <ele>184.6</ele>
        <time>2018-03-03T10:17:15Z</time>
      </trkpt>
      <trkpt lat="43.225" lon="5.36623">
        <ele>186.2</ele>
        <time>2018-03-03T10:17:20Z</time>
      </trkpt>
      <trkpt lat="43.22498" lon="5.36622">
        <ele>184.8</ele>
        <time>2018-03-03T10:17:25Z</time>
      </trkpt>
      <trkpt lat="43.22496" lon="5.36622">
        <ele>184.8</ele>
        <time>2018-03-03T10:17:30Z</time>
      </trkpt>
      <trkpt lat="43.22494" lon="5.36622">
        <ele>185.6</ele>
        <time>2018-03-03T10:17:35Z</time>
      </trkpt>
      <trkpt lat="43.22494" lon="5.36623">
        <ele>186</ele>
        <time>2018-03-03T10:17:50Z</time>
      </trkpt>
      <trkpt lat="43.22492" lon="5.36623">
        <ele>186.6</ele>
        <time>2018-03-03T10:17:55Z</time>
      </trkpt>
      <trkpt lat="43.2249" lon="5.36621">
        <ele>184.6</ele>
        <time>2018-03-03T10:18:00Z</time>
      </trkpt>
      <trkpt lat="43.22489" lon="5.36619">
        <ele>186.2</ele>
        <time>2018-03-03T10:18:05Z</time>
      </trkpt>
      <trkpt lat="43.22488" lon="5.36618">
        <ele>187</ele>
        <time>2018-03-03T10:18:10Z</time>
      </trkpt>
      <trkpt lat="43.22487" lon="5.36617">
        <ele>189</ele>
        <time>2018-03-03T10:18:20Z</time>
      </trkpt>
      <trkpt lat="43.22488" lon="5.36613">
        <ele>189</ele>
        <time>2018-03-03T10:18:45Z</time>
      </trkpt>
      <trkpt lat="43.22488" lon="5.36612">
        <ele>189</ele>
        <time>2018-03-03T10:18:51Z</time>
      </trkpt>
      <trkpt lat="43.22488" lon="5.36612">
        <ele>189.2</ele>
        <time>2018-03-03T10:18:56Z</time>
      </trkpt>
      <trkpt lat="43.22487" lon="5.3661">
        <ele>189.2</ele>
        <time>2018-03-03T10:19:01Z</time>
      </trkpt>
      <trkpt lat="43.22485" lon="5.36609">
        <ele>191.2</ele>
        <time>2018-03-03T10:19:06Z</time>
      </trkpt>
      <trkpt lat="43.22485" lon="5.36608">
        <ele>192.6</ele>
        <time>2018-03-03T10:19:11Z</time>
      </trkpt>
      <trkpt lat="43.22484" lon="5.36608">
        <ele>193.6</ele>
        <time>2018-03-03T10:19:26Z</time>
      </trkpt>
      <trkpt lat="43.22483" lon="5.36608">
        <ele>194.4</ele>
        <time>2018-03-03T10:19:46Z</time>
      </trkpt>
      <trkpt lat="43.22482" lon="5.36608">
        <ele>195.8</ele>
        <time>2018-03-03T10:20:06Z</time>
      </trkpt>
      <trkpt lat="43.22482" lon="5.36607">
        <ele>194.8</ele>
        <time>2018-03-03T10:20:11Z</time>
      </trkpt>
      <trkpt lat="43.22481" lon="5.36604">
        <ele>195.2</ele>
        <time>2018-03-03T10:20:16Z</time>
      </trkpt>
      <trkpt lat="43.22478" lon="5.36604">
        <ele>196</ele>
        <time>2018-03-03T10:20:21Z</time>
      </trkpt>
      <trkpt lat="43.22477" lon="5.36604">
        <ele>195.6</ele>
        <time>2018-03-03T10:20:26Z</time>
      </trkpt>
      <trkpt lat="43.22477" lon="5.36604">
        <ele>193.8</ele>
        <time>2018-03-03T10:20:31Z</time>
      </trkpt>
      <trkpt lat="43.22475" lon="5.36605">
        <ele>197.2</ele>
        <time>2018-03-03T10:20:36Z</time>
      </trkpt>
      <trkpt lat="43.22473" lon="5.36602">
        <ele>200.4</ele>
        <time>2018-03-03T10:20:46Z</time>
      </trkpt>
      <trkpt lat="43.22472" lon="5.36601">
        <ele>201</ele>
        <time>2018-03-03T10:20:51Z</time>
      </trkpt>
      <trkpt lat="43.22469" lon="5.36601">
        <ele>202.8</ele>
        <time>2018-03-03T10:20:56Z</time>
      </trkpt>
      <trkpt lat="43.22466" lon="5.36603">
        <ele>201.6</ele>
        <time>2018-03-03T10:21:01Z</time>
      </trkpt>
      <trkpt lat="43.22463" lon="5.36603">
        <ele>201.6</ele>
        <time>2018-03-03T10:21:06Z</time>
      </trkpt>
      <trkpt lat="43.22461" lon="5.36603">
        <ele>200.8</ele>
        <time>2018-03-03T10:21:11Z</time>
      </trkpt>
      <trkpt lat="43.22459" lon="5.366">
        <ele>200.2</ele>
        <time>2018-03-03T10:21:16Z</time>
      </trkpt>
      <trkpt lat="43.22458" lon="5.36599">
        <ele>201.2</ele>
        <time>2018-03-03T10:21:21Z</time>
      </trkpt>
      <trkpt lat="43.22455" lon="5.366">
        <ele>199.8</ele>
        <time>2018-03-03T10:21:26Z</time>
      </trkpt>
      <trkpt lat="43.22454" lon="5.36599">
        <ele>199.6</ele>
        <time>2018-03-03T10:21:31Z</time>
      </trkpt>
      <trkpt lat="43.22454" lon="5.36597">
        <ele>198.6</ele>
        <time>2018-03-03T10:21:36Z</time>
      </trkpt>
      <trkpt lat="43.22454" lon="5.36595">
        <ele>198</ele>
        <time>2018-03-03T10:21:41Z</time>
      </trkpt>
      <trkpt lat="43.22454" lon="5.36595">
        <ele>197.4</ele>
        <time>2018-03-03T10:21:51Z</time>
      </trkpt>
      <trkpt lat="43.22454" lon="5.36594">
        <ele>199.2</ele>
        <time>2018-03-03T10:21:56Z</time>
      </trkpt>
      <trkpt lat="43.22453" lon="5.36592">
        <ele>199.6</ele>
        <time>2018-03-03T10:22:01Z</time>
      </trkpt>
      <trkpt lat="43.22451" lon="5.36591">
        <ele>201.4</ele>
        <time>2018-03-03T10:22:06Z</time>
      </trkpt>
      <trkpt lat="43.22448" lon="5.3659">
        <ele>200</ele>
        <time>2018-03-03T10:22:11Z</time>
      </trkpt>
      <trkpt lat="43.22447" lon="5.36588">
        <ele>203.8</ele>
        <time>2018-03-03T10:22:16Z</time>
      </trkpt>
      <trkpt lat="43.22446" lon="5.36588">
        <ele>201.4</ele>
        <time>2018-03-03T10:22:21Z</time>
      </trkpt>
      <trkpt lat="43.22444" lon="5.36587">
        <ele>203.6</ele>
        <time>2018-03-03T10:22:26Z</time>
      </trkpt>
      <trkpt lat="43.22442" lon="5.36587">
        <ele>204.2</ele>
        <time>2018-03-03T10:22:31Z</time>
      </trkpt>
      <trkpt lat="43.22438" lon="5.36586">
        <ele>205</ele>
        <time>2018-03-03T10:22:36Z</time>
      </trkpt>
      <trkpt lat="43.22435" lon="5.36586">
        <ele>205.6</ele>
        <time>2018-03-03T10:22:41Z</time>
      </trkpt>
      <trkpt lat="43.22429" lon="5.36585">
        <ele>205.2</ele>
        <time>2018-03-03T10:22:46Z</time>
      </trkpt>
      <trkpt lat="43.22425" lon="5.36586">
        <ele>204.6</ele>
        <time>2018-03-03T10:22:51Z</time>
      </trkpt>
      <trkpt lat="43.2242" lon="5.36589">
        <ele>203</ele>
        <time>2018-03-03T10:22:56Z</time>
      </trkpt>
      <trkpt lat="43.22416" lon="5.36587">
        <ele>206.2</ele>
        <time>2018-03-03T10:23:01Z</time>
      </trkpt>
      <trkpt lat="43.22413" lon="5.36586">
        <ele>205.6</ele>
        <time>2018-03-03T10:23:06Z</time>
      </trkpt>
      <trkpt lat="43.2241" lon="5.36586">
        <ele>206.2</ele>
        <time>2018-03-03T10:23:11Z</time>
      </trkpt>
      <trkpt lat="43.22405" lon="5.36585">
        <ele>208.8</ele>
        <time>2018-03-03T10:23:16Z</time>
      </trkpt>
      <trkpt lat="43.22403" lon="5.36584">
        <ele>209</ele>
        <time>2018-03-03T10:23:21Z</time>
      </trkpt>
      <trkpt lat="43.22401" lon="5.36584">
        <ele>209.6</ele>
        <time>2018-03-03T10:23:26Z</time>
      </trkpt>
      <trkpt lat="43.22399" lon="5.36586">
        <ele>208.8</ele>
        <time>2018-03-03T10:23:31Z</time>
      </trkpt>
      <trkpt lat="43.22398" lon="5.36586">
        <ele>209.6</ele>
        <time>2018-03-03T10:24:31Z</time>
      </trkpt>
      <trkpt lat="43.22397" lon="5.36586">
        <ele>207.6</ele>
        <time>2018-03-03T10:24:41Z</time>
      </trkpt>
      <trkpt lat="43.22396" lon="5.36584">
        <ele>207.2</ele>
        <time>2018-03-03T10:24:46Z</time>
      </trkpt>
      <trkpt lat="43.22393" lon="5.36585">
        <ele>207.8</ele>
        <time>2018-03-03T10:24:51Z</time>
      </trkpt>
      <trkpt lat="43.22388" lon="5.36585">
        <ele>203.4</ele>
        <time>2018-03-03T10:24:56Z</time>
      </trkpt>
      <trkpt lat="43.22388" lon="5.36585">
        <ele>210.6</ele>
        <time>2018-03-03T10:25:16Z</time>
      </trkpt>
      <trkpt lat="43.22387" lon="5.36585">
        <ele>212.2</ele>
        <time>2018-03-03T10:25:21Z</time>
      </trkpt>
      <trkpt lat="43.22386" lon="5.36587">
        <ele>211.6</ele>
        <time>2018-03-03T10:25:26Z</time>
      </trkpt>
      <trkpt lat="43.22382" lon="5.36586">
        <ele>217.2</ele>
        <time>2018-03-03T10:25:31Z</time>
      </trkpt>
      <trkpt lat="43.22378" lon="5.36586">
        <ele>214.8</ele>
        <time>2018-03-03T10:25:36Z</time>
      </trkpt>
      <trkpt lat="43.22371" lon="5.36586">
        <ele>213.4</ele>
        <time>2018-03-03T10:25:41Z</time>
      </trkpt>
      <trkpt lat="43.22369" lon="5.36588">
        <ele>215</ele>
        <time>2018-03-03T10:25:46Z</time>
      </trkpt>
      <trkpt lat="43.22361" lon="5.36593">
        <ele>215</ele>
        <time>2018-03-03T10:25:51Z</time>
      </trkpt>
      <trkpt lat="43.22356" lon="5.36592">
        <ele>217.2</ele>
        <time>2018-03-03T10:25:56Z</time>
      </trkpt>
      <trkpt lat="43.22355" lon="5.36597">
        <ele>217.6</ele>
        <time>2018-03-03T10:26:01Z</time>
      </trkpt>
      <trkpt lat="43.22354" lon="5.36602">
        <ele>217.6</ele>
        <time>2018-03-03T10:26:06Z</time>
      </trkpt>
      <trkpt lat="43.22353" lon="5.36605">
        <ele>214.6</ele>
        <time>2018-03-03T10:26:11Z</time>
      </trkpt>
      <trkpt lat="43.2235" lon="5.36607">
        <ele>217.8</ele>
        <time>2018-03-03T10:26:16Z</time>
      </trkpt>
      <trkpt lat="43.22348" lon="5.3661">
        <ele>217</ele>
        <time>2018-03-03T10:26:21Z</time>
      </trkpt>
      <trkpt lat="43.22346" lon="5.36609">
        <ele>218</ele>
        <time>2018-03-03T10:26:26Z</time>
      </trkpt>
      <trkpt lat="43.22345" lon="5.3661">
        <ele>217.8</ele>
        <time>2018-03-03T10:26:31Z</time>
      </trkpt>
      <trkpt lat="43.22345" lon="5.3661">
        <ele>217.8</ele>
        <time>2018-03-03T10:26:36Z</time>
      </trkpt>
      <trkpt lat="43.22343" lon="5.36611">
        <ele>219.6</ele>
        <time>2018-03-03T10:26:46Z</time>
      </trkpt>
      <trkpt lat="43.22344" lon="5.36613">
        <ele>223</ele>
        <time>2018-03-03T10:26:51Z</time>
      </trkpt>
      <trkpt lat="43.22344" lon="5.36615">
        <ele>224.6</ele>
        <time>2018-03-03T10:26:56Z</time>
      </trkpt>
      <trkpt lat="43.22344" lon="5.36617">
        <ele>225.6</ele>
        <time>2018-03-03T10:27:01Z</time>
      </trkpt>
      <trkpt lat="43.22344" lon="5.36619">
        <ele>227.2</ele>
        <time>2018-03-03T10:27:06Z</time>
      </trkpt>
      <trkpt lat="43.22344" lon="5.3662">
        <ele>232.4</ele>
        <time>2018-03-03T10:27:36Z</time>
      </trkpt>
      <trkpt lat="43.22343" lon="5.36622">
        <ele>232.8</ele>
        <time>2018-03-03T10:27:41Z</time>
      </trkpt>
      <trkpt lat="43.22342" lon="5.36623">
        <ele>233.2</ele>
        <time>2018-03-03T10:27:46Z</time>
      </trkpt>
      <trkpt lat="43.22341" lon="5.36623">
        <ele>240</ele>
        <time>2018-03-03T10:28:36Z</time>
      </trkpt>
      <trkpt lat="43.2234" lon="5.36622">
        <ele>240.4</ele>
        <time>2018-03-03T10:28:46Z</time>
      </trkpt>
      <trkpt lat="43.22339" lon="5.36621">
        <ele>240.4</ele>
        <time>2018-03-03T10:29:16Z</time>
      </trkpt>
      <trkpt lat="43.22339" lon="5.36621">
        <ele>240.2</ele>
        <time>2018-03-03T10:29:26Z</time>
      </trkpt>
      <trkpt lat="43.22336" lon="5.36618">
        <ele>238.8</ele>
        <time>2018-03-03T10:29:41Z</time>
      </trkpt>
      <trkpt lat="43.22333" lon="5.3662">
        <ele>235.8</ele>
        <time>2018-03-03T10:29:51Z</time>
      </trkpt>
      <trkpt lat="43.22332" lon="5.36623">
        <ele>234.4</ele>
        <time>2018-03-03T10:29:56Z</time>
      </trkpt>
      <trkpt lat="43.22332" lon="5.36624">
        <ele>233.8</ele>
        <time>2018-03-03T10:30:01Z</time>
      </trkpt>
      <trkpt lat="43.22331" lon="5.36625">
        <ele>232</ele>
        <time>2018-03-03T10:30:06Z</time>
      </trkpt>
      <trkpt lat="43.2233" lon="5.36631">
        <ele>234.4</ele>
        <time>2018-03-03T10:30:11Z</time>
      </trkpt>
      <trkpt lat="43.22331" lon="5.36636">
        <ele>233.4</ele>
        <time>2018-03-03T10:30:16Z</time>
      </trkpt>
      <trkpt lat="43.22333" lon="5.36641">
        <ele>237.2</ele>
        <time>2018-03-03T10:30:21Z</time>
      </trkpt>
      <trkpt lat="43.22333" lon="5.36645">
        <ele>235</ele>
        <time>2018-03-03T10:30:26Z</time>
      </trkpt>
      <trkpt lat="43.22335" lon="5.36648">
        <ele>233.8</ele>
        <time>2018-03-03T10:30:31Z</time>
      </trkpt>
      <trkpt lat="43.22334" lon="5.36654">
        <ele>234.2</ele>
        <time>2018-03-03T10:30:41Z</time>
      </trkpt>
      <trkpt lat="43.22322" lon="5.36663">
        <ele>231.6</ele>
        <time>2018-03-03T10:30:56Z</time>
      </trkpt>
      <trkpt lat="43.22321" lon="5.36664">
        <ele>229.6</ele>
        <time>2018-03-03T10:31:16Z</time>
      </trkpt>
      <trkpt lat="43.2232" lon="5.36664">
        <ele>227.8</ele>
        <time>2018-03-03T10:31:21Z</time>
      </trkpt>
      <trkpt lat="43.22319" lon="5.36665">
        <ele>228.4</ele>
        <time>2018-03-03T10:31:36Z</time>
      </trkpt>
      <trkpt lat="43.22319" lon="5.36664">
        <ele>228.4</ele>
        <time>2018-03-03T10:31:41Z</time>
      </trkpt>
      <trkpt lat="43.22318" lon="5.36662">
        <ele>227.2</ele>
        <time>2018-03-03T10:32:01Z</time>
      </trkpt>
      <trkpt lat="43.22316" lon="5.36661">
        <ele>226.6</ele>
        <time>2018-03-03T10:32:11Z</time>
      </trkpt>
      <trkpt lat="43.22315" lon="5.3666">
        <ele>228.6</ele>
        <time>2018-03-03T10:32:16Z</time>
      </trkpt>
      <trkpt lat="43.22315" lon="5.3666">
        <ele>229</ele>
        <time>2018-03-03T10:32:31Z</time>
      </trkpt>
      <trkpt lat="43.22313" lon="5.36659">
        <ele>229.6</ele>
        <time>2018-03-03T10:32:36Z</time>
      </trkpt>
      <trkpt lat="43.22312" lon="5.36658">
        <ele>226</ele>
        <time>2018-03-03T10:33:11Z</time>
      </trkpt>
      <trkpt lat="43.22307" lon="5.36659">
        <ele>240.4</ele>
        <time>2018-03-03T10:34:06Z</time>
      </trkpt>
      <trkpt lat="43.22306" lon="5.3666">
        <ele>239</ele>
        <time>2018-03-03T10:34:16Z</time>
      </trkpt>
      <trkpt lat="43.22304" lon="5.36659">
        <ele>236.8</ele>
        <time>2018-03-03T10:34:31Z</time>
      </trkpt>
      <trkpt lat="43.22301" lon="5.36659">
        <ele>241.8</ele>
        <time>2018-03-03T10:34:36Z</time>
      </trkpt>
      <trkpt lat="43.223" lon="5.36658">
        <ele>240.4</ele>
        <time>2018-03-03T10:34:41Z</time>
      </trkpt>
      <trkpt lat="43.22299" lon="5.36658">
        <ele>240.4</ele>
        <time>2018-03-03T10:34:51Z</time>
      </trkpt>
      <trkpt lat="43.22299" lon="5.36656">
        <ele>243</ele>
        <time>2018-03-03T10:34:56Z</time>
      </trkpt>
      <trkpt lat="43.223" lon="5.36652">
        <ele>245.2</ele>
        <time>2018-03-03T10:35:06Z</time>
      </trkpt>
      <trkpt lat="43.22301" lon="5.36649">
        <ele>244.4</ele>
        <time>2018-03-03T10:35:11Z</time>
      </trkpt>
      <trkpt lat="43.22301" lon="5.36648">
        <ele>243.8</ele>
        <time>2018-03-03T10:35:16Z</time>
      </trkpt>
      <trkpt lat="43.22298" lon="5.36647">
        <ele>243.6</ele>
        <time>2018-03-03T10:35:21Z</time>
      </trkpt>
      <trkpt lat="43.22298" lon="5.36647">
        <ele>244</ele>
        <time>2018-03-03T10:35:26Z</time>
      </trkpt>
      <trkpt lat="43.22295" lon="5.36646">
        <ele>243.2</ele>
        <time>2018-03-03T10:35:31Z</time>
      </trkpt>
      <trkpt lat="43.22294" lon="5.36645">
        <ele>244.8</ele>
        <time>2018-03-03T10:35:36Z</time>
      </trkpt>
      <trkpt lat="43.22294" lon="5.36643">
        <ele>247.8</ele>
        <time>2018-03-03T10:35:41Z</time>
      </trkpt>
      <trkpt lat="43.22293" lon="5.36642">
        <ele>245.2</ele>
        <time>2018-03-03T10:35:46Z</time>
      </trkpt>
      <trkpt lat="43.22295" lon="5.3664">
        <ele>246.2</ele>
        <time>2018-03-03T10:35:51Z</time>
      </trkpt>
      <trkpt lat="43.22295" lon="5.36639">
        <ele>250</ele>
        <time>2018-03-03T10:36:51Z</time>
      </trkpt>
      <trkpt lat="43.22296" lon="5.36639">
        <ele>250.2</ele>
        <time>2018-03-03T10:37:16Z</time>
      </trkpt>
      <trkpt lat="43.22293" lon="5.36626">
        <ele>253.6</ele>
        <time>2018-03-03T10:37:41Z</time>
      </trkpt>
      <trkpt lat="43.22291" lon="5.36626">
        <ele>258.6</ele>
        <time>2018-03-03T10:37:46Z</time>
      </trkpt>
      <trkpt lat="43.22288" lon="5.36624">
        <ele>258.6</ele>
        <time>2018-03-03T10:37:51Z</time>
      </trkpt>
      <trkpt lat="43.22287" lon="5.36621">
        <ele>257.8</ele>
        <time>2018-03-03T10:37:56Z</time>
      </trkpt>
      <trkpt lat="43.22285" lon="5.36618">
        <ele>259.6</ele>
        <time>2018-03-03T10:38:01Z</time>
      </trkpt>
      <trkpt lat="43.22284" lon="5.36616">
        <ele>263</ele>
        <time>2018-03-03T10:38:06Z</time>
      </trkpt>
      <trkpt lat="43.22282" lon="5.36614">
        <ele>263.2</ele>
        <time>2018-03-03T10:38:11Z</time>
      </trkpt>
      <trkpt lat="43.22281" lon="5.36612">
        <ele>266.4</ele>
        <time>2018-03-03T10:38:16Z</time>
      </trkpt>
      <trkpt lat="43.22278" lon="5.36612">
        <ele>270.6</ele>
        <time>2018-03-03T10:38:21Z</time>
      </trkpt>
      <trkpt lat="43.22276" lon="5.3661">
        <ele>265.8</ele>
        <time>2018-03-03T10:38:31Z</time>
      </trkpt>
      <trkpt lat="43.22275" lon="5.36607">
        <ele>269.6</ele>
        <time>2018-03-03T10:38:41Z</time>
      </trkpt>
      <trkpt lat="43.22271" lon="5.36607">
        <ele>277.2</ele>
        <time>2018-03-03T10:38:51Z</time>
      </trkpt>
      <trkpt lat="43.22271" lon="5.36607">
        <ele>277.8</ele>
        <time>2018-03-03T10:38:56Z</time>
      </trkpt>
      <trkpt lat="43.2227" lon="5.36604">
        <ele>278.6</ele>
        <time>2018-03-03T10:39:01Z</time>
      </trkpt>
      <trkpt lat="43.2227" lon="5.36603">
        <ele>278</ele>
        <time>2018-03-03T10:39:06Z</time>
      </trkpt>
      <trkpt lat="43.22271" lon="5.36601">
        <ele>276.8</ele>
        <time>2018-03-03T10:39:16Z</time>
      </trkpt>
      <trkpt lat="43.22271" lon="5.36599">
        <ele>277.6</ele>
        <time>2018-03-03T10:39:21Z</time>
      </trkpt>
      <trkpt lat="43.2227" lon="5.36597">
        <ele>276</ele>
        <time>2018-03-03T10:39:26Z</time>
      </trkpt>
      <trkpt lat="43.22269" lon="5.36596">
        <ele>274.8</ele>
        <time>2018-03-03T10:39:31Z</time>
      </trkpt>
      <trkpt lat="43.22268" lon="5.36596">
        <ele>274.6</ele>
        <time>2018-03-03T10:39:36Z</time>
      </trkpt>
      <trkpt lat="43.22267" lon="5.36595">
        <ele>278</ele>
        <time>2018-03-03T10:39:57Z</time>
      </trkpt>
      <trkpt lat="43.22266" lon="5.36593">
        <ele>283</ele>
        <time>2018-03-03T10:40:02Z</time>
      </trkpt>
      <trkpt lat="43.22266" lon="5.36592">
        <ele>279.4</ele>
        <time>2018-03-03T10:40:17Z</time>
      </trkpt>
      <trkpt lat="43.22266" lon="5.36592">
        <ele>281.2</ele>
        <time>2018-03-03T10:40:22Z</time>
      </trkpt>
      <trkpt lat="43.22263" lon="5.36594">
        <ele>277</ele>
        <time>2018-03-03T10:40:27Z</time>
      </trkpt>
      <trkpt lat="43.22261" lon="5.36596">
        <ele>280.8</ele>
        <time>2018-03-03T10:40:32Z</time>
      </trkpt>
      <trkpt lat="43.22259" lon="5.36597">
        <ele>282.6</ele>
        <time>2018-03-03T10:40:37Z</time>
      </trkpt>
      <trkpt lat="43.22258" lon="5.36599">
        <ele>285.2</ele>
        <time>2018-03-03T10:40:42Z</time>
      </trkpt>
      <trkpt lat="43.22258" lon="5.366">
        <ele>286.4</ele>
        <time>2018-03-03T10:40:47Z</time>
      </trkpt>
      <trkpt lat="43.22258" lon="5.366">
        <ele>284.4</ele>
        <time>2018-03-03T10:40:52Z</time>
      </trkpt>
      <trkpt lat="43.2226" lon="5.36597">
        <ele>283.2</ele>
        <time>2018-03-03T10:40:57Z</time>
      </trkpt>
      <trkpt lat="43.22264" lon="5.36592">
        <ele>284.8</ele>
        <time>2018-03-03T10:41:02Z</time>
      </trkpt>
      <trkpt lat="43.22267" lon="5.36592">
        <ele>283.8</ele>
        <time>2018-03-03T10:41:07Z</time>
      </trkpt>
      <trkpt lat="43.2227" lon="5.3659">
        <ele>287.8</ele>
        <time>2018-03-03T10:41:12Z</time>
      </trkpt>
      <trkpt lat="43.2227" lon="5.36589">
        <ele>288.8</ele>
        <time>2018-03-03T10:41:17Z</time>
      </trkpt>
      <trkpt lat="43.22269" lon="5.36587">
        <ele>285.8</ele>
        <time>2018-03-03T10:41:37Z</time>
      </trkpt>
      <trkpt lat="43.22269" lon="5.36586">
        <ele>285.8</ele>
        <time>2018-03-03T10:41:42Z</time>
      </trkpt>
      <trkpt lat="43.22269" lon="5.36585">
        <ele>286</ele>
        <time>2018-03-03T10:41:47Z</time>
      </trkpt>
      <trkpt lat="43.22268" lon="5.36584">
        <ele>286</ele>
        <time>2018-03-03T10:41:52Z</time>
      </trkpt>
      <trkpt lat="43.22268" lon="5.36584">
        <ele>287.2</ele>
        <time>2018-03-03T10:41:57Z</time>
      </trkpt>
      <trkpt lat="43.22268" lon="5.36583">
        <ele>286.6</ele>
        <time>2018-03-03T10:42:02Z</time>
      </trkpt>
      <trkpt lat="43.22272" lon="5.36582">
        <ele>283</ele>
        <time>2018-03-03T10:42:27Z</time>
      </trkpt>
      <trkpt lat="43.22275" lon="5.3658">
        <ele>284</ele>
        <time>2018-03-03T10:42:32Z</time>
      </trkpt>
      <trkpt lat="43.22276" lon="5.3658">
        <ele>286.2</ele>
        <time>2018-03-03T10:42:37Z</time>
      </trkpt>
      <trkpt lat="43.22276" lon="5.36579">
        <ele>284.2</ele>
        <time>2018-03-03T10:43:07Z</time>
      </trkpt>
      <trkpt lat="43.22281" lon="5.36576">
        <ele>283.4</ele>
        <time>2018-03-03T10:43:12Z</time>
      </trkpt>
      <trkpt lat="43.22283" lon="5.36576">
        <ele>281.8</ele>
        <time>2018-03-03T10:43:17Z</time>
      </trkpt>
      <trkpt lat="43.22287" lon="5.36576">
        <ele>288.8</ele>
        <time>2018-03-03T10:45:12Z</time>
      </trkpt>
      <trkpt lat="43.22288" lon="5.36575">
        <ele>289.8</ele>
        <time>2018-03-03T10:45:17Z</time>
      </trkpt>
      <trkpt lat="43.22288" lon="5.36572">
        <ele>288.6</ele>
        <time>2018-03-03T10:45:47Z</time>
      </trkpt>
      <trkpt lat="43.22288" lon="5.36569">
        <ele>288.4</ele>
        <time>2018-03-03T10:45:52Z</time>
      </trkpt>
      <trkpt lat="43.22288" lon="5.36565">
        <ele>293.2</ele>
        <time>2018-03-03T10:45:57Z</time>
      </trkpt>
      <trkpt lat="43.22288" lon="5.36563">
        <ele>290.8</ele>
        <time>2018-03-03T10:46:02Z</time>
      </trkpt>
      <trkpt lat="43.22288" lon="5.36559">
        <ele>288.4</ele>
        <time>2018-03-03T10:46:07Z</time>
      </trkpt>
      <trkpt lat="43.22287" lon="5.36557">
        <ele>289.4</ele>
        <time>2018-03-03T10:46:12Z</time>
      </trkpt>
      <trkpt lat="43.22289" lon="5.36555">
        <ele>288.8</ele>
        <time>2018-03-03T10:46:17Z</time>
      </trkpt>
      <trkpt lat="43.2229" lon="5.3655">
        <ele>288</ele>
        <time>2018-03-03T10:46:22Z</time>
      </trkpt>
      <trkpt lat="43.2229" lon="5.3655">
        <ele>288.4</ele>
        <time>2018-03-03T10:46:27Z</time>
      </trkpt>
      <trkpt lat="43.22291" lon="5.36549">
        <ele>288.6</ele>
        <time>2018-03-03T10:46:42Z</time>
      </trkpt>
      <trkpt lat="43.22291" lon="5.36547">
        <ele>289.6</ele>
        <time>2018-03-03T10:46:47Z</time>
      </trkpt>
      <trkpt lat="43.22292" lon="5.36541">
        <ele>288.8</ele>
        <time>2018-03-03T10:46:52Z</time>
      </trkpt>
      <trkpt lat="43.22293" lon="5.36535">
        <ele>287</ele>
        <time>2018-03-03T10:46:57Z</time>
      </trkpt>
      <trkpt lat="43.22292" lon="5.36534">
        <ele>286.2</ele>
        <time>2018-03-03T10:47:02Z</time>
      </trkpt>
      <trkpt lat="43.22291" lon="5.36533">
        <ele>286</ele>
        <time>2018-03-03T10:47:07Z</time>
      </trkpt>
      <trkpt lat="43.2229" lon="5.3653">
        <ele>285.4</ele>
        <time>2018-03-03T10:47:12Z</time>
      </trkpt>
      <trkpt lat="43.2229" lon="5.36528">
        <ele>287</ele>
        <time>2018-03-03T10:47:17Z</time>
      </trkpt>
      <trkpt lat="43.2229" lon="5.36522">
        <ele>286.4</ele>
        <time>2018-03-03T10:47:22Z</time>
      </trkpt>
      <trkpt lat="43.22292" lon="5.36518">
        <ele>281.6</ele>
        <time>2018-03-03T10:47:27Z</time>
      </trkpt>
      <trkpt lat="43.22292" lon="5.36513">
        <ele>282</ele>
        <time>2018-03-03T10:47:32Z</time>
      </trkpt>
      <trkpt lat="43.22294" lon="5.36508">
        <ele>281.2</ele>
        <time>2018-03-03T10:47:42Z</time>
      </trkpt>
      <trkpt lat="43.223" lon="5.36505">
        <ele>281.4</ele>
        <time>2018-03-03T10:47:47Z</time>
      </trkpt>
      <trkpt lat="43.22303" lon="5.36504">
        <ele>279.4</ele>
        <time>2018-03-03T10:47:52Z</time>
      </trkpt>
      <trkpt lat="43.22304" lon="5.36503">
        <ele>281.8</ele>
        <time>2018-03-03T10:47:57Z</time>
      </trkpt>
      <trkpt lat="43.22307" lon="5.36503">
        <ele>279</ele>
        <time>2018-03-03T10:48:02Z</time>
      </trkpt>
      <trkpt lat="43.22311" lon="5.36502">
        <ele>280.8</ele>
        <time>2018-03-03T10:48:07Z</time>
      </trkpt>
      <trkpt lat="43.22314" lon="5.36502">
        <ele>280.8</ele>
        <time>2018-03-03T10:48:12Z</time>
      </trkpt>
      <trkpt lat="43.22317" lon="5.36499">
        <ele>282.8</ele>
        <time>2018-03-03T10:48:17Z</time>
      </trkpt>
      <trkpt lat="43.22318" lon="5.36495">
        <ele>280.4</ele>
        <time>2018-03-03T10:48:22Z</time>
      </trkpt>
      <trkpt lat="43.22318" lon="5.36493">
        <ele>281.8</ele>
        <time>2018-03-03T10:48:27Z</time>
      </trkpt>
      <trkpt lat="43.22318" lon="5.3649">
        <ele>279.8</ele>
        <time>2018-03-03T10:48:32Z</time>
      </trkpt>
      <trkpt lat="43.22322" lon="5.36486">
        <ele>281</ele>
        <time>2018-03-03T10:48:37Z</time>
      </trkpt>
      <trkpt lat="43.22324" lon="5.36485">
        <ele>279.6</ele>
        <time>2018-03-03T10:48:52Z</time>
      </trkpt>
      <trkpt lat="43.22325" lon="5.36484">
        <ele>278.6</ele>
        <time>2018-03-03T10:48:57Z</time>
      </trkpt>
      <trkpt lat="43.22326" lon="5.36485">
        <ele>278</ele>
        <time>2018-03-03T10:49:02Z</time>
      </trkpt>
      <trkpt lat="43.2233" lon="5.3649">
        <ele>281.8</ele>
        <time>2018-03-03T10:49:08Z</time>
      </trkpt>
      <trkpt lat="43.22331" lon="5.36492">
        <ele>281.2</ele>
        <time>2018-03-03T10:49:13Z</time>
      </trkpt>
      <trkpt lat="43.22332" lon="5.36496">
        <ele>282.6</ele>
        <time>2018-03-03T10:49:18Z</time>
      </trkpt>
      <trkpt lat="43.22334" lon="5.36497">
        <ele>281.4</ele>
        <time>2018-03-03T10:49:23Z</time>
      </trkpt>
      <trkpt lat="43.22337" lon="5.36499">
        <ele>284.6</ele>
        <time>2018-03-03T10:49:33Z</time>
      </trkpt>
      <trkpt lat="43.22341" lon="5.36509">
        <ele>288.2</ele>
        <time>2018-03-03T10:49:48Z</time>
      </trkpt>
      <trkpt lat="43.22345" lon="5.36514">
        <ele>287.6</ele>
        <time>2018-03-03T10:49:53Z</time>
      </trkpt>
      <trkpt lat="43.2235" lon="5.36518">
        <ele>287.8</ele>
        <time>2018-03-03T10:49:58Z</time>
      </trkpt>
      <trkpt lat="43.22352" lon="5.36519">
        <ele>292.6</ele>
        <time>2018-03-03T10:50:03Z</time>
      </trkpt>
      <trkpt lat="43.22357" lon="5.36516">
        <ele>303.4</ele>
        <time>2018-03-03T10:50:33Z</time>
      </trkpt>
      <trkpt lat="43.22358" lon="5.36514">
        <ele>303</ele>
        <time>2018-03-03T10:50:38Z</time>
      </trkpt>
      <trkpt lat="43.2236" lon="5.3651">
        <ele>303.4</ele>
        <time>2018-03-03T10:50:43Z</time>
      </trkpt>
      <trkpt lat="43.22361" lon="5.36509">
        <ele>303.6</ele>
        <time>2018-03-03T10:50:48Z</time>
      </trkpt>
      <trkpt lat="43.22358" lon="5.36506">
        <ele>303</ele>
        <time>2018-03-03T10:50:58Z</time>
      </trkpt>
      <trkpt lat="43.22356" lon="5.36506">
        <ele>302.4</ele>
        <time>2018-03-03T10:51:03Z</time>
      </trkpt>
      <trkpt lat="43.22354" lon="5.3651">
        <ele>300.4</ele>
        <time>2018-03-03T10:51:08Z</time>
      </trkpt>
      <trkpt lat="43.22352" lon="5.36512">
        <ele>302.8</ele>
        <time>2018-03-03T10:51:13Z</time>
      </trkpt>
      <trkpt lat="43.22349" lon="5.36513">
        <ele>301.6</ele>
        <time>2018-03-03T10:51:18Z</time>
      </trkpt>
      <trkpt lat="43.22349" lon="5.36512">
        <ele>300.8</ele>
        <time>2018-03-03T10:51:23Z</time>
      </trkpt>
      <trkpt lat="43.22348" lon="5.36511">
        <ele>303.2</ele>
        <time>2018-03-03T10:51:28Z</time>
      </trkpt>
      <trkpt lat="43.22346" lon="5.3651">
        <ele>303.6</ele>
        <time>2018-03-03T10:51:33Z</time>
      </trkpt>
      <trkpt lat="43.22345" lon="5.36511">
        <ele>303.4</ele>
        <time>2018-03-03T10:51:38Z</time>
      </trkpt>
      <trkpt lat="43.22344" lon="5.36512">
        <ele>303.2</ele>
        <time>2018-03-03T10:51:43Z</time>
      </trkpt>
      <trkpt lat="43.22341" lon="5.36512">
        <ele>309</ele>
        <time>2018-03-03T10:51:48Z</time>
      </trkpt>
      <trkpt lat="43.22337" lon="5.36513">
        <ele>310.6</ele>
        <time>2018-03-03T10:51:53Z</time>
      </trkpt>
      <trkpt lat="43.22332" lon="5.36513">
        <ele>306.6</ele>
        <time>2018-03-03T10:51:58Z</time>
      </trkpt>
      <trkpt lat="43.22329" lon="5.36508">
        <ele>304.6</ele>
        <time>2018-03-03T10:52:03Z</time>
      </trkpt>
      <trkpt lat="43.22325" lon="5.36506">
        <ele>299.8</ele>
        <time>2018-03-03T10:52:23Z</time>
      </trkpt>
      <trkpt lat="43.22322" lon="5.36507">
        <ele>299.2</ele>
        <time>2018-03-03T10:52:28Z</time>
      </trkpt>
      <trkpt lat="43.22321" lon="5.36508">
        <ele>299</ele>
        <time>2018-03-03T10:52:33Z</time>
      </trkpt>
      <trkpt lat="43.22318" lon="5.36509">
        <ele>298.6</ele>
        <time>2018-03-03T10:52:48Z</time>
      </trkpt>
      <trkpt lat="43.22317" lon="5.36509">
        <ele>297.6</ele>
        <time>2018-03-03T10:52:53Z</time>
      </trkpt>
      <trkpt lat="43.22311" lon="5.36513">
        <ele>295.2</ele>
        <time>2018-03-03T10:52:58Z</time>
      </trkpt>
      <trkpt lat="43.22305" lon="5.36515">
        <ele>295.4</ele>
        <time>2018-03-03T10:53:03Z</time>
      </trkpt>
      <trkpt lat="43.22301" lon="5.36518">
        <ele>293.4</ele>
        <time>2018-03-03T10:53:08Z</time>
      </trkpt>
      <trkpt lat="43.22299" lon="5.36522">
        <ele>289.4</ele>
        <time>2018-03-03T10:53:13Z</time>
      </trkpt>
      <trkpt lat="43.22296" lon="5.36528">
        <ele>293.2</ele>
        <time>2018-03-03T10:53:18Z</time>
      </trkpt>
      <trkpt lat="43.22293" lon="5.3653">
        <ele>294.6</ele>
        <time>2018-03-03T10:53:23Z</time>
      </trkpt>
      <trkpt lat="43.22293" lon="5.3653">
        <ele>295.2</ele>
        <time>2018-03-03T10:53:28Z</time>
      </trkpt>
      <trkpt lat="43.22289" lon="5.36531">
        <ele>291.4</ele>
        <time>2018-03-03T10:53:33Z</time>
      </trkpt>
      <trkpt lat="43.22288" lon="5.36534">
        <ele>291.4</ele>
        <time>2018-03-03T10:53:38Z</time>
      </trkpt>
      <trkpt lat="43.22286" lon="5.36542">
        <ele>293.2</ele>
        <time>2018-03-03T10:53:43Z</time>
      </trkpt>
      <trkpt lat="43.22284" lon="5.36548">
        <ele>291</ele>
        <time>2018-03-03T10:53:48Z</time>
      </trkpt>
      <trkpt lat="43.22283" lon="5.36554">
        <ele>292</ele>
        <time>2018-03-03T10:53:53Z</time>
      </trkpt>
      <trkpt lat="43.22284" lon="5.36562">
        <ele>293.2</ele>
        <time>2018-03-03T10:53:58Z</time>
      </trkpt>
      <trkpt lat="43.22284" lon="5.36566">
        <ele>295.2</ele>
        <time>2018-03-03T10:54:03Z</time>
      </trkpt>
      <trkpt lat="43.22284" lon="5.3657">
        <ele>294.2</ele>
        <time>2018-03-03T10:54:08Z</time>
      </trkpt>
      <trkpt lat="43.22287" lon="5.36575">
        <ele>296.6</ele>
        <time>2018-03-03T10:54:13Z</time>
      </trkpt>
      <trkpt lat="43.22287" lon="5.36579">
        <ele>295.2</ele>
        <time>2018-03-03T10:54:18Z</time>
      </trkpt>
      <trkpt lat="43.22284" lon="5.3658">
        <ele>296</ele>
        <time>2018-03-03T10:54:23Z</time>
      </trkpt>
      <trkpt lat="43.2228" lon="5.36583">
        <ele>297.4</ele>
        <time>2018-03-03T10:54:28Z</time>
      </trkpt>
      <trkpt lat="43.22278" lon="5.36582">
        <ele>295.8</ele>
        <time>2018-03-03T10:54:33Z</time>
      </trkpt>
      <trkpt lat="43.22278" lon="5.36583">
        <ele>297.4</ele>
        <time>2018-03-03T10:54:53Z</time>
      </trkpt>
      <trkpt lat="43.22278" lon="5.36583">
        <ele>297.2</ele>
        <time>2018-03-03T10:54:58Z</time>
      </trkpt>
      <trkpt lat="43.22275" lon="5.36582">
        <ele>296</ele>
        <time>2018-03-03T10:55:03Z</time>
      </trkpt>
      <trkpt lat="43.22273" lon="5.36581">
        <ele>292</ele>
        <time>2018-03-03T10:55:08Z</time>
      </trkpt>
      <trkpt lat="43.22271" lon="5.36578">
        <ele>293</ele>
        <time>2018-03-03T10:55:13Z</time>
      </trkpt>
      <trkpt lat="43.22269" lon="5.36577">
        <ele>294.2</ele>
        <time>2018-03-03T10:55:23Z</time>
      </trkpt>
      <trkpt lat="43.22268" lon="5.36575">
        <ele>294.8</ele>
        <time>2018-03-03T10:55:28Z</time>
      </trkpt>
      <trkpt lat="43.22267" lon="5.36574">
        <ele>294.8</ele>
        <time>2018-03-03T10:55:33Z</time>
      </trkpt>
      <trkpt lat="43.22267" lon="5.36572">
        <ele>295.4</ele>
        <time>2018-03-03T10:55:38Z</time>
      </trkpt>
      <trkpt lat="43.22266" lon="5.36572">
        <ele>295.6</ele>
        <time>2018-03-03T10:55:43Z</time>
      </trkpt>
      <trkpt lat="43.22266" lon="5.36571">
        <ele>295.8</ele>
        <time>2018-03-03T10:55:48Z</time>
      </trkpt>
      <trkpt lat="43.22265" lon="5.36568">
        <ele>296</ele>
        <time>2018-03-03T10:55:53Z</time>
      </trkpt>
      <trkpt lat="43.22265" lon="5.36566">
        <ele>298.2</ele>
        <time>2018-03-03T10:55:58Z</time>
      </trkpt>
      <trkpt lat="43.22265" lon="5.36563">
        <ele>300.6</ele>
        <time>2018-03-03T10:56:08Z</time>
      </trkpt>
      <trkpt lat="43.22264" lon="5.36562">
        <ele>301.2</ele>
        <time>2018-03-03T10:56:13Z</time>
      </trkpt>
      <trkpt lat="43.22263" lon="5.3656">
        <ele>301.2</ele>
        <time>2018-03-03T10:56:18Z</time>
      </trkpt>
      <trkpt lat="43.22263" lon="5.36559">
        <ele>301.6</ele>
        <time>2018-03-03T10:56:23Z</time>
      </trkpt>
      <trkpt lat="43.22263" lon="5.36558">
        <ele>302</ele>
        <time>2018-03-03T10:56:33Z</time>
      </trkpt>
      <trkpt lat="43.22264" lon="5.36555">
        <ele>301.8</ele>
        <time>2018-03-03T10:56:38Z</time>
      </trkpt>
      <trkpt lat="43.22262" lon="5.36553">
        <ele>300.8</ele>
        <time>2018-03-03T10:56:43Z</time>
      </trkpt>
      <trkpt lat="43.22261" lon="5.3655">
        <ele>305.4</ele>
        <time>2018-03-03T10:57:03Z</time>
      </trkpt>
      <trkpt lat="43.22261" lon="5.36548">
        <ele>305.8</ele>
        <time>2018-03-03T10:57:13Z</time>
      </trkpt>
      <trkpt lat="43.22261" lon="5.36548">
        <ele>307</ele>
        <time>2018-03-03T10:57:18Z</time>
      </trkpt>
      <trkpt lat="43.22261" lon="5.36546">
        <ele>307.6</ele>
        <time>2018-03-03T10:57:23Z</time>
      </trkpt>
      <trkpt lat="43.2226" lon="5.36545">
        <ele>311.8</ele>
        <time>2018-03-03T10:57:28Z</time>
      </trkpt>
      <trkpt lat="43.22258" lon="5.36544">
        <ele>311.6</ele>
        <time>2018-03-03T10:57:33Z</time>
      </trkpt>
      <trkpt lat="43.22258" lon="5.36542">
        <ele>310</ele>
        <time>2018-03-03T10:57:38Z</time>
      </trkpt>
      <trkpt lat="43.22257" lon="5.36541">
        <ele>305.2</ele>
        <time>2018-03-03T10:57:58Z</time>
      </trkpt>
      <trkpt lat="43.22256" lon="5.36542">
        <ele>307.6</ele>
        <time>2018-03-03T10:58:03Z</time>
      </trkpt>
      <trkpt lat="43.22255" lon="5.36542">
        <ele>309.4</ele>
        <time>2018-03-03T10:58:08Z</time>
      </trkpt>
      <trkpt lat="43.22252" lon="5.36546">
        <ele>312.4</ele>
        <time>2018-03-03T10:59:44Z</time>
      </trkpt>
      <trkpt lat="43.22252" lon="5.36546">
        <ele>313.2</ele>
        <time>2018-03-03T11:00:34Z</time>
      </trkpt>
      <trkpt lat="43.22252" lon="5.36544">
        <ele>315.4</ele>
        <time>2018-03-03T11:02:19Z</time>
      </trkpt>
      <trkpt lat="43.22251" lon="5.36538">
        <ele>311.2</ele>
        <time>2018-03-03T11:02:24Z</time>
      </trkpt>
      <trkpt lat="43.22252" lon="5.36537">
        <ele>311</ele>
        <time>2018-03-03T11:03:24Z</time>
      </trkpt>
      <trkpt lat="43.22252" lon="5.36536">
        <ele>310.4</ele>
        <time>2018-03-03T11:03:29Z</time>
      </trkpt>
      <trkpt lat="43.22252" lon="5.36532">
        <ele>309.8</ele>
        <time>2018-03-03T11:04:04Z</time>
      </trkpt>
      <trkpt lat="43.22252" lon="5.36531">
        <ele>309.4</ele>
        <time>2018-03-03T11:04:24Z</time>
      </trkpt>
      <trkpt lat="43.22252" lon="5.36531">
        <ele>312.4</ele>
        <time>2018-03-03T11:04:54Z</time>
      </trkpt>
      <trkpt lat="43.22254" lon="5.3653">
        <ele>312.4</ele>
        <time>2018-03-03T11:04:59Z</time>
      </trkpt>
      <trkpt lat="43.22255" lon="5.3653">
        <ele>311.8</ele>
        <time>2018-03-03T11:05:04Z</time>
      </trkpt>
      <trkpt lat="43.22256" lon="5.3653">
        <ele>311.6</ele>
        <time>2018-03-03T11:05:09Z</time>
      </trkpt>
      <trkpt lat="43.22256" lon="5.36531">
        <ele>309.8</ele>
        <time>2018-03-03T11:05:19Z</time>
      </trkpt>
      <trkpt lat="43.22257" lon="5.36529">
        <ele>313.8</ele>
        <time>2018-03-03T11:05:24Z</time>
      </trkpt>
      <trkpt lat="43.22259" lon="5.36527">
        <ele>315.4</ele>
        <time>2018-03-03T11:05:29Z</time>
      </trkpt>
      <trkpt lat="43.22261" lon="5.36525">
        <ele>318.4</ele>
        <time>2018-03-03T11:05:34Z</time>
      </trkpt>
      <trkpt lat="43.22262" lon="5.36522">
        <ele>320.2</ele>
        <time>2018-03-03T11:05:39Z</time>
      </trkpt>
      <trkpt lat="43.22264" lon="5.36518">
        <ele>320.6</ele>
        <time>2018-03-03T11:05:44Z</time>
      </trkpt>
      <trkpt lat="43.22266" lon="5.36516">
        <ele>323.6</ele>
        <time>2018-03-03T11:05:49Z</time>
      </trkpt>
      <trkpt lat="43.22266" lon="5.36512">
        <ele>322.8</ele>
        <time>2018-03-03T11:05:54Z</time>
      </trkpt>
      <trkpt lat="43.22268" lon="5.36511">
        <ele>325</ele>
        <time>2018-03-03T11:06:19Z</time>
      </trkpt>
      <trkpt lat="43.2227" lon="5.3651">
        <ele>327.6</ele>
        <time>2018-03-03T11:06:44Z</time>
      </trkpt>
      <trkpt lat="43.22276" lon="5.3651">
        <ele>328.6</ele>
        <time>2018-03-03T11:06:54Z</time>
      </trkpt>
      <trkpt lat="43.22276" lon="5.36511">
        <ele>328.8</ele>
        <time>2018-03-03T11:06:59Z</time>
      </trkpt>
      <trkpt lat="43.22276" lon="5.36511">
        <ele>330</ele>
        <time>2018-03-03T11:07:24Z</time>
      </trkpt>
      <trkpt lat="43.22276" lon="5.3651">
        <ele>328.6</ele>
        <time>2018-03-03T11:07:34Z</time>
      </trkpt>
      <trkpt lat="43.22274" lon="5.36505">
        <ele>330</ele>
        <time>2018-03-03T11:07:39Z</time>
      </trkpt>
      <trkpt lat="43.22273" lon="5.365">
        <ele>327</ele>
        <time>2018-03-03T11:07:44Z</time>
      </trkpt>
      <trkpt lat="43.22272" lon="5.36497">
        <ele>327.6</ele>
        <time>2018-03-03T11:07:49Z</time>
      </trkpt>
      <trkpt lat="43.22272" lon="5.36492">
        <ele>329</ele>
        <time>2018-03-03T11:07:54Z</time>
      </trkpt>
      <trkpt lat="43.22271" lon="5.36487">
        <ele>331.4</ele>
        <time>2018-03-03T11:07:59Z</time>
      </trkpt>
      <trkpt lat="43.22271" lon="5.36483">
        <ele>331.6</ele>
        <time>2018-03-03T11:08:04Z</time>
      </trkpt>
      <trkpt lat="43.22271" lon="5.36478">
        <ele>332.2</ele>
        <time>2018-03-03T11:08:09Z</time>
      </trkpt>
      <trkpt lat="43.22271" lon="5.36474">
        <ele>331.4</ele>
        <time>2018-03-03T11:08:14Z</time>
      </trkpt>
      <trkpt lat="43.22272" lon="5.3647">
        <ele>331.6</ele>
        <time>2018-03-03T11:08:19Z</time>
      </trkpt>
      <trkpt lat="43.22274" lon="5.36468">
        <ele>334.6</ele>
        <time>2018-03-03T11:08:24Z</time>
      </trkpt>
      <trkpt lat="43.22275" lon="5.36469">
        <ele>337.8</ele>
        <time>2018-03-03T11:08:29Z</time>
      </trkpt>
      <trkpt lat="43.22276" lon="5.36471">
        <ele>337.4</ele>
        <time>2018-03-03T11:08:34Z</time>
      </trkpt>
      <trkpt lat="43.22277" lon="5.36471">
        <ele>338.2</ele>
        <time>2018-03-03T11:08:39Z</time>
      </trkpt>
      <trkpt lat="43.22279" lon="5.36472">
        <ele>341.8</ele>
        <time>2018-03-03T11:08:44Z</time>
      </trkpt>
      <trkpt lat="43.22281" lon="5.36473">
        <ele>345.2</ele>
        <time>2018-03-03T11:08:49Z</time>
      </trkpt>
      <trkpt lat="43.22283" lon="5.36474">
        <ele>342</ele>
        <time>2018-03-03T11:08:54Z</time>
      </trkpt>
      <trkpt lat="43.22286" lon="5.36476">
        <ele>342</ele>
        <time>2018-03-03T11:08:59Z</time>
      </trkpt>
      <trkpt lat="43.22287" lon="5.36475">
        <ele>343.8</ele>
        <time>2018-03-03T11:09:04Z</time>
      </trkpt>
      <trkpt lat="43.2229" lon="5.36473">
        <ele>342</ele>
        <time>2018-03-03T11:09:09Z</time>
      </trkpt>
      <trkpt lat="43.22292" lon="5.36473">
        <ele>344.2</ele>
        <time>2018-03-03T11:09:14Z</time>
      </trkpt>
      <trkpt lat="43.22294" lon="5.36471">
        <ele>342.6</ele>
        <time>2018-03-03T11:09:19Z</time>
      </trkpt>
      <trkpt lat="43.22296" lon="5.36467">
        <ele>342</ele>
        <time>2018-03-03T11:09:24Z</time>
      </trkpt>
      <trkpt lat="43.22298" lon="5.36463">
        <ele>343.8</ele>
        <time>2018-03-03T11:09:29Z</time>
      </trkpt>
      <trkpt lat="43.22299" lon="5.36459">
        <ele>343</ele>
        <time>2018-03-03T11:09:34Z</time>
      </trkpt>
      <trkpt lat="43.22299" lon="5.36456">
        <ele>345.2</ele>
        <time>2018-03-03T11:09:39Z</time>
      </trkpt>
      <trkpt lat="43.22299" lon="5.36455">
        <ele>348.2</ele>
        <time>2018-03-03T11:09:44Z</time>
      </trkpt>
      <trkpt lat="43.22299" lon="5.36454">
        <ele>347.2</ele>
        <time>2018-03-03T11:09:49Z</time>
      </trkpt>
      <trkpt lat="43.22298" lon="5.36454">
        <ele>347</ele>
        <time>2018-03-03T11:09:59Z</time>
      </trkpt>
      <trkpt lat="43.22296" lon="5.36453">
        <ele>346.8</ele>
        <time>2018-03-03T11:10:04Z</time>
      </trkpt>
      <trkpt lat="43.22293" lon="5.3645">
        <ele>346.8</ele>
        <time>2018-03-03T11:10:24Z</time>
      </trkpt>
      <trkpt lat="43.22293" lon="5.36449">
        <ele>347.6</ele>
        <time>2018-03-03T11:10:29Z</time>
      </trkpt>
      <trkpt lat="43.22293" lon="5.36448">
        <ele>349</ele>
        <time>2018-03-03T11:10:39Z</time>
      </trkpt>
      <trkpt lat="43.22293" lon="5.36446">
        <ele>349.4</ele>
        <time>2018-03-03T11:10:49Z</time>
      </trkpt>
      <trkpt lat="43.22294" lon="5.36446">
        <ele>349.6</ele>
        <time>2018-03-03T11:10:54Z</time>
      </trkpt>
      <trkpt lat="43.22294" lon="5.36445">
        <ele>349.8</ele>
        <time>2018-03-03T11:10:59Z</time>
      </trkpt>
      <trkpt lat="43.22295" lon="5.36444">
        <ele>350.2</ele>
        <time>2018-03-03T11:11:04Z</time>
      </trkpt>
      <trkpt lat="43.22296" lon="5.36443">
        <ele>350.8</ele>
        <time>2018-03-03T11:11:09Z</time>
      </trkpt>
      <trkpt lat="43.22295" lon="5.36441">
        <ele>349.4</ele>
        <time>2018-03-03T11:11:14Z</time>
      </trkpt>
      <trkpt lat="43.22295" lon="5.3644">
        <ele>351.4</ele>
        <time>2018-03-03T11:11:24Z</time>
      </trkpt>
      <trkpt lat="43.22295" lon="5.36438">
        <ele>352</ele>
        <time>2018-03-03T11:11:29Z</time>
      </trkpt>
      <trkpt lat="43.22296" lon="5.36434">
        <ele>352.6</ele>
        <time>2018-03-03T11:11:34Z</time>
      </trkpt>
      <trkpt lat="43.22297" lon="5.36428">
        <ele>355.6</ele>
        <time>2018-03-03T11:11:44Z</time>
      </trkpt>
      <trkpt lat="43.22298" lon="5.36427">
        <ele>357</ele>
        <time>2018-03-03T11:11:54Z</time>
      </trkpt>
      <trkpt lat="43.22297" lon="5.36427">
        <ele>357.6</ele>
        <time>2018-03-03T11:11:59Z</time>
      </trkpt>
      <trkpt lat="43.22297" lon="5.36426">
        <ele>358.6</ele>
        <time>2018-03-03T11:12:04Z</time>
      </trkpt>
      <trkpt lat="43.22295" lon="5.36424">
        <ele>357.4</ele>
        <time>2018-03-03T11:12:09Z</time>
      </trkpt>
      <trkpt lat="43.22294" lon="5.36424">
        <ele>362.8</ele>
        <time>2018-03-03T11:12:14Z</time>
      </trkpt>
      <trkpt lat="43.22292" lon="5.36423">
        <ele>365.2</ele>
        <time>2018-03-03T11:12:19Z</time>
      </trkpt>
      <trkpt lat="43.22293" lon="5.36423">
        <ele>361.8</ele>
        <time>2018-03-03T11:13:24Z</time>
      </trkpt>
      <trkpt lat="43.22294" lon="5.36422">
        <ele>361.8</ele>
        <time>2018-03-03T11:13:29Z</time>
      </trkpt>
      <trkpt lat="43.22299" lon="5.36419">
        <ele>363.8</ele>
        <time>2018-03-03T11:13:34Z</time>
      </trkpt>
      <trkpt lat="43.22305" lon="5.36416">
        <ele>363.6</ele>
        <time>2018-03-03T11:13:39Z</time>
      </trkpt>
      <trkpt lat="43.22309" lon="5.36412">
        <ele>364.2</ele>
        <time>2018-03-03T11:13:44Z</time>
      </trkpt>
      <trkpt lat="43.22312" lon="5.3641">
        <ele>363.8</ele>
        <time>2018-03-03T11:13:49Z</time>
      </trkpt>
      <trkpt lat="43.22312" lon="5.3641">
        <ele>364.6</ele>
        <time>2018-03-03T11:13:59Z</time>
      </trkpt>
      <trkpt lat="43.22313" lon="5.36409">
        <ele>365</ele>
        <time>2018-03-03T11:14:14Z</time>
      </trkpt>
      <trkpt lat="43.22313" lon="5.36408">
        <ele>365.2</ele>
        <time>2018-03-03T11:14:19Z</time>
      </trkpt>
      <trkpt lat="43.22318" lon="5.36408">
        <ele>365.8</ele>
        <time>2018-03-03T11:14:24Z</time>
      </trkpt>
      <trkpt lat="43.22328" lon="5.36409">
        <ele>364.2</ele>
        <time>2018-03-03T11:21:05Z</time>
      </trkpt>
      <trkpt lat="43.2232" lon="5.36403">
        <ele>362</ele>
        <time>2018-03-03T11:22:25Z</time>
      </trkpt>
      <trkpt lat="43.22319" lon="5.36397">
        <ele>363</ele>
        <time>2018-03-03T11:22:30Z</time>
      </trkpt>
      <trkpt lat="43.22314" lon="5.364">
        <ele>365</ele>
        <time>2018-03-03T11:22:55Z</time>
      </trkpt>
      <trkpt lat="43.2231" lon="5.36405">
        <ele>362.6</ele>
        <time>2018-03-03T11:23:00Z</time>
      </trkpt>
      <trkpt lat="43.22305" lon="5.36406">
        <ele>363.4</ele>
        <time>2018-03-03T11:23:05Z</time>
      </trkpt>
      <trkpt lat="43.223" lon="5.36408">
        <ele>366.8</ele>
        <time>2018-03-03T11:23:10Z</time>
      </trkpt>
      <trkpt lat="43.22297" lon="5.36408">
        <ele>365.6</ele>
        <time>2018-03-03T11:23:15Z</time>
      </trkpt>
      <trkpt lat="43.22295" lon="5.36409">
        <ele>362.2</ele>
        <time>2018-03-03T11:23:20Z</time>
      </trkpt>
      <trkpt lat="43.22291" lon="5.36409">
        <ele>363.8</ele>
        <time>2018-03-03T11:23:25Z</time>
      </trkpt>
      <trkpt lat="43.22289" lon="5.36409">
        <ele>360</ele>
        <time>2018-03-03T11:23:30Z</time>
      </trkpt>
      <trkpt lat="43.22288" lon="5.36409">
        <ele>361.4</ele>
        <time>2018-03-03T11:23:35Z</time>
      </trkpt>
      <trkpt lat="43.22285" lon="5.36408">
        <ele>365.2</ele>
        <time>2018-03-03T11:23:40Z</time>
      </trkpt>
      <trkpt lat="43.22285" lon="5.36408">
        <ele>364.4</ele>
        <time>2018-03-03T11:23:45Z</time>
      </trkpt>
      <trkpt lat="43.22282" lon="5.36407">
        <ele>366.4</ele>
        <time>2018-03-03T11:23:50Z</time>
      </trkpt>
      <trkpt lat="43.2228" lon="5.36405">
        <ele>362.8</ele>
        <time>2018-03-03T11:23:55Z</time>
      </trkpt>
      <trkpt lat="43.22279" lon="5.36404">
        <ele>359.8</ele>
        <time>2018-03-03T11:24:00Z</time>
      </trkpt>
      <trkpt lat="43.22276" lon="5.364">
        <ele>360.8</ele>
        <time>2018-03-03T11:24:05Z</time>
      </trkpt>
      <trkpt lat="43.22274" lon="5.36397">
        <ele>362.4</ele>
        <time>2018-03-03T11:24:10Z</time>
      </trkpt>
      <trkpt lat="43.22273" lon="5.36396">
        <ele>357</ele>
        <time>2018-03-03T11:24:20Z</time>
      </trkpt>
      <trkpt lat="43.22271" lon="5.36393">
        <ele>355.8</ele>
        <time>2018-03-03T11:24:25Z</time>
      </trkpt>
      <trkpt lat="43.22268" lon="5.36388">
        <ele>359</ele>
        <time>2018-03-03T11:24:30Z</time>
      </trkpt>
      <trkpt lat="43.22268" lon="5.36387">
        <ele>358.4</ele>
        <time>2018-03-03T11:24:45Z</time>
      </trkpt>
      <trkpt lat="43.22267" lon="5.36384">
        <ele>357.8</ele>
        <time>2018-03-03T11:24:50Z</time>
      </trkpt>
      <trkpt lat="43.22265" lon="5.36382">
        <ele>357.8</ele>
        <time>2018-03-03T11:25:00Z</time>
      </trkpt>
      <trkpt lat="43.22261" lon="5.36377">
        <ele>356.8</ele>
        <time>2018-03-03T11:25:05Z</time>
      </trkpt>
      <trkpt lat="43.22256" lon="5.36373">
        <ele>352.8</ele>
        <time>2018-03-03T11:25:10Z</time>
      </trkpt>
      <trkpt lat="43.22254" lon="5.36367">
        <ele>351</ele>
        <time>2018-03-03T11:25:15Z</time>
      </trkpt>
      <trkpt lat="43.22252" lon="5.36363">
        <ele>354</ele>
        <time>2018-03-03T11:25:20Z</time>
      </trkpt>
      <trkpt lat="43.22253" lon="5.3636">
        <ele>352.8</ele>
        <time>2018-03-03T11:25:25Z</time>
      </trkpt>
      <trkpt lat="43.22255" lon="5.36361">
        <ele>350</ele>
        <time>2018-03-03T11:25:30Z</time>
      </trkpt>
      <trkpt lat="43.22256" lon="5.3636">
        <ele>350.8</ele>
        <time>2018-03-03T11:25:35Z</time>
      </trkpt>
      <trkpt lat="43.22256" lon="5.3636">
        <ele>351.2</ele>
        <time>2018-03-03T11:25:40Z</time>
      </trkpt>
      <trkpt lat="43.22258" lon="5.36359">
        <ele>351.4</ele>
        <time>2018-03-03T11:25:45Z</time>
      </trkpt>
      <trkpt lat="43.22259" lon="5.36356">
        <ele>351</ele>
        <time>2018-03-03T11:25:50Z</time>
      </trkpt>
      <trkpt lat="43.22262" lon="5.36356">
        <ele>352.6</ele>
        <time>2018-03-03T11:25:55Z</time>
      </trkpt>
      <trkpt lat="43.22264" lon="5.36357">
        <ele>349</ele>
        <time>2018-03-03T11:26:01Z</time>
      </trkpt>
      <trkpt lat="43.22265" lon="5.36356">
        <ele>348.4</ele>
        <time>2018-03-03T11:26:06Z</time>
      </trkpt>
      <trkpt lat="43.22265" lon="5.36355">
        <ele>345.8</ele>
        <time>2018-03-03T11:26:11Z</time>
      </trkpt>
      <trkpt lat="43.22263" lon="5.3635">
        <ele>342.8</ele>
        <time>2018-03-03T11:26:16Z</time>
      </trkpt>
      <trkpt lat="43.22264" lon="5.36345">
        <ele>340.2</ele>
        <time>2018-03-03T11:26:26Z</time>
      </trkpt>
      <trkpt lat="43.22265" lon="5.36341">
        <ele>340.4</ele>
        <time>2018-03-03T11:26:31Z</time>
      </trkpt>
      <trkpt lat="43.22265" lon="5.3634">
        <ele>339.8</ele>
        <time>2018-03-03T11:26:36Z</time>
      </trkpt>
      <trkpt lat="43.22266" lon="5.36337">
        <ele>339.6</ele>
        <time>2018-03-03T11:26:41Z</time>
      </trkpt>
      <trkpt lat="43.22266" lon="5.36334">
        <ele>336.6</ele>
        <time>2018-03-03T11:26:46Z</time>
      </trkpt>
      <trkpt lat="43.22267" lon="5.36331">
        <ele>336.8</ele>
        <time>2018-03-03T11:26:51Z</time>
      </trkpt>
      <trkpt lat="43.22269" lon="5.36328">
        <ele>335.4</ele>
        <time>2018-03-03T11:26:56Z</time>
      </trkpt>
      <trkpt lat="43.22269" lon="5.36327">
        <ele>334.4</ele>
        <time>2018-03-03T11:27:01Z</time>
      </trkpt>
      <trkpt lat="43.22268" lon="5.36325">
        <ele>334.2</ele>
        <time>2018-03-03T11:27:06Z</time>
      </trkpt>
      <trkpt lat="43.22268" lon="5.36324">
        <ele>334.6</ele>
        <time>2018-03-03T11:27:11Z</time>
      </trkpt>
      <trkpt lat="43.2227" lon="5.36321">
        <ele>334</ele>
        <time>2018-03-03T11:27:16Z</time>
      </trkpt>
      <trkpt lat="43.2227" lon="5.36318">
        <ele>326.4</ele>
        <time>2018-03-03T11:27:21Z</time>
      </trkpt>
      <trkpt lat="43.22271" lon="5.36315">
        <ele>328.8</ele>
        <time>2018-03-03T11:27:26Z</time>
      </trkpt>
      <trkpt lat="43.22273" lon="5.36313">
        <ele>328</ele>
        <time>2018-03-03T11:27:31Z</time>
      </trkpt>
      <trkpt lat="43.22273" lon="5.3631">
        <ele>326.4</ele>
        <time>2018-03-03T11:27:36Z</time>
      </trkpt>
      <trkpt lat="43.22274" lon="5.36309">
        <ele>325.2</ele>
        <time>2018-03-03T11:27:46Z</time>
      </trkpt>
      <trkpt lat="43.22277" lon="5.36308">
        <ele>326.4</ele>
        <time>2018-03-03T11:27:51Z</time>
      </trkpt>
      <trkpt lat="43.22279" lon="5.36305">
        <ele>323.8</ele>
        <time>2018-03-03T11:27:56Z</time>
      </trkpt>
      <trkpt lat="43.22279" lon="5.36301">
        <ele>324.8</ele>
        <time>2018-03-03T11:28:01Z</time>
      </trkpt>
      <trkpt lat="43.22278" lon="5.36298">
        <ele>322.6</ele>
        <time>2018-03-03T11:28:06Z</time>
      </trkpt>
      <trkpt lat="43.22277" lon="5.36291">
        <ele>317.8</ele>
        <time>2018-03-03T11:28:26Z</time>
      </trkpt>
      <trkpt lat="43.22278" lon="5.36289">
        <ele>318.4</ele>
        <time>2018-03-03T11:28:31Z</time>
      </trkpt>
      <trkpt lat="43.22276" lon="5.36288">
        <ele>319.6</ele>
        <time>2018-03-03T11:28:36Z</time>
      </trkpt>
      <trkpt lat="43.22276" lon="5.36285">
        <ele>316.2</ele>
        <time>2018-03-03T11:28:41Z</time>
      </trkpt>
      <trkpt lat="43.22277" lon="5.3628">
        <ele>315.2</ele>
        <time>2018-03-03T11:28:56Z</time>
      </trkpt>
      <trkpt lat="43.22276" lon="5.36276">
        <ele>315</ele>
        <time>2018-03-03T11:29:01Z</time>
      </trkpt>
      <trkpt lat="43.22278" lon="5.3627">
        <ele>312.8</ele>
        <time>2018-03-03T11:29:11Z</time>
      </trkpt>
      <trkpt lat="43.22277" lon="5.36268">
        <ele>311.6</ele>
        <time>2018-03-03T11:29:16Z</time>
      </trkpt>
      <trkpt lat="43.22277" lon="5.36266">
        <ele>310</ele>
        <time>2018-03-03T11:29:21Z</time>
      </trkpt>
      <trkpt lat="43.22277" lon="5.36264">
        <ele>310.2</ele>
        <time>2018-03-03T11:29:26Z</time>
      </trkpt>
      <trkpt lat="43.22277" lon="5.36262">
        <ele>309.2</ele>
        <time>2018-03-03T11:29:31Z</time>
      </trkpt>
      <trkpt lat="43.22277" lon="5.36259">
        <ele>306.8</ele>
        <time>2018-03-03T11:29:36Z</time>
      </trkpt>
      <trkpt lat="43.22279" lon="5.36257">
        <ele>304.8</ele>
        <time>2018-03-03T11:29:41Z</time>
      </trkpt>
      <trkpt lat="43.22281" lon="5.36253">
        <ele>304.4</ele>
        <time>2018-03-03T11:29:46Z</time>
      </trkpt>
      <trkpt lat="43.22284" lon="5.36248">
        <ele>300.8</ele>
        <time>2018-03-03T11:29:51Z</time>
      </trkpt>
      <trkpt lat="43.22284" lon="5.36246">
        <ele>300</ele>
        <time>2018-03-03T11:29:56Z</time>
      </trkpt>
      <trkpt lat="43.22285" lon="5.36243">
        <ele>297.8</ele>
        <time>2018-03-03T11:30:01Z</time>
      </trkpt>
      <trkpt lat="43.22286" lon="5.36239">
        <ele>297.4</ele>
        <time>2018-03-03T11:30:06Z</time>
      </trkpt>
      <trkpt lat="43.22287" lon="5.36238">
        <ele>295</ele>
        <time>2018-03-03T11:30:11Z</time>
      </trkpt>
      <trkpt lat="43.22286" lon="5.36236">
        <ele>291.8</ele>
        <time>2018-03-03T11:30:16Z</time>
      </trkpt>
      <trkpt lat="43.22288" lon="5.36232">
        <ele>289.2</ele>
        <time>2018-03-03T11:30:21Z</time>
      </trkpt>
      <trkpt lat="43.22288" lon="5.36228">
        <ele>289.8</ele>
        <time>2018-03-03T11:30:26Z</time>
      </trkpt>
      <trkpt lat="43.22288" lon="5.36222">
        <ele>287.2</ele>
        <time>2018-03-03T11:30:31Z</time>
      </trkpt>
      <trkpt lat="43.22285" lon="5.36218">
        <ele>286.8</ele>
        <time>2018-03-03T11:30:36Z</time>
      </trkpt>
      <trkpt lat="43.22282" lon="5.36213">
        <ele>283.8</ele>
        <time>2018-03-03T11:30:41Z</time>
      </trkpt>
      <trkpt lat="43.22281" lon="5.36207">
        <ele>284</ele>
        <time>2018-03-03T11:30:46Z</time>
      </trkpt>
      <trkpt lat="43.22281" lon="5.36201">
        <ele>280</ele>
        <time>2018-03-03T11:30:51Z</time>
      </trkpt>
      <trkpt lat="43.2228" lon="5.36196">
        <ele>280.4</ele>
        <time>2018-03-03T11:30:56Z</time>
      </trkpt>
      <trkpt lat="43.22279" lon="5.36191">
        <ele>280</ele>
        <time>2018-03-03T11:31:01Z</time>
      </trkpt>
      <trkpt lat="43.22273" lon="5.36181">
        <ele>275.4</ele>
        <time>2018-03-03T11:31:11Z</time>
      </trkpt>
      <trkpt lat="43.22271" lon="5.36177">
        <ele>272.6</ele>
        <time>2018-03-03T11:31:16Z</time>
      </trkpt>
      <trkpt lat="43.22268" lon="5.36174">
        <ele>271.4</ele>
        <time>2018-03-03T11:31:21Z</time>
      </trkpt>
      <trkpt lat="43.22268" lon="5.36174">
        <ele>273.2</ele>
        <time>2018-03-03T11:31:36Z</time>
      </trkpt>
      <trkpt lat="43.22265" lon="5.36173">
        <ele>273.2</ele>
        <time>2018-03-03T11:31:41Z</time>
      </trkpt>
      <trkpt lat="43.22264" lon="5.36167">
        <ele>273.8</ele>
        <time>2018-03-03T11:31:46Z</time>
      </trkpt>
      <trkpt lat="43.22262" lon="5.36158">
        <ele>271</ele>
        <time>2018-03-03T11:31:51Z</time>
      </trkpt>
      <trkpt lat="43.22261" lon="5.36151">
        <ele>271.8</ele>
        <time>2018-03-03T11:31:56Z</time>
      </trkpt>
      <trkpt lat="43.22258" lon="5.36143">
        <ele>271.8</ele>
        <time>2018-03-03T11:32:01Z</time>
      </trkpt>
      <trkpt lat="43.22257" lon="5.36137">
        <ele>270.8</ele>
        <time>2018-03-03T11:32:06Z</time>
      </trkpt>
      <trkpt lat="43.22255" lon="5.36129">
        <ele>269.2</ele>
        <time>2018-03-03T11:32:11Z</time>
      </trkpt>
      <trkpt lat="43.22259" lon="5.36122">
        <ele>265.2</ele>
        <time>2018-03-03T11:32:16Z</time>
      </trkpt>
      <trkpt lat="43.2226" lon="5.36117">
        <ele>265.8</ele>
        <time>2018-03-03T11:32:21Z</time>
      </trkpt>
      <trkpt lat="43.22256" lon="5.36114">
        <ele>269</ele>
        <time>2018-03-03T11:32:26Z</time>
      </trkpt>
      <trkpt lat="43.22253" lon="5.36112">
        <ele>267.8</ele>
        <time>2018-03-03T11:32:31Z</time>
      </trkpt>
      <trkpt lat="43.22251" lon="5.3611">
        <ele>265</ele>
        <time>2018-03-03T11:32:36Z</time>
      </trkpt>
      <trkpt lat="43.22249" lon="5.3611">
        <ele>263.6</ele>
        <time>2018-03-03T11:32:41Z</time>
      </trkpt>
      <trkpt lat="43.22249" lon="5.36109">
        <ele>263.8</ele>
        <time>2018-03-03T11:33:26Z</time>
      </trkpt>
      <trkpt lat="43.22249" lon="5.36108">
        <ele>262.2</ele>
        <time>2018-03-03T11:33:46Z</time>
      </trkpt>
      <trkpt lat="43.22251" lon="5.36101">
        <ele>260</ele>
        <time>2018-03-03T11:33:56Z</time>
      </trkpt>
      <trkpt lat="43.22252" lon="5.36093">
        <ele>260.6</ele>
        <time>2018-03-03T11:34:01Z</time>
      </trkpt>
      <trkpt lat="43.22253" lon="5.36091">
        <ele>259.2</ele>
        <time>2018-03-03T11:34:06Z</time>
      </trkpt>
      <trkpt lat="43.22255" lon="5.36095">
        <ele>260.8</ele>
        <time>2018-03-03T11:34:31Z</time>
      </trkpt>
      <trkpt lat="43.22256" lon="5.36099">
        <ele>260.6</ele>
        <time>2018-03-03T11:34:36Z</time>
      </trkpt>
      <trkpt lat="43.22256" lon="5.36106">
        <ele>261.4</ele>
        <time>2018-03-03T11:34:41Z</time>
      </trkpt>
      <trkpt lat="43.22258" lon="5.36111">
        <ele>256.4</ele>
        <time>2018-03-03T11:34:46Z</time>
      </trkpt>
      <trkpt lat="43.2226" lon="5.36113">
        <ele>257.2</ele>
        <time>2018-03-03T11:34:51Z</time>
      </trkpt>
      <trkpt lat="43.22262" lon="5.36116">
        <ele>262.2</ele>
        <time>2018-03-03T11:34:56Z</time>
      </trkpt>
      <trkpt lat="43.22263" lon="5.36117">
        <ele>263</ele>
        <time>2018-03-03T11:35:01Z</time>
      </trkpt>
      <trkpt lat="43.22267" lon="5.36119">
        <ele>261.6</ele>
        <time>2018-03-03T11:35:06Z</time>
      </trkpt>
      <trkpt lat="43.22269" lon="5.36118">
        <ele>259</ele>
        <time>2018-03-03T11:35:12Z</time>
      </trkpt>
      <trkpt lat="43.22271" lon="5.36112">
        <ele>259.4</ele>
        <time>2018-03-03T11:35:17Z</time>
      </trkpt>
      <trkpt lat="43.22272" lon="5.36111">
        <ele>260.6</ele>
        <time>2018-03-03T11:35:22Z</time>
      </trkpt>
      <trkpt lat="43.22273" lon="5.36111">
        <ele>260.4</ele>
        <time>2018-03-03T11:35:42Z</time>
      </trkpt>
      <trkpt lat="43.22275" lon="5.36108">
        <ele>262.2</ele>
        <time>2018-03-03T11:35:47Z</time>
      </trkpt>
      <trkpt lat="43.22277" lon="5.36106">
        <ele>263.6</ele>
        <time>2018-03-03T11:35:52Z</time>
      </trkpt>
      <trkpt lat="43.2228" lon="5.36102">
        <ele>263</ele>
        <time>2018-03-03T11:35:57Z</time>
      </trkpt>
      <trkpt lat="43.22282" lon="5.361">
        <ele>261.2</ele>
        <time>2018-03-03T11:36:02Z</time>
      </trkpt>
      <trkpt lat="43.22285" lon="5.36097">
        <ele>259.4</ele>
        <time>2018-03-03T11:36:07Z</time>
      </trkpt>
      <trkpt lat="43.22286" lon="5.36095">
        <ele>258.8</ele>
        <time>2018-03-03T11:36:12Z</time>
      </trkpt>
      <trkpt lat="43.22289" lon="5.3609">
        <ele>260</ele>
        <time>2018-03-03T11:36:17Z</time>
      </trkpt>
      <trkpt lat="43.22288" lon="5.36088">
        <ele>256.8</ele>
        <time>2018-03-03T11:36:27Z</time>
      </trkpt>
      <trkpt lat="43.22285" lon="5.36088">
        <ele>255.6</ele>
        <time>2018-03-03T11:36:32Z</time>
      </trkpt>
      <trkpt lat="43.22278" lon="5.36087">
        <ele>252.6</ele>
        <time>2018-03-03T11:36:37Z</time>
      </trkpt>
      <trkpt lat="43.22273" lon="5.36084">
        <ele>254.8</ele>
        <time>2018-03-03T11:36:42Z</time>
      </trkpt>
      <trkpt lat="43.22273" lon="5.36079">
        <ele>253.2</ele>
        <time>2018-03-03T11:36:47Z</time>
      </trkpt>
      <trkpt lat="43.22277" lon="5.36074">
        <ele>251.8</ele>
        <time>2018-03-03T11:36:52Z</time>
      </trkpt>
      <trkpt lat="43.22281" lon="5.36068">
        <ele>250.4</ele>
        <time>2018-03-03T11:36:57Z</time>
      </trkpt>
      <trkpt lat="43.22284" lon="5.36063">
        <ele>252</ele>
        <time>2018-03-03T11:37:02Z</time>
      </trkpt>
      <trkpt lat="43.22287" lon="5.36057">
        <ele>246.6</ele>
        <time>2018-03-03T11:37:07Z</time>
      </trkpt>
      <trkpt lat="43.2229" lon="5.3605">
        <ele>244.8</ele>
        <time>2018-03-03T11:37:12Z</time>
      </trkpt>
      <trkpt lat="43.2229" lon="5.36044">
        <ele>247.6</ele>
        <time>2018-03-03T11:37:17Z</time>
      </trkpt>
      <trkpt lat="43.22288" lon="5.36033">
        <ele>242.8</ele>
        <time>2018-03-03T11:37:27Z</time>
      </trkpt>
      <trkpt lat="43.2229" lon="5.36025">
        <ele>243.6</ele>
        <time>2018-03-03T11:37:32Z</time>
      </trkpt>
      <trkpt lat="43.22291" lon="5.36019">
        <ele>242.6</ele>
        <time>2018-03-03T11:37:37Z</time>
      </trkpt>
      <trkpt lat="43.22291" lon="5.36014">
        <ele>239.2</ele>
        <time>2018-03-03T11:37:42Z</time>
      </trkpt>
      <trkpt lat="43.22291" lon="5.36009">
        <ele>237.6</ele>
        <time>2018-03-03T11:37:47Z</time>
      </trkpt>
      <trkpt lat="43.22293" lon="5.36005">
        <ele>235.2</ele>
        <time>2018-03-03T11:37:52Z</time>
      </trkpt>
      <trkpt lat="43.22293" lon="5.36">
        <ele>234.8</ele>
        <time>2018-03-03T11:37:57Z</time>
      </trkpt>
      <trkpt lat="43.22293" lon="5.35997">
        <ele>233.6</ele>
        <time>2018-03-03T11:38:02Z</time>
      </trkpt>
      <trkpt lat="43.22295" lon="5.35994">
        <ele>232</ele>
        <time>2018-03-03T11:38:07Z</time>
      </trkpt>
      <trkpt lat="43.22295" lon="5.35989">
        <ele>232.2</ele>
        <time>2018-03-03T11:38:12Z</time>
      </trkpt>
      <trkpt lat="43.22293" lon="5.35982">
        <ele>228.4</ele>
        <time>2018-03-03T11:38:17Z</time>
      </trkpt>
      <trkpt lat="43.22294" lon="5.35975">
        <ele>225.2</ele>
        <time>2018-03-03T11:38:22Z</time>
      </trkpt>
      <trkpt lat="43.22297" lon="5.35968">
        <ele>226.8</ele>
        <time>2018-03-03T11:38:27Z</time>
      </trkpt>
      <trkpt lat="43.22296" lon="5.35962">
        <ele>224</ele>
        <time>2018-03-03T11:38:32Z</time>
      </trkpt>
      <trkpt lat="43.22295" lon="5.35955">
        <ele>223.8</ele>
        <time>2018-03-03T11:38:37Z</time>
      </trkpt>
      <trkpt lat="43.22296" lon="5.35951">
        <ele>223.2</ele>
        <time>2018-03-03T11:38:42Z</time>
      </trkpt>
      <trkpt lat="43.22297" lon="5.35947">
        <ele>219.6</ele>
        <time>2018-03-03T11:38:47Z</time>
      </trkpt>
      <trkpt lat="43.22297" lon="5.35942">
        <ele>220.2</ele>
        <time>2018-03-03T11:38:52Z</time>
      </trkpt>
      <trkpt lat="43.22297" lon="5.35936">
        <ele>219.8</ele>
        <time>2018-03-03T11:38:57Z</time>
      </trkpt>
      <trkpt lat="43.22299" lon="5.35931">
        <ele>217.4</ele>
        <time>2018-03-03T11:39:02Z</time>
      </trkpt>
      <trkpt lat="43.22301" lon="5.35925">
        <ele>217</ele>
        <time>2018-03-03T11:39:07Z</time>
      </trkpt>
      <trkpt lat="43.22301" lon="5.3592">
        <ele>212</ele>
        <time>2018-03-03T11:39:12Z</time>
      </trkpt>
      <trkpt lat="43.22304" lon="5.35915">
        <ele>212.2</ele>
        <time>2018-03-03T11:39:17Z</time>
      </trkpt>
      <trkpt lat="43.22305" lon="5.35907">
        <ele>211.2</ele>
        <time>2018-03-03T11:39:22Z</time>
      </trkpt>
      <trkpt lat="43.22305" lon="5.35902">
        <ele>209.8</ele>
        <time>2018-03-03T11:39:27Z</time>
      </trkpt>
      <trkpt lat="43.22307" lon="5.359">
        <ele>207.8</ele>
        <time>2018-03-03T11:39:32Z</time>
      </trkpt>
      <trkpt lat="43.22308" lon="5.35895">
        <ele>205.6</ele>
        <time>2018-03-03T11:39:37Z</time>
      </trkpt>
      <trkpt lat="43.22309" lon="5.3589">
        <ele>204.8</ele>
        <time>2018-03-03T11:39:42Z</time>
      </trkpt>
      <trkpt lat="43.22311" lon="5.35885">
        <ele>201.6</ele>
        <time>2018-03-03T11:39:47Z</time>
      </trkpt>
      <trkpt lat="43.22313" lon="5.35881">
        <ele>201.4</ele>
        <time>2018-03-03T11:39:52Z</time>
      </trkpt>
      <trkpt lat="43.22316" lon="5.35878">
        <ele>197.4</ele>
        <time>2018-03-03T11:39:57Z</time>
      </trkpt>
      <trkpt lat="43.22321" lon="5.35875">
        <ele>196.4</ele>
        <time>2018-03-03T11:40:03Z</time>
      </trkpt>
      <trkpt lat="43.22323" lon="5.35873">
        <ele>197.2</ele>
        <time>2018-03-03T11:40:08Z</time>
      </trkpt>
      <trkpt lat="43.22323" lon="5.35873">
        <ele>195.8</ele>
        <time>2018-03-03T11:41:03Z</time>
      </trkpt>
      <trkpt lat="43.22325" lon="5.35872">
        <ele>195</ele>
        <time>2018-03-03T11:41:08Z</time>
      </trkpt>
      <trkpt lat="43.22329" lon="5.35873">
        <ele>194.2</ele>
        <time>2018-03-03T11:41:13Z</time>
      </trkpt>
      <trkpt lat="43.22333" lon="5.35871">
        <ele>190.4</ele>
        <time>2018-03-03T11:41:18Z</time>
      </trkpt>
      <trkpt lat="43.22335" lon="5.35866">
        <ele>190.6</ele>
        <time>2018-03-03T11:41:23Z</time>
      </trkpt>
      <trkpt lat="43.22337" lon="5.35862">
        <ele>188.6</ele>
        <time>2018-03-03T11:41:28Z</time>
      </trkpt>
      <trkpt lat="43.22338" lon="5.3586">
        <ele>188.4</ele>
        <time>2018-03-03T11:41:33Z</time>
      </trkpt>
      <trkpt lat="43.22339" lon="5.35857">
        <ele>188.4</ele>
        <time>2018-03-03T11:41:38Z</time>
      </trkpt>
      <trkpt lat="43.22339" lon="5.35854">
        <ele>186.6</ele>
        <time>2018-03-03T11:41:43Z</time>
      </trkpt>
      <trkpt lat="43.22338" lon="5.35851">
        <ele>186.4</ele>
        <time>2018-03-03T11:41:48Z</time>
      </trkpt>
      <trkpt lat="43.22337" lon="5.35847">
        <ele>185.6</ele>
        <time>2018-03-03T11:41:53Z</time>
      </trkpt>
      <trkpt lat="43.22339" lon="5.3584">
        <ele>187.8</ele>
        <time>2018-03-03T11:41:58Z</time>
      </trkpt>
      <trkpt lat="43.22339" lon="5.35835">
        <ele>186.8</ele>
        <time>2018-03-03T11:42:03Z</time>
      </trkpt>
      <trkpt lat="43.2234" lon="5.35832">
        <ele>187.6</ele>
        <time>2018-03-03T11:42:08Z</time>
      </trkpt>
      <trkpt lat="43.2234" lon="5.35825">
        <ele>186.8</ele>
        <time>2018-03-03T11:42:13Z</time>
      </trkpt>
      <trkpt lat="43.22337" lon="5.35818">
        <ele>185.6</ele>
        <time>2018-03-03T11:42:18Z</time>
      </trkpt>
      <trkpt lat="43.22336" lon="5.35811">
        <ele>184</ele>
        <time>2018-03-03T11:42:23Z</time>
      </trkpt>
      <trkpt lat="43.22336" lon="5.35807">
        <ele>180.6</ele>
        <time>2018-03-03T11:42:28Z</time>
      </trkpt>
      <trkpt lat="43.22336" lon="5.35806">
        <ele>181.4</ele>
        <time>2018-03-03T11:42:38Z</time>
      </trkpt>
      <trkpt lat="43.22336" lon="5.35803">
        <ele>178.8</ele>
        <time>2018-03-03T11:42:43Z</time>
      </trkpt>
      <trkpt lat="43.22335" lon="5.35802">
        <ele>179</ele>
        <time>2018-03-03T11:42:48Z</time>
      </trkpt>
      <trkpt lat="43.22334" lon="5.35801">
        <ele>176</ele>
        <time>2018-03-03T11:42:53Z</time>
      </trkpt>
      <trkpt lat="43.22333" lon="5.35799">
        <ele>176.4</ele>
        <time>2018-03-03T11:43:08Z</time>
      </trkpt>
      <trkpt lat="43.22334" lon="5.35798">
        <ele>174</ele>
        <time>2018-03-03T11:43:48Z</time>
      </trkpt>
      <trkpt lat="43.22337" lon="5.35798">
        <ele>171.8</ele>
        <time>2018-03-03T11:43:53Z</time>
      </trkpt>
      <trkpt lat="43.22339" lon="5.35801">
        <ele>173.6</ele>
        <time>2018-03-03T11:43:58Z</time>
      </trkpt>
      <trkpt lat="43.2234" lon="5.35804">
        <ele>177.6</ele>
        <time>2018-03-03T11:44:03Z</time>
      </trkpt>
      <trkpt lat="43.22341" lon="5.35807">
        <ele>175.4</ele>
        <time>2018-03-03T11:44:08Z</time>
      </trkpt>
      <trkpt lat="43.22341" lon="5.35812">
        <ele>175.6</ele>
        <time>2018-03-03T11:44:13Z</time>
      </trkpt>
      <trkpt lat="43.22341" lon="5.35816">
        <ele>174.4</ele>
        <time>2018-03-03T11:44:18Z</time>
      </trkpt>
      <trkpt lat="43.22341" lon="5.35818">
        <ele>177.4</ele>
        <time>2018-03-03T11:44:23Z</time>
      </trkpt>
      <trkpt lat="43.22341" lon="5.3582">
        <ele>175.8</ele>
        <time>2018-03-03T11:44:28Z</time>
      </trkpt>
      <trkpt lat="43.22341" lon="5.35823">
        <ele>173.2</ele>
        <time>2018-03-03T11:44:33Z</time>
      </trkpt>
      <trkpt lat="43.22341" lon="5.35826">
        <ele>174.2</ele>
        <time>2018-03-03T11:44:38Z</time>
      </trkpt>
      <trkpt lat="43.22341" lon="5.3583">
        <ele>174.8</ele>
        <time>2018-03-03T11:44:43Z</time>
      </trkpt>
      <trkpt lat="43.22342" lon="5.35834">
        <ele>176.4</ele>
        <time>2018-03-03T11:44:48Z</time>
      </trkpt>
      <trkpt lat="43.22343" lon="5.35837">
        <ele>181.2</ele>
        <time>2018-03-03T11:44:53Z</time>
      </trkpt>
      <trkpt lat="43.22344" lon="5.35841">
        <ele>179</ele>
        <time>2018-03-03T11:44:58Z</time>
      </trkpt>
      <trkpt lat="43.22342" lon="5.35845">
        <ele>180.6</ele>
        <time>2018-03-03T11:45:03Z</time>
      </trkpt>
      <trkpt lat="43.22342" lon="5.35849">
        <ele>180.2</ele>
        <time>2018-03-03T11:45:08Z</time>
      </trkpt>
      <trkpt lat="43.22343" lon="5.35852">
        <ele>181.2</ele>
        <time>2018-03-03T11:45:13Z</time>
      </trkpt>
      <trkpt lat="43.22343" lon="5.35855">
        <ele>181.2</ele>
        <time>2018-03-03T11:45:18Z</time>
      </trkpt>
      <trkpt lat="43.22343" lon="5.35855">
        <ele>181.2</ele>
        <time>2018-03-03T11:45:23Z</time>
      </trkpt>
      <trkpt lat="43.22341" lon="5.3586">
        <ele>185.4</ele>
        <time>2018-03-03T11:45:28Z</time>
      </trkpt>
      <trkpt lat="43.22338" lon="5.35863">
        <ele>183.4</ele>
        <time>2018-03-03T11:45:33Z</time>
      </trkpt>
      <trkpt lat="43.22337" lon="5.35867">
        <ele>184.4</ele>
        <time>2018-03-03T11:45:38Z</time>
      </trkpt>
      <trkpt lat="43.22336" lon="5.3587">
        <ele>187.4</ele>
        <time>2018-03-03T11:45:43Z</time>
      </trkpt>
      <trkpt lat="43.22334" lon="5.35875">
        <ele>183.2</ele>
        <time>2018-03-03T11:46:08Z</time>
      </trkpt>
      <trkpt lat="43.22333" lon="5.35874">
        <ele>183.2</ele>
        <time>2018-03-03T11:46:13Z</time>
      </trkpt>
      <trkpt lat="43.22333" lon="5.35874">
        <ele>183.6</ele>
        <time>2018-03-03T11:46:33Z</time>
      </trkpt>
      <trkpt lat="43.22332" lon="5.35874">
        <ele>183.6</ele>
        <time>2018-03-03T11:46:38Z</time>
      </trkpt>
      <trkpt lat="43.22329" lon="5.35877">
        <ele>183.4</ele>
        <time>2018-03-03T11:46:43Z</time>
      </trkpt>
      <trkpt lat="43.22322" lon="5.3588">
        <ele>186.6</ele>
        <time>2018-03-03T11:46:48Z</time>
      </trkpt>
      <trkpt lat="43.2232" lon="5.35881">
        <ele>187.8</ele>
        <time>2018-03-03T11:46:53Z</time>
      </trkpt>
      <trkpt lat="43.22318" lon="5.35883">
        <ele>190.8</ele>
        <time>2018-03-03T11:46:58Z</time>
      </trkpt>
      <trkpt lat="43.22316" lon="5.35886">
        <ele>192.2</ele>
        <time>2018-03-03T11:47:03Z</time>
      </trkpt>
      <trkpt lat="43.22313" lon="5.35889">
        <ele>192.4</ele>
        <time>2018-03-03T11:47:08Z</time>
      </trkpt>
      <trkpt lat="43.22312" lon="5.35893">
        <ele>193.4</ele>
        <time>2018-03-03T11:47:13Z</time>
      </trkpt>
      <trkpt lat="43.22311" lon="5.35896">
        <ele>195</ele>
        <time>2018-03-03T11:47:18Z</time>
      </trkpt>
      <trkpt lat="43.22311" lon="5.35899">
        <ele>196.4</ele>
        <time>2018-03-03T11:47:23Z</time>
      </trkpt>
      <trkpt lat="43.22312" lon="5.35901">
        <ele>196.2</ele>
        <time>2018-03-03T11:47:28Z</time>
      </trkpt>
      <trkpt lat="43.22311" lon="5.35903">
        <ele>196.6</ele>
        <time>2018-03-03T11:47:33Z</time>
      </trkpt>
      <trkpt lat="43.2231" lon="5.35904">
        <ele>199.6</ele>
        <time>2018-03-03T11:47:38Z</time>
      </trkpt>
      <trkpt lat="43.22311" lon="5.35907">
        <ele>197.2</ele>
        <time>2018-03-03T11:47:43Z</time>
      </trkpt>
      <trkpt lat="43.2231" lon="5.3591">
        <ele>199</ele>
        <time>2018-03-03T11:47:48Z</time>
      </trkpt>
      <trkpt lat="43.22309" lon="5.35913">
        <ele>200.2</ele>
        <time>2018-03-03T11:47:53Z</time>
      </trkpt>
      <trkpt lat="43.22308" lon="5.35916">
        <ele>200</ele>
        <time>2018-03-03T11:47:58Z</time>
      </trkpt>
      <trkpt lat="43.22306" lon="5.35917">
        <ele>204.2</ele>
        <time>2018-03-03T11:48:03Z</time>
      </trkpt>
      <trkpt lat="43.22305" lon="5.35919">
        <ele>204.4</ele>
        <time>2018-03-03T11:48:08Z</time>
      </trkpt>
      <trkpt lat="43.22301" lon="5.35922">
        <ele>212.4</ele>
        <time>2018-03-03T11:48:28Z</time>
      </trkpt>
      <trkpt lat="43.22301" lon="5.35926">
        <ele>213.8</ele>
        <time>2018-03-03T11:48:33Z</time>
      </trkpt>
      <trkpt lat="43.22301" lon="5.35928">
        <ele>216.2</ele>
        <time>2018-03-03T11:48:38Z</time>
      </trkpt>
      <trkpt lat="43.223" lon="5.35931">
        <ele>214.6</ele>
        <time>2018-03-03T11:48:43Z</time>
      </trkpt>
      <trkpt lat="43.22301" lon="5.35935">
        <ele>216.8</ele>
        <time>2018-03-03T11:48:48Z</time>
      </trkpt>
      <trkpt lat="43.22301" lon="5.35937">
        <ele>217</ele>
        <time>2018-03-03T11:48:53Z</time>
      </trkpt>
      <trkpt lat="43.22303" lon="5.35939">
        <ele>216</ele>
        <time>2018-03-03T11:48:58Z</time>
      </trkpt>
      <trkpt lat="43.22302" lon="5.35945">
        <ele>217</ele>
        <time>2018-03-03T11:49:08Z</time>
      </trkpt>
      <trkpt lat="43.22302" lon="5.35948">
        <ele>219.4</ele>
        <time>2018-03-03T11:49:13Z</time>
      </trkpt>
      <trkpt lat="43.22301" lon="5.35954">
        <ele>217.4</ele>
        <time>2018-03-03T11:49:18Z</time>
      </trkpt>
      <trkpt lat="43.22303" lon="5.35958">
        <ele>217</ele>
        <time>2018-03-03T11:49:23Z</time>
      </trkpt>
      <trkpt lat="43.22304" lon="5.35963">
        <ele>216.4</ele>
        <time>2018-03-03T11:49:28Z</time>
      </trkpt>
      <trkpt lat="43.22305" lon="5.35968">
        <ele>215.2</ele>
        <time>2018-03-03T11:49:33Z</time>
      </trkpt>
      <trkpt lat="43.22303" lon="5.35974">
        <ele>217</ele>
        <time>2018-03-03T11:49:38Z</time>
      </trkpt>
      <trkpt lat="43.22301" lon="5.35979">
        <ele>217.4</ele>
        <time>2018-03-03T11:49:43Z</time>
      </trkpt>
      <trkpt lat="43.22301" lon="5.35982">
        <ele>217.8</ele>
        <time>2018-03-03T11:49:48Z</time>
      </trkpt>
      <trkpt lat="43.223" lon="5.35985">
        <ele>221.8</ele>
        <time>2018-03-03T11:49:53Z</time>
      </trkpt>
      <trkpt lat="43.223" lon="5.35989">
        <ele>216.2</ele>
        <time>2018-03-03T11:49:58Z</time>
      </trkpt>
      <trkpt lat="43.22296" lon="5.35995">
        <ele>218.2</ele>
        <time>2018-03-03T11:50:03Z</time>
      </trkpt>
      <trkpt lat="43.22294" lon="5.35999">
        <ele>217.4</ele>
        <time>2018-03-03T11:50:08Z</time>
      </trkpt>
      <trkpt lat="43.22291" lon="5.35999">
        <ele>219.2</ele>
        <time>2018-03-03T11:50:13Z</time>
      </trkpt>
      <trkpt lat="43.2229" lon="5.36001">
        <ele>218.4</ele>
        <time>2018-03-03T11:50:18Z</time>
      </trkpt>
      <trkpt lat="43.22291" lon="5.36003">
        <ele>217.6</ele>
        <time>2018-03-03T11:50:23Z</time>
      </trkpt>
      <trkpt lat="43.22291" lon="5.36007">
        <ele>224</ele>
        <time>2018-03-03T11:50:33Z</time>
      </trkpt>
      <trkpt lat="43.2229" lon="5.36009">
        <ele>224.4</ele>
        <time>2018-03-03T11:50:38Z</time>
      </trkpt>
      <trkpt lat="43.22291" lon="5.36012">
        <ele>228.2</ele>
        <time>2018-03-03T11:50:43Z</time>
      </trkpt>
      <trkpt lat="43.22291" lon="5.36014">
        <ele>230.8</ele>
        <time>2018-03-03T11:50:48Z</time>
      </trkpt>
      <trkpt lat="43.22291" lon="5.36016">
        <ele>231.2</ele>
        <time>2018-03-03T11:50:53Z</time>
      </trkpt>
      <trkpt lat="43.22292" lon="5.36019">
        <ele>232.2</ele>
        <time>2018-03-03T11:50:58Z</time>
      </trkpt>
      <trkpt lat="43.22294" lon="5.36022">
        <ele>232.4</ele>
        <time>2018-03-03T11:51:03Z</time>
      </trkpt>
      <trkpt lat="43.22295" lon="5.36027">
        <ele>234</ele>
        <time>2018-03-03T11:51:08Z</time>
      </trkpt>
      <trkpt lat="43.22294" lon="5.36032">
        <ele>232.8</ele>
        <time>2018-03-03T11:51:13Z</time>
      </trkpt>
      <trkpt lat="43.22294" lon="5.36035">
        <ele>233.4</ele>
        <time>2018-03-03T11:51:18Z</time>
      </trkpt>
      <trkpt lat="43.22293" lon="5.36038">
        <ele>229</ele>
        <time>2018-03-03T11:51:23Z</time>
      </trkpt>
      <trkpt lat="43.22293" lon="5.36041">
        <ele>229.2</ele>
        <time>2018-03-03T11:51:28Z</time>
      </trkpt>
      <trkpt lat="43.22294" lon="5.36044">
        <ele>228.2</ele>
        <time>2018-03-03T11:51:33Z</time>
      </trkpt>
      <trkpt lat="43.22297" lon="5.36054">
        <ele>239.4</ele>
        <time>2018-03-03T11:51:48Z</time>
      </trkpt>
      <trkpt lat="43.22297" lon="5.36057">
        <ele>238.8</ele>
        <time>2018-03-03T11:51:53Z</time>
      </trkpt>
      <trkpt lat="43.22294" lon="5.36062">
        <ele>242.2</ele>
        <time>2018-03-03T11:51:58Z</time>
      </trkpt>
      <trkpt lat="43.22288" lon="5.36069">
        <ele>241.8</ele>
        <time>2018-03-03T11:52:03Z</time>
      </trkpt>
      <trkpt lat="43.22282" lon="5.36075">
        <ele>241.6</ele>
        <time>2018-03-03T11:52:08Z</time>
      </trkpt>
      <trkpt lat="43.22277" lon="5.3608">
        <ele>243.4</ele>
        <time>2018-03-03T11:52:13Z</time>
      </trkpt>
      <trkpt lat="43.22273" lon="5.36084">
        <ele>243.8</ele>
        <time>2018-03-03T11:52:18Z</time>
      </trkpt>
      <trkpt lat="43.2227" lon="5.36088">
        <ele>244</ele>
        <time>2018-03-03T11:52:23Z</time>
      </trkpt>
      <trkpt lat="43.22268" lon="5.36091">
        <ele>246.4</ele>
        <time>2018-03-03T11:52:28Z</time>
      </trkpt>
      <trkpt lat="43.22266" lon="5.36095">
        <ele>245.8</ele>
        <time>2018-03-03T11:52:33Z</time>
      </trkpt>
      <trkpt lat="43.22266" lon="5.36099">
        <ele>248.8</ele>
        <time>2018-03-03T11:52:38Z</time>
      </trkpt>
      <trkpt lat="43.22253" lon="5.36101">
        <ele>252</ele>
        <time>2018-03-03T11:53:08Z</time>
      </trkpt>
      <trkpt lat="43.2225" lon="5.36099">
        <ele>251.8</ele>
        <time>2018-03-03T11:53:13Z</time>
      </trkpt>
      <trkpt lat="43.22249" lon="5.36099">
        <ele>251</ele>
        <time>2018-03-03T11:53:18Z</time>
      </trkpt>
      <trkpt lat="43.22248" lon="5.36098">
        <ele>251.2</ele>
        <time>2018-03-03T11:53:23Z</time>
      </trkpt>
      <trkpt lat="43.22249" lon="5.36097">
        <ele>252</ele>
        <time>2018-03-03T11:53:38Z</time>
      </trkpt>
      <trkpt lat="43.22249" lon="5.36097">
        <ele>252.2</ele>
        <time>2018-03-03T11:53:43Z</time>
      </trkpt>
      <trkpt lat="43.22251" lon="5.36092">
        <ele>251</ele>
        <time>2018-03-03T11:53:58Z</time>
      </trkpt>
      <trkpt lat="43.2225" lon="5.36092">
        <ele>252.4</ele>
        <time>2018-03-03T11:54:08Z</time>
      </trkpt>
      <trkpt lat="43.22249" lon="5.36089">
        <ele>248.2</ele>
        <time>2018-03-03T11:54:13Z</time>
      </trkpt>
      <trkpt lat="43.22249" lon="5.36085">
        <ele>255</ele>
        <time>2018-03-03T11:54:18Z</time>
      </trkpt>
      <trkpt lat="43.22247" lon="5.3608">
        <ele>249.6</ele>
        <time>2018-03-03T11:54:23Z</time>
      </trkpt>
      <trkpt lat="43.22245" lon="5.36073">
        <ele>252.4</ele>
        <time>2018-03-03T11:54:28Z</time>
      </trkpt>
      <trkpt lat="43.22244" lon="5.36067">
        <ele>252.6</ele>
        <time>2018-03-03T11:54:33Z</time>
      </trkpt>
      <trkpt lat="43.22242" lon="5.36063">
        <ele>252.4</ele>
        <time>2018-03-03T11:54:38Z</time>
      </trkpt>
      <trkpt lat="43.22241" lon="5.36056">
        <ele>255</ele>
        <time>2018-03-03T11:54:43Z</time>
      </trkpt>
      <trkpt lat="43.22239" lon="5.3605">
        <ele>253</ele>
        <time>2018-03-03T11:54:48Z</time>
      </trkpt>
      <trkpt lat="43.22238" lon="5.36044">
        <ele>251.6</ele>
        <time>2018-03-03T11:54:53Z</time>
      </trkpt>
      <trkpt lat="43.22238" lon="5.36043">
        <ele>252.2</ele>
        <time>2018-03-03T11:54:58Z</time>
      </trkpt>
      <trkpt lat="43.22237" lon="5.36041">
        <ele>252.8</ele>
        <time>2018-03-03T11:55:03Z</time>
      </trkpt>
      <trkpt lat="43.22237" lon="5.36041">
        <ele>253</ele>
        <time>2018-03-03T11:55:08Z</time>
      </trkpt>
      <trkpt lat="43.22235" lon="5.36038">
        <ele>254</ele>
        <time>2018-03-03T11:55:18Z</time>
      </trkpt>
      <trkpt lat="43.22236" lon="5.36036">
        <ele>252.6</ele>
        <time>2018-03-03T12:13:01Z</time>
      </trkpt>
      <trkpt lat="43.22235" lon="5.36033">
        <ele>252.6</ele>
        <time>2018-03-03T12:19:14Z</time>
      </trkpt>
      <trkpt lat="43.22234" lon="5.36028">
        <ele>253</ele>
        <time>2018-03-03T12:19:19Z</time>
      </trkpt>
      <trkpt lat="43.22233" lon="5.36024">
        <ele>252.8</ele>
        <time>2018-03-03T12:19:24Z</time>
      </trkpt>
      <trkpt lat="43.22232" lon="5.36017">
        <ele>253</ele>
        <time>2018-03-03T12:19:29Z</time>
      </trkpt>
      <trkpt lat="43.22234" lon="5.36012">
        <ele>251.2</ele>
        <time>2018-03-03T12:19:34Z</time>
      </trkpt>
      <trkpt lat="43.22233" lon="5.36008">
        <ele>253</ele>
        <time>2018-03-03T12:19:39Z</time>
      </trkpt>
      <trkpt lat="43.22233" lon="5.36005">
        <ele>253</ele>
        <time>2018-03-03T12:19:44Z</time>
      </trkpt>
      <trkpt lat="43.22232" lon="5.36001">
        <ele>254.8</ele>
        <time>2018-03-03T12:19:49Z</time>
      </trkpt>
      <trkpt lat="43.22231" lon="5.35998">
        <ele>256.6</ele>
        <time>2018-03-03T12:19:54Z</time>
      </trkpt>
      <trkpt lat="43.2223" lon="5.35995">
        <ele>256.2</ele>
        <time>2018-03-03T12:19:59Z</time>
      </trkpt>
      <trkpt lat="43.22228" lon="5.35991">
        <ele>255.2</ele>
        <time>2018-03-03T12:20:04Z</time>
      </trkpt>
      <trkpt lat="43.2223" lon="5.35989">
        <ele>257.2</ele>
        <time>2018-03-03T12:20:09Z</time>
      </trkpt>
      <trkpt lat="43.22229" lon="5.35986">
        <ele>257</ele>
        <time>2018-03-03T12:20:14Z</time>
      </trkpt>
      <trkpt lat="43.22228" lon="5.35984">
        <ele>256</ele>
        <time>2018-03-03T12:20:19Z</time>
      </trkpt>
      <trkpt lat="43.22227" lon="5.35981">
        <ele>256.2</ele>
        <time>2018-03-03T12:20:24Z</time>
      </trkpt>
      <trkpt lat="43.22225" lon="5.35977">
        <ele>255.4</ele>
        <time>2018-03-03T12:20:29Z</time>
      </trkpt>
      <trkpt lat="43.22224" lon="5.35972">
        <ele>255.6</ele>
        <time>2018-03-03T12:20:34Z</time>
      </trkpt>
      <trkpt lat="43.22224" lon="5.35968">
        <ele>258.6</ele>
        <time>2018-03-03T12:20:39Z</time>
      </trkpt>
      <trkpt lat="43.22224" lon="5.35963">
        <ele>259.8</ele>
        <time>2018-03-03T12:20:44Z</time>
      </trkpt>
      <trkpt lat="43.22224" lon="5.35959">
        <ele>260.6</ele>
        <time>2018-03-03T12:20:49Z</time>
      </trkpt>
      <trkpt lat="43.22223" lon="5.35954">
        <ele>261</ele>
        <time>2018-03-03T12:20:54Z</time>
      </trkpt>
      <trkpt lat="43.22223" lon="5.3595">
        <ele>262</ele>
        <time>2018-03-03T12:20:59Z</time>
      </trkpt>
      <trkpt lat="43.22222" lon="5.35947">
        <ele>261.4</ele>
        <time>2018-03-03T12:21:04Z</time>
      </trkpt>
      <trkpt lat="43.22222" lon="5.35943">
        <ele>262.4</ele>
        <time>2018-03-03T12:21:09Z</time>
      </trkpt>
      <trkpt lat="43.22221" lon="5.3594">
        <ele>262.2</ele>
        <time>2018-03-03T12:21:14Z</time>
      </trkpt>
      <trkpt lat="43.22219" lon="5.35937">
        <ele>266.2</ele>
        <time>2018-03-03T12:21:19Z</time>
      </trkpt>
      <trkpt lat="43.22219" lon="5.35934">
        <ele>268</ele>
        <time>2018-03-03T12:21:24Z</time>
      </trkpt>
      <trkpt lat="43.22218" lon="5.35932">
        <ele>268.4</ele>
        <time>2018-03-03T12:21:29Z</time>
      </trkpt>
      <trkpt lat="43.22216" lon="5.3593">
        <ele>265.6</ele>
        <time>2018-03-03T12:21:34Z</time>
      </trkpt>
      <trkpt lat="43.22213" lon="5.35928">
        <ele>268.8</ele>
        <time>2018-03-03T12:21:39Z</time>
      </trkpt>
      <trkpt lat="43.22212" lon="5.35928">
        <ele>267.4</ele>
        <time>2018-03-03T12:21:44Z</time>
      </trkpt>
      <trkpt lat="43.2221" lon="5.35924">
        <ele>268.8</ele>
        <time>2018-03-03T12:21:49Z</time>
      </trkpt>
      <trkpt lat="43.22207" lon="5.3592">
        <ele>267.4</ele>
        <time>2018-03-03T12:21:54Z</time>
      </trkpt>
      <trkpt lat="43.22207" lon="5.35915">
        <ele>268.6</ele>
        <time>2018-03-03T12:21:59Z</time>
      </trkpt>
      <trkpt lat="43.22208" lon="5.35912">
        <ele>267</ele>
        <time>2018-03-03T12:22:04Z</time>
      </trkpt>
      <trkpt lat="43.22208" lon="5.3591">
        <ele>268.6</ele>
        <time>2018-03-03T12:22:09Z</time>
      </trkpt>
      <trkpt lat="43.22208" lon="5.35909">
        <ele>268</ele>
        <time>2018-03-03T12:22:14Z</time>
      </trkpt>
      <trkpt lat="43.22208" lon="5.35907">
        <ele>267.2</ele>
        <time>2018-03-03T12:22:19Z</time>
      </trkpt>
      <trkpt lat="43.22209" lon="5.35903">
        <ele>268.4</ele>
        <time>2018-03-03T12:22:24Z</time>
      </trkpt>
      <trkpt lat="43.22208" lon="5.35902">
        <ele>271</ele>
        <time>2018-03-03T12:22:34Z</time>
      </trkpt>
      <trkpt lat="43.22207" lon="5.35897">
        <ele>268.2</ele>
        <time>2018-03-03T12:22:39Z</time>
      </trkpt>
      <trkpt lat="43.22206" lon="5.35893">
        <ele>271</ele>
        <time>2018-03-03T12:22:44Z</time>
      </trkpt>
      <trkpt lat="43.22205" lon="5.3589">
        <ele>273</ele>
        <time>2018-03-03T12:22:49Z</time>
      </trkpt>
      <trkpt lat="43.22204" lon="5.35889">
        <ele>272</ele>
        <time>2018-03-03T12:22:59Z</time>
      </trkpt>
      <trkpt lat="43.22204" lon="5.35886">
        <ele>273.2</ele>
        <time>2018-03-03T12:23:04Z</time>
      </trkpt>
      <trkpt lat="43.22203" lon="5.35885">
        <ele>271.6</ele>
        <time>2018-03-03T12:23:09Z</time>
      </trkpt>
      <trkpt lat="43.222" lon="5.35884">
        <ele>273.4</ele>
        <time>2018-03-03T12:23:14Z</time>
      </trkpt>
      <trkpt lat="43.22199" lon="5.35882">
        <ele>274</ele>
        <time>2018-03-03T12:23:19Z</time>
      </trkpt>
      <trkpt lat="43.22197" lon="5.35879">
        <ele>272.2</ele>
        <time>2018-03-03T12:23:24Z</time>
      </trkpt>
      <trkpt lat="43.22195" lon="5.35875">
        <ele>271.2</ele>
        <time>2018-03-03T12:23:29Z</time>
      </trkpt>
      <trkpt lat="43.22192" lon="5.35872">
        <ele>273.6</ele>
        <time>2018-03-03T12:23:34Z</time>
      </trkpt>
      <trkpt lat="43.22191" lon="5.35868">
        <ele>275.4</ele>
        <time>2018-03-03T12:23:39Z</time>
      </trkpt>
      <trkpt lat="43.2219" lon="5.35865">
        <ele>274.6</ele>
        <time>2018-03-03T12:23:44Z</time>
      </trkpt>
      <trkpt lat="43.2219" lon="5.35862">
        <ele>275.8</ele>
        <time>2018-03-03T12:23:49Z</time>
      </trkpt>
      <trkpt lat="43.22191" lon="5.35859">
        <ele>277.4</ele>
        <time>2018-03-03T12:23:54Z</time>
      </trkpt>
      <trkpt lat="43.22191" lon="5.35855">
        <ele>278</ele>
        <time>2018-03-03T12:23:59Z</time>
      </trkpt>
      <trkpt lat="43.22191" lon="5.35854">
        <ele>278.2</ele>
        <time>2018-03-03T12:24:09Z</time>
      </trkpt>
      <trkpt lat="43.22191" lon="5.35851">
        <ele>279</ele>
        <time>2018-03-03T12:24:15Z</time>
      </trkpt>
      <trkpt lat="43.22191" lon="5.35851">
        <ele>278.6</ele>
        <time>2018-03-03T12:24:30Z</time>
      </trkpt>
      <trkpt lat="43.22191" lon="5.35849">
        <ele>278</ele>
        <time>2018-03-03T12:24:35Z</time>
      </trkpt>
      <trkpt lat="43.22192" lon="5.35846">
        <ele>279.4</ele>
        <time>2018-03-03T12:25:10Z</time>
      </trkpt>
      <trkpt lat="43.22192" lon="5.35845">
        <ele>279.2</ele>
        <time>2018-03-03T12:25:35Z</time>
      </trkpt>
      <trkpt lat="43.22192" lon="5.35843">
        <ele>282.2</ele>
        <time>2018-03-03T12:25:40Z</time>
      </trkpt>
      <trkpt lat="43.22193" lon="5.3584">
        <ele>280.6</ele>
        <time>2018-03-03T12:25:45Z</time>
      </trkpt>
      <trkpt lat="43.22193" lon="5.35837">
        <ele>279</ele>
        <time>2018-03-03T12:25:50Z</time>
      </trkpt>
      <trkpt lat="43.22193" lon="5.35836">
        <ele>278.8</ele>
        <time>2018-03-03T12:26:00Z</time>
      </trkpt>
      <trkpt lat="43.22191" lon="5.35831">
        <ele>276.4</ele>
        <time>2018-03-03T12:26:05Z</time>
      </trkpt>
      <trkpt lat="43.22191" lon="5.35828">
        <ele>277.8</ele>
        <time>2018-03-03T12:26:10Z</time>
      </trkpt>
      <trkpt lat="43.22193" lon="5.35826">
        <ele>273.6</ele>
        <time>2018-03-03T12:26:20Z</time>
      </trkpt>
      <trkpt lat="43.22193" lon="5.35826">
        <ele>274.6</ele>
        <time>2018-03-03T12:26:25Z</time>
      </trkpt>
      <trkpt lat="43.22191" lon="5.35823">
        <ele>272.4</ele>
        <time>2018-03-03T12:26:30Z</time>
      </trkpt>
      <trkpt lat="43.22189" lon="5.35819">
        <ele>273.2</ele>
        <time>2018-03-03T12:26:35Z</time>
      </trkpt>
      <trkpt lat="43.22188" lon="5.3581">
        <ele>273.6</ele>
        <time>2018-03-03T12:26:50Z</time>
      </trkpt>
      <trkpt lat="43.22188" lon="5.35806">
        <ele>270.4</ele>
        <time>2018-03-03T12:26:55Z</time>
      </trkpt>
      <trkpt lat="43.22186" lon="5.35804">
        <ele>267.4</ele>
        <time>2018-03-03T12:27:00Z</time>
      </trkpt>
      <trkpt lat="43.22182" lon="5.35799">
        <ele>268.6</ele>
        <time>2018-03-03T12:27:05Z</time>
      </trkpt>
      <trkpt lat="43.22179" lon="5.35796">
        <ele>270</ele>
        <time>2018-03-03T12:27:10Z</time>
      </trkpt>
      <trkpt lat="43.22179" lon="5.35796">
        <ele>269.8</ele>
        <time>2018-03-03T12:27:15Z</time>
      </trkpt>
      <trkpt lat="43.22174" lon="5.35794">
        <ele>269.6</ele>
        <time>2018-03-03T12:27:20Z</time>
      </trkpt>
      <trkpt lat="43.22169" lon="5.35791">
        <ele>269.4</ele>
        <time>2018-03-03T12:27:25Z</time>
      </trkpt>
      <trkpt lat="43.22164" lon="5.35788">
        <ele>269.4</ele>
        <time>2018-03-03T12:27:30Z</time>
      </trkpt>
      <trkpt lat="43.22164" lon="5.35788">
        <ele>267.6</ele>
        <time>2018-03-03T12:27:35Z</time>
      </trkpt>
      <trkpt lat="43.22162" lon="5.35786">
        <ele>266.2</ele>
        <time>2018-03-03T12:27:40Z</time>
      </trkpt>
      <trkpt lat="43.22162" lon="5.35785">
        <ele>265.2</ele>
        <time>2018-03-03T12:27:45Z</time>
      </trkpt>
      <trkpt lat="43.22161" lon="5.35785">
        <ele>266</ele>
        <time>2018-03-03T12:27:50Z</time>
      </trkpt>
      <trkpt lat="43.22158" lon="5.35782">
        <ele>267.2</ele>
        <time>2018-03-03T12:29:46Z</time>
      </trkpt>
      <trkpt lat="43.22158" lon="5.35781">
        <ele>267.6</ele>
        <time>2018-03-03T12:29:51Z</time>
      </trkpt>
      <trkpt lat="43.22156" lon="5.3578">
        <ele>269.2</ele>
        <time>2018-03-03T12:29:56Z</time>
      </trkpt>
      <trkpt lat="43.22153" lon="5.35779">
        <ele>268</ele>
        <time>2018-03-03T12:30:01Z</time>
      </trkpt>
      <trkpt lat="43.22151" lon="5.35777">
        <ele>268</ele>
        <time>2018-03-03T12:30:06Z</time>
      </trkpt>
      <trkpt lat="43.22148" lon="5.35773">
        <ele>269.4</ele>
        <time>2018-03-03T12:30:11Z</time>
      </trkpt>
      <trkpt lat="43.22147" lon="5.35769">
        <ele>268</ele>
        <time>2018-03-03T12:30:16Z</time>
      </trkpt>
      <trkpt lat="43.22146" lon="5.35766">
        <ele>269.2</ele>
        <time>2018-03-03T12:30:21Z</time>
      </trkpt>
      <trkpt lat="43.22144" lon="5.3576">
        <ele>267.6</ele>
        <time>2018-03-03T12:30:26Z</time>
      </trkpt>
      <trkpt lat="43.22141" lon="5.35756">
        <ele>265.4</ele>
        <time>2018-03-03T12:30:31Z</time>
      </trkpt>
      <trkpt lat="43.22139" lon="5.35751">
        <ele>265.6</ele>
        <time>2018-03-03T12:30:36Z</time>
      </trkpt>
      <trkpt lat="43.22137" lon="5.35746">
        <ele>266.2</ele>
        <time>2018-03-03T12:30:41Z</time>
      </trkpt>
      <trkpt lat="43.22136" lon="5.35744">
        <ele>268.4</ele>
        <time>2018-03-03T12:30:46Z</time>
      </trkpt>
      <trkpt lat="43.22133" lon="5.35741">
        <ele>263.6</ele>
        <time>2018-03-03T12:30:51Z</time>
      </trkpt>
      <trkpt lat="43.22134" lon="5.35737">
        <ele>260.2</ele>
        <time>2018-03-03T12:30:56Z</time>
      </trkpt>
      <trkpt lat="43.22133" lon="5.35733">
        <ele>258.8</ele>
        <time>2018-03-03T12:31:01Z</time>
      </trkpt>
      <trkpt lat="43.22131" lon="5.3573">
        <ele>258.8</ele>
        <time>2018-03-03T12:31:06Z</time>
      </trkpt>
      <trkpt lat="43.22128" lon="5.35726">
        <ele>258.8</ele>
        <time>2018-03-03T12:31:11Z</time>
      </trkpt>
      <trkpt lat="43.22125" lon="5.35721">
        <ele>257</ele>
        <time>2018-03-03T12:31:16Z</time>
      </trkpt>
      <trkpt lat="43.22121" lon="5.35716">
        <ele>254.8</ele>
        <time>2018-03-03T12:31:21Z</time>
      </trkpt>
      <trkpt lat="43.22119" lon="5.35711">
        <ele>258</ele>
        <time>2018-03-03T12:31:26Z</time>
      </trkpt>
      <trkpt lat="43.22118" lon="5.35707">
        <ele>257</ele>
        <time>2018-03-03T12:31:31Z</time>
      </trkpt>
      <trkpt lat="43.22117" lon="5.35701">
        <ele>252.2</ele>
        <time>2018-03-03T12:31:36Z</time>
      </trkpt>
      <trkpt lat="43.22116" lon="5.35698">
        <ele>253</ele>
        <time>2018-03-03T12:31:41Z</time>
      </trkpt>
      <trkpt lat="43.22116" lon="5.35695">
        <ele>251.4</ele>
        <time>2018-03-03T12:31:46Z</time>
      </trkpt>
      <trkpt lat="43.22117" lon="5.35691">
        <ele>251.2</ele>
        <time>2018-03-03T12:31:51Z</time>
      </trkpt>
      <trkpt lat="43.22115" lon="5.35688">
        <ele>250.4</ele>
        <time>2018-03-03T12:31:56Z</time>
      </trkpt>
      <trkpt lat="43.22115" lon="5.35684">
        <ele>251</ele>
        <time>2018-03-03T12:32:01Z</time>
      </trkpt>
      <trkpt lat="43.22114" lon="5.3568">
        <ele>250</ele>
        <time>2018-03-03T12:32:06Z</time>
      </trkpt>
      <trkpt lat="43.22113" lon="5.35677">
        <ele>247</ele>
        <time>2018-03-03T12:32:11Z</time>
      </trkpt>
      <trkpt lat="43.22112" lon="5.35671">
        <ele>248.2</ele>
        <time>2018-03-03T12:32:16Z</time>
      </trkpt>
      <trkpt lat="43.22111" lon="5.35667">
        <ele>247</ele>
        <time>2018-03-03T12:32:21Z</time>
      </trkpt>
      <trkpt lat="43.22109" lon="5.35661">
        <ele>246.2</ele>
        <time>2018-03-03T12:32:26Z</time>
      </trkpt>
      <trkpt lat="43.22109" lon="5.35657">
        <ele>242.8</ele>
        <time>2018-03-03T12:32:31Z</time>
      </trkpt>
      <trkpt lat="43.22109" lon="5.35654">
        <ele>241.6</ele>
        <time>2018-03-03T12:32:36Z</time>
      </trkpt>
      <trkpt lat="43.22108" lon="5.35651">
        <ele>240.8</ele>
        <time>2018-03-03T12:32:41Z</time>
      </trkpt>
      <trkpt lat="43.22107" lon="5.35647">
        <ele>239.8</ele>
        <time>2018-03-03T12:32:46Z</time>
      </trkpt>
      <trkpt lat="43.22105" lon="5.35642">
        <ele>241.6</ele>
        <time>2018-03-03T12:32:51Z</time>
      </trkpt>
      <trkpt lat="43.22105" lon="5.35637">
        <ele>237.6</ele>
        <time>2018-03-03T12:32:56Z</time>
      </trkpt>
      <trkpt lat="43.22103" lon="5.35632">
        <ele>237.8</ele>
        <time>2018-03-03T12:33:01Z</time>
      </trkpt>
      <trkpt lat="43.22101" lon="5.35629">
        <ele>236.2</ele>
        <time>2018-03-03T12:33:06Z</time>
      </trkpt>
      <trkpt lat="43.22103" lon="5.35625">
        <ele>237.4</ele>
        <time>2018-03-03T12:33:16Z</time>
      </trkpt>
      <trkpt lat="43.22103" lon="5.35621">
        <ele>234.4</ele>
        <time>2018-03-03T12:33:21Z</time>
      </trkpt>
      <trkpt lat="43.22101" lon="5.35615">
        <ele>234.4</ele>
        <time>2018-03-03T12:33:26Z</time>
      </trkpt>
      <trkpt lat="43.22099" lon="5.35609">
        <ele>233</ele>
        <time>2018-03-03T12:33:31Z</time>
      </trkpt>
      <trkpt lat="43.22099" lon="5.35603">
        <ele>232.6</ele>
        <time>2018-03-03T12:33:36Z</time>
      </trkpt>
      <trkpt lat="43.22099" lon="5.35601">
        <ele>231.8</ele>
        <time>2018-03-03T12:33:41Z</time>
      </trkpt>
      <trkpt lat="43.221" lon="5.35595">
        <ele>227.6</ele>
        <time>2018-03-03T12:33:46Z</time>
      </trkpt>
      <trkpt lat="43.22101" lon="5.35587">
        <ele>228.4</ele>
        <time>2018-03-03T12:33:51Z</time>
      </trkpt>
      <trkpt lat="43.22101" lon="5.3558">
        <ele>226.8</ele>
        <time>2018-03-03T12:33:56Z</time>
      </trkpt>
      <trkpt lat="43.22101" lon="5.35576">
        <ele>226.2</ele>
        <time>2018-03-03T12:34:02Z</time>
      </trkpt>
      <trkpt lat="43.22103" lon="5.35572">
        <ele>224.2</ele>
        <time>2018-03-03T12:34:07Z</time>
      </trkpt>
      <trkpt lat="43.22104" lon="5.3557">
        <ele>225.2</ele>
        <time>2018-03-03T12:34:12Z</time>
      </trkpt>
      <trkpt lat="43.22105" lon="5.35565">
        <ele>225.2</ele>
        <time>2018-03-03T12:34:17Z</time>
      </trkpt>
      <trkpt lat="43.22107" lon="5.35561">
        <ele>222.8</ele>
        <time>2018-03-03T12:34:22Z</time>
      </trkpt>
      <trkpt lat="43.22107" lon="5.35561">
        <ele>224.4</ele>
        <time>2018-03-03T12:34:27Z</time>
      </trkpt>
      <trkpt lat="43.22109" lon="5.35561">
        <ele>223.6</ele>
        <time>2018-03-03T12:34:32Z</time>
      </trkpt>
      <trkpt lat="43.2211" lon="5.35559">
        <ele>220.6</ele>
        <time>2018-03-03T12:34:37Z</time>
      </trkpt>
      <trkpt lat="43.22111" lon="5.35557">
        <ele>221.4</ele>
        <time>2018-03-03T12:34:42Z</time>
      </trkpt>
      <trkpt lat="43.22111" lon="5.35555">
        <ele>221.8</ele>
        <time>2018-03-03T12:34:47Z</time>
      </trkpt>
      <trkpt lat="43.22111" lon="5.35554">
        <ele>222.8</ele>
        <time>2018-03-03T12:34:52Z</time>
      </trkpt>
      <trkpt lat="43.22111" lon="5.35554">
        <ele>220.8</ele>
        <time>2018-03-03T12:35:22Z</time>
      </trkpt>
      <trkpt lat="43.22111" lon="5.35552">
        <ele>219.2</ele>
        <time>2018-03-03T12:35:27Z</time>
      </trkpt>
      <trkpt lat="43.2211" lon="5.35546">
        <ele>218.4</ele>
        <time>2018-03-03T12:35:37Z</time>
      </trkpt>
      <trkpt lat="43.22109" lon="5.35544">
        <ele>220.2</ele>
        <time>2018-03-03T12:35:42Z</time>
      </trkpt>
      <trkpt lat="43.2211" lon="5.35543">
        <ele>219.6</ele>
        <time>2018-03-03T12:35:47Z</time>
      </trkpt>
      <trkpt lat="43.22111" lon="5.3554">
        <ele>218.6</ele>
        <time>2018-03-03T12:35:52Z</time>
      </trkpt>
      <trkpt lat="43.22111" lon="5.35539">
        <ele>218</ele>
        <time>2018-03-03T12:35:57Z</time>
      </trkpt>
      <trkpt lat="43.22112" lon="5.35536">
        <ele>215</ele>
        <time>2018-03-03T12:36:07Z</time>
      </trkpt>
      <trkpt lat="43.22113" lon="5.35535">
        <ele>214.8</ele>
        <time>2018-03-03T12:36:12Z</time>
      </trkpt>
      <trkpt lat="43.22115" lon="5.35535">
        <ele>215.6</ele>
        <time>2018-03-03T12:36:17Z</time>
      </trkpt>
      <trkpt lat="43.22116" lon="5.35534">
        <ele>215.4</ele>
        <time>2018-03-03T12:36:22Z</time>
      </trkpt>
      <trkpt lat="43.22117" lon="5.35532">
        <ele>213.2</ele>
        <time>2018-03-03T12:36:32Z</time>
      </trkpt>
      <trkpt lat="43.22118" lon="5.35529">
        <ele>214</ele>
        <time>2018-03-03T12:36:37Z</time>
      </trkpt>
      <trkpt lat="43.22119" lon="5.35529">
        <ele>213</ele>
        <time>2018-03-03T12:36:47Z</time>
      </trkpt>
      <trkpt lat="43.22118" lon="5.35527">
        <ele>210.2</ele>
        <time>2018-03-03T12:36:52Z</time>
      </trkpt>
      <trkpt lat="43.22117" lon="5.35522">
        <ele>211</ele>
        <time>2018-03-03T12:36:57Z</time>
      </trkpt>
      <trkpt lat="43.22117" lon="5.35521">
        <ele>209.4</ele>
        <time>2018-03-03T12:37:02Z</time>
      </trkpt>
      <trkpt lat="43.22117" lon="5.3552">
        <ele>209.4</ele>
        <time>2018-03-03T12:37:07Z</time>
      </trkpt>
      <trkpt lat="43.22118" lon="5.35518">
        <ele>208.6</ele>
        <time>2018-03-03T12:37:27Z</time>
      </trkpt>
      <trkpt lat="43.22116" lon="5.35517">
        <ele>207.6</ele>
        <time>2018-03-03T12:37:37Z</time>
      </trkpt>
      <trkpt lat="43.22113" lon="5.35514">
        <ele>204.2</ele>
        <time>2018-03-03T12:37:42Z</time>
      </trkpt>
      <trkpt lat="43.22111" lon="5.35511">
        <ele>202.8</ele>
        <time>2018-03-03T12:37:47Z</time>
      </trkpt>
      <trkpt lat="43.2211" lon="5.3551">
        <ele>207.2</ele>
        <time>2018-03-03T12:37:52Z</time>
      </trkpt>
      <trkpt lat="43.22105" lon="5.35506">
        <ele>199.2</ele>
        <time>2018-03-03T12:38:12Z</time>
      </trkpt>
      <trkpt lat="43.22104" lon="5.35505">
        <ele>199.2</ele>
        <time>2018-03-03T12:38:17Z</time>
      </trkpt>
      <trkpt lat="43.22102" lon="5.35501">
        <ele>197.8</ele>
        <time>2018-03-03T12:38:27Z</time>
      </trkpt>
      <trkpt lat="43.22099" lon="5.35501">
        <ele>194</ele>
        <time>2018-03-03T12:38:32Z</time>
      </trkpt>
      <trkpt lat="43.22098" lon="5.35501">
        <ele>194</ele>
        <time>2018-03-03T12:38:37Z</time>
      </trkpt>
      <trkpt lat="43.22097" lon="5.355">
        <ele>195.2</ele>
        <time>2018-03-03T12:38:43Z</time>
      </trkpt>
      <trkpt lat="43.22095" lon="5.35498">
        <ele>192</ele>
        <time>2018-03-03T12:38:48Z</time>
      </trkpt>
      <trkpt lat="43.22093" lon="5.35497">
        <ele>191.4</ele>
        <time>2018-03-03T12:38:53Z</time>
      </trkpt>
      <trkpt lat="43.22093" lon="5.35497">
        <ele>192.4</ele>
        <time>2018-03-03T12:39:03Z</time>
      </trkpt>
      <trkpt lat="43.2209" lon="5.35498">
        <ele>189</ele>
        <time>2018-03-03T12:39:08Z</time>
      </trkpt>
      <trkpt lat="43.22086" lon="5.35499">
        <ele>190.4</ele>
        <time>2018-03-03T12:39:13Z</time>
      </trkpt>
      <trkpt lat="43.22084" lon="5.35497">
        <ele>189.4</ele>
        <time>2018-03-03T12:39:18Z</time>
      </trkpt>
      <trkpt lat="43.2208" lon="5.35496">
        <ele>191</ele>
        <time>2018-03-03T12:39:23Z</time>
      </trkpt>
      <trkpt lat="43.2208" lon="5.35496">
        <ele>186.8</ele>
        <time>2018-03-03T12:39:28Z</time>
      </trkpt>
      <trkpt lat="43.22077" lon="5.35495">
        <ele>185.8</ele>
        <time>2018-03-03T12:39:33Z</time>
      </trkpt>
      <trkpt lat="43.22073" lon="5.35496">
        <ele>185.2</ele>
        <time>2018-03-03T12:39:38Z</time>
      </trkpt>
      <trkpt lat="43.2207" lon="5.35495">
        <ele>183.6</ele>
        <time>2018-03-03T12:39:43Z</time>
      </trkpt>
      <trkpt lat="43.2207" lon="5.35493">
        <ele>183.2</ele>
        <time>2018-03-03T12:39:48Z</time>
      </trkpt>
      <trkpt lat="43.2207" lon="5.35492">
        <ele>183.4</ele>
        <time>2018-03-03T12:39:53Z</time>
      </trkpt>
      <trkpt lat="43.22068" lon="5.3549">
        <ele>184.2</ele>
        <time>2018-03-03T12:39:58Z</time>
      </trkpt>
      <trkpt lat="43.22064" lon="5.35487">
        <ele>186</ele>
        <time>2018-03-03T12:40:03Z</time>
      </trkpt>
      <trkpt lat="43.2206" lon="5.35483">
        <ele>184.8</ele>
        <time>2018-03-03T12:40:08Z</time>
      </trkpt>
      <trkpt lat="43.22057" lon="5.35478">
        <ele>187.8</ele>
        <time>2018-03-03T12:40:13Z</time>
      </trkpt>
      <trkpt lat="43.22053" lon="5.35473">
        <ele>187.8</ele>
        <time>2018-03-03T12:40:18Z</time>
      </trkpt>
      <trkpt lat="43.22049" lon="5.35467">
        <ele>185.8</ele>
        <time>2018-03-03T12:40:23Z</time>
      </trkpt>
      <trkpt lat="43.22045" lon="5.35463">
        <ele>186.8</ele>
        <time>2018-03-03T12:40:28Z</time>
      </trkpt>
      <trkpt lat="43.2204" lon="5.35459">
        <ele>186.8</ele>
        <time>2018-03-03T12:40:33Z</time>
      </trkpt>
      <trkpt lat="43.22036" lon="5.35455">
        <ele>184.2</ele>
        <time>2018-03-03T12:40:38Z</time>
      </trkpt>
      <trkpt lat="43.22032" lon="5.3545">
        <ele>182</ele>
        <time>2018-03-03T12:40:43Z</time>
      </trkpt>
      <trkpt lat="43.22028" lon="5.35446">
        <ele>182.6</ele>
        <time>2018-03-03T12:40:48Z</time>
      </trkpt>
      <trkpt lat="43.22025" lon="5.35441">
        <ele>179</ele>
        <time>2018-03-03T12:40:53Z</time>
      </trkpt>
      <trkpt lat="43.22022" lon="5.35436">
        <ele>179.4</ele>
        <time>2018-03-03T12:40:58Z</time>
      </trkpt>
      <trkpt lat="43.22019" lon="5.35432">
        <ele>181</ele>
        <time>2018-03-03T12:41:03Z</time>
      </trkpt>
      <trkpt lat="43.22018" lon="5.35428">
        <ele>177.4</ele>
        <time>2018-03-03T12:41:08Z</time>
      </trkpt>
      <trkpt lat="43.22017" lon="5.35422">
        <ele>177</ele>
        <time>2018-03-03T12:41:13Z</time>
      </trkpt>
      <trkpt lat="43.22016" lon="5.35416">
        <ele>173.2</ele>
        <time>2018-03-03T12:41:18Z</time>
      </trkpt>
      <trkpt lat="43.22015" lon="5.3541">
        <ele>172.4</ele>
        <time>2018-03-03T12:41:23Z</time>
      </trkpt>
      <trkpt lat="43.22014" lon="5.35403">
        <ele>167.6</ele>
        <time>2018-03-03T12:41:28Z</time>
      </trkpt>
      <trkpt lat="43.22012" lon="5.35396">
        <ele>169.6</ele>
        <time>2018-03-03T12:41:33Z</time>
      </trkpt>
      <trkpt lat="43.2201" lon="5.3539">
        <ele>169</ele>
        <time>2018-03-03T12:41:38Z</time>
      </trkpt>
      <trkpt lat="43.2201" lon="5.35386">
        <ele>165</ele>
        <time>2018-03-03T12:41:43Z</time>
      </trkpt>
      <trkpt lat="43.22009" lon="5.35385">
        <ele>165</ele>
        <time>2018-03-03T12:41:48Z</time>
      </trkpt>
      <trkpt lat="43.22008" lon="5.35383">
        <ele>162</ele>
        <time>2018-03-03T12:41:53Z</time>
      </trkpt>
      <trkpt lat="43.22008" lon="5.35379">
        <ele>161.2</ele>
        <time>2018-03-03T12:41:58Z</time>
      </trkpt>
      <trkpt lat="43.22006" lon="5.35374">
        <ele>161</ele>
        <time>2018-03-03T12:42:03Z</time>
      </trkpt>
      <trkpt lat="43.22001" lon="5.35372">
        <ele>161.2</ele>
        <time>2018-03-03T12:42:08Z</time>
      </trkpt>
      <trkpt lat="43.22001" lon="5.35372">
        <ele>161.4</ele>
        <time>2018-03-03T12:42:13Z</time>
      </trkpt>
      <trkpt lat="43.21999" lon="5.35372">
        <ele>161.4</ele>
        <time>2018-03-03T12:42:18Z</time>
      </trkpt>
      <trkpt lat="43.21998" lon="5.35372">
        <ele>161.2</ele>
        <time>2018-03-03T12:42:53Z</time>
      </trkpt>
      <trkpt lat="43.21996" lon="5.3537">
        <ele>162</ele>
        <time>2018-03-03T12:42:58Z</time>
      </trkpt>
      <trkpt lat="43.21992" lon="5.35366">
        <ele>160.6</ele>
        <time>2018-03-03T12:43:03Z</time>
      </trkpt>
      <trkpt lat="43.2199" lon="5.35364">
        <ele>159.6</ele>
        <time>2018-03-03T12:43:08Z</time>
      </trkpt>
      <trkpt lat="43.21989" lon="5.35363">
        <ele>157.4</ele>
        <time>2018-03-03T12:43:18Z</time>
      </trkpt>
      <trkpt lat="43.2199" lon="5.35362">
        <ele>156.6</ele>
        <time>2018-03-03T12:43:23Z</time>
      </trkpt>
      <trkpt lat="43.21989" lon="5.35358">
        <ele>154.6</ele>
        <time>2018-03-03T12:43:28Z</time>
      </trkpt>
      <trkpt lat="43.21987" lon="5.35355">
        <ele>151.8</ele>
        <time>2018-03-03T12:43:33Z</time>
      </trkpt>
      <trkpt lat="43.21987" lon="5.35352">
        <ele>154.4</ele>
        <time>2018-03-03T12:43:38Z</time>
      </trkpt>
      <trkpt lat="43.21986" lon="5.35348">
        <ele>154.2</ele>
        <time>2018-03-03T12:43:43Z</time>
      </trkpt>
      <trkpt lat="43.21985" lon="5.35343">
        <ele>151.8</ele>
        <time>2018-03-03T12:43:48Z</time>
      </trkpt>
      <trkpt lat="43.21985" lon="5.3534">
        <ele>155.2</ele>
        <time>2018-03-03T12:43:53Z</time>
      </trkpt>
      <trkpt lat="43.21984" lon="5.35337">
        <ele>156</ele>
        <time>2018-03-03T12:43:58Z</time>
      </trkpt>
      <trkpt lat="43.21982" lon="5.35332">
        <ele>154</ele>
        <time>2018-03-03T12:44:03Z</time>
      </trkpt>
      <trkpt lat="43.21979" lon="5.35326">
        <ele>153.8</ele>
        <time>2018-03-03T12:44:08Z</time>
      </trkpt>
      <trkpt lat="43.21975" lon="5.35322">
        <ele>149.4</ele>
        <time>2018-03-03T12:44:13Z</time>
      </trkpt>
      <trkpt lat="43.21974" lon="5.35316">
        <ele>148.6</ele>
        <time>2018-03-03T12:44:18Z</time>
      </trkpt>
      <trkpt lat="43.21971" lon="5.3531">
        <ele>148.4</ele>
        <time>2018-03-03T12:44:23Z</time>
      </trkpt>
      <trkpt lat="43.21969" lon="5.35306">
        <ele>147.6</ele>
        <time>2018-03-03T12:44:28Z</time>
      </trkpt>
      <trkpt lat="43.21965" lon="5.35302">
        <ele>147.8</ele>
        <time>2018-03-03T12:44:33Z</time>
      </trkpt>
      <trkpt lat="43.21961" lon="5.35299">
        <ele>143.6</ele>
        <time>2018-03-03T12:44:38Z</time>
      </trkpt>
      <trkpt lat="43.21958" lon="5.35295">
        <ele>142.6</ele>
        <time>2018-03-03T12:44:43Z</time>
      </trkpt>
      <trkpt lat="43.21956" lon="5.3529">
        <ele>140.4</ele>
        <time>2018-03-03T12:44:48Z</time>
      </trkpt>
      <trkpt lat="43.21954" lon="5.35285">
        <ele>140</ele>
        <time>2018-03-03T12:44:53Z</time>
      </trkpt>
      <trkpt lat="43.21955" lon="5.35281">
        <ele>139.2</ele>
        <time>2018-03-03T12:44:58Z</time>
      </trkpt>
      <trkpt lat="43.21954" lon="5.35277">
        <ele>140.2</ele>
        <time>2018-03-03T12:45:03Z</time>
      </trkpt>
      <trkpt lat="43.21954" lon="5.35276">
        <ele>139.2</ele>
        <time>2018-03-03T12:45:08Z</time>
      </trkpt>
      <trkpt lat="43.21952" lon="5.35273">
        <ele>138.2</ele>
        <time>2018-03-03T12:45:13Z</time>
      </trkpt>
      <trkpt lat="43.2195" lon="5.3527">
        <ele>136.8</ele>
        <time>2018-03-03T12:45:18Z</time>
      </trkpt>
      <trkpt lat="43.21949" lon="5.35269">
        <ele>135</ele>
        <time>2018-03-03T12:45:23Z</time>
      </trkpt>
      <trkpt lat="43.21949" lon="5.35269">
        <ele>135.2</ele>
        <time>2018-03-03T12:45:33Z</time>
      </trkpt>
      <trkpt lat="43.21949" lon="5.35267">
        <ele>134.4</ele>
        <time>2018-03-03T12:45:38Z</time>
      </trkpt>
      <trkpt lat="43.21947" lon="5.35263">
        <ele>134.2</ele>
        <time>2018-03-03T12:45:43Z</time>
      </trkpt>
      <trkpt lat="43.21946" lon="5.35261">
        <ele>132</ele>
        <time>2018-03-03T12:45:48Z</time>
      </trkpt>
      <trkpt lat="43.21946" lon="5.35258">
        <ele>133</ele>
        <time>2018-03-03T12:45:53Z</time>
      </trkpt>
      <trkpt lat="43.21946" lon="5.35258">
        <ele>132.8</ele>
        <time>2018-03-03T12:46:03Z</time>
      </trkpt>
      <trkpt lat="43.21945" lon="5.35255">
        <ele>131.6</ele>
        <time>2018-03-03T12:46:08Z</time>
      </trkpt>
      <trkpt lat="43.21944" lon="5.35252">
        <ele>127.8</ele>
        <time>2018-03-03T12:46:13Z</time>
      </trkpt>
      <trkpt lat="43.21942" lon="5.35248">
        <ele>131.2</ele>
        <time>2018-03-03T12:46:18Z</time>
      </trkpt>
      <trkpt lat="43.2194" lon="5.35245">
        <ele>126</ele>
        <time>2018-03-03T12:46:23Z</time>
      </trkpt>
      <trkpt lat="43.21937" lon="5.3524">
        <ele>125.8</ele>
        <time>2018-03-03T12:46:28Z</time>
      </trkpt>
      <trkpt lat="43.21936" lon="5.35239">
        <ele>126.4</ele>
        <time>2018-03-03T12:46:33Z</time>
      </trkpt>
      <trkpt lat="43.21935" lon="5.35238">
        <ele>126</ele>
        <time>2018-03-03T12:47:23Z</time>
      </trkpt>
      <trkpt lat="43.21935" lon="5.35238">
        <ele>126</ele>
        <time>2018-03-03T12:47:33Z</time>
      </trkpt>
      <trkpt lat="43.21934" lon="5.35235">
        <ele>124.2</ele>
        <time>2018-03-03T12:47:38Z</time>
      </trkpt>
      <trkpt lat="43.21931" lon="5.3523">
        <ele>125.8</ele>
        <time>2018-03-03T12:47:43Z</time>
      </trkpt>
      <trkpt lat="43.21929" lon="5.35224">
        <ele>122.8</ele>
        <time>2018-03-03T12:47:48Z</time>
      </trkpt>
      <trkpt lat="43.21928" lon="5.35218">
        <ele>120.6</ele>
        <time>2018-03-03T12:47:53Z</time>
      </trkpt>
      <trkpt lat="43.21927" lon="5.35214">
        <ele>122.4</ele>
        <time>2018-03-03T12:47:58Z</time>
      </trkpt>
      <trkpt lat="43.21925" lon="5.35209">
        <ele>119.6</ele>
        <time>2018-03-03T12:48:03Z</time>
      </trkpt>
      <trkpt lat="43.21923" lon="5.35203">
        <ele>120.8</ele>
        <time>2018-03-03T12:48:08Z</time>
      </trkpt>
      <trkpt lat="43.2192" lon="5.35197">
        <ele>117.4</ele>
        <time>2018-03-03T12:48:13Z</time>
      </trkpt>
      <trkpt lat="43.21918" lon="5.35192">
        <ele>118.8</ele>
        <time>2018-03-03T12:48:18Z</time>
      </trkpt>
      <trkpt lat="43.21916" lon="5.35189">
        <ele>115.4</ele>
        <time>2018-03-03T12:48:23Z</time>
      </trkpt>
      <trkpt lat="43.21915" lon="5.35185">
        <ele>115.2</ele>
        <time>2018-03-03T12:48:28Z</time>
      </trkpt>
      <trkpt lat="43.21914" lon="5.35183">
        <ele>113.4</ele>
        <time>2018-03-03T12:48:33Z</time>
      </trkpt>
      <trkpt lat="43.2191" lon="5.3518">
        <ele>117</ele>
        <time>2018-03-03T12:48:38Z</time>
      </trkpt>
      <trkpt lat="43.21908" lon="5.35176">
        <ele>114</ele>
        <time>2018-03-03T12:48:43Z</time>
      </trkpt>
      <trkpt lat="43.21907" lon="5.35171">
        <ele>111.2</ele>
        <time>2018-03-03T12:48:48Z</time>
      </trkpt>
      <trkpt lat="43.21906" lon="5.35166">
        <ele>112.6</ele>
        <time>2018-03-03T12:48:53Z</time>
      </trkpt>
      <trkpt lat="43.21905" lon="5.3516">
        <ele>109.8</ele>
        <time>2018-03-03T12:48:58Z</time>
      </trkpt>
      <trkpt lat="43.21904" lon="5.35154">
        <ele>110.8</ele>
        <time>2018-03-03T12:49:03Z</time>
      </trkpt>
      <trkpt lat="43.21903" lon="5.35149">
        <ele>110</ele>
        <time>2018-03-03T12:49:08Z</time>
      </trkpt>
      <trkpt lat="43.21901" lon="5.35143">
        <ele>112</ele>
        <time>2018-03-03T12:49:13Z</time>
      </trkpt>
      <trkpt lat="43.21901" lon="5.35136">
        <ele>106.8</ele>
        <time>2018-03-03T12:49:18Z</time>
      </trkpt>
      <trkpt lat="43.219" lon="5.3513">
        <ele>106.2</ele>
        <time>2018-03-03T12:49:23Z</time>
      </trkpt>
      <trkpt lat="43.21899" lon="5.35124">
        <ele>106.2</ele>
        <time>2018-03-03T12:49:28Z</time>
      </trkpt>
      <trkpt lat="43.21897" lon="5.3512">
        <ele>107.8</ele>
        <time>2018-03-03T12:49:33Z</time>
      </trkpt>
      <trkpt lat="43.21897" lon="5.35116">
        <ele>105.2</ele>
        <time>2018-03-03T12:49:38Z</time>
      </trkpt>
      <trkpt lat="43.21896" lon="5.35115">
        <ele>104.8</ele>
        <time>2018-03-03T12:49:43Z</time>
      </trkpt>
      <trkpt lat="43.21896" lon="5.35115">
        <ele>104</ele>
        <time>2018-03-03T12:49:53Z</time>
      </trkpt>
      <trkpt lat="43.21896" lon="5.35112">
        <ele>104</ele>
        <time>2018-03-03T12:49:58Z</time>
      </trkpt>
      <trkpt lat="43.21896" lon="5.35111">
        <ele>103.4</ele>
        <time>2018-03-03T12:50:03Z</time>
      </trkpt>
      <trkpt lat="43.21895" lon="5.35106">
        <ele>102.2</ele>
        <time>2018-03-03T12:50:08Z</time>
      </trkpt>
      <trkpt lat="43.21895" lon="5.35104">
        <ele>102.8</ele>
        <time>2018-03-03T12:50:13Z</time>
      </trkpt>
      <trkpt lat="43.21895" lon="5.351">
        <ele>101.4</ele>
        <time>2018-03-03T12:50:18Z</time>
      </trkpt>
      <trkpt lat="43.21895" lon="5.35096">
        <ele>98.4</ele>
        <time>2018-03-03T12:50:24Z</time>
      </trkpt>
      <trkpt lat="43.21895" lon="5.35091">
        <ele>97.6</ele>
        <time>2018-03-03T12:50:30Z</time>
      </trkpt>
      <trkpt lat="43.21894" lon="5.35087">
        <ele>96.4</ele>
        <time>2018-03-03T12:50:35Z</time>
      </trkpt>
      <trkpt lat="43.21892" lon="5.35083">
        <ele>95.8</ele>
        <time>2018-03-03T12:50:40Z</time>
      </trkpt>
      <trkpt lat="43.21891" lon="5.35081">
        <ele>94.2</ele>
        <time>2018-03-03T12:50:45Z</time>
      </trkpt>
      <trkpt lat="43.21889" lon="5.3508">
        <ele>95.2</ele>
        <time>2018-03-03T12:50:50Z</time>
      </trkpt>
      <trkpt lat="43.21888" lon="5.35077">
        <ele>93</ele>
        <time>2018-03-03T12:50:55Z</time>
      </trkpt>
      <trkpt lat="43.21887" lon="5.35073">
        <ele>95</ele>
        <time>2018-03-03T12:51:00Z</time>
      </trkpt>
      <trkpt lat="43.21886" lon="5.35072">
        <ele>93.8</ele>
        <time>2018-03-03T12:51:10Z</time>
      </trkpt>
      <trkpt lat="43.21886" lon="5.35072">
        <ele>93.4</ele>
        <time>2018-03-03T12:51:15Z</time>
      </trkpt>
      <trkpt lat="43.21886" lon="5.35069">
        <ele>92.2</ele>
        <time>2018-03-03T12:51:20Z</time>
      </trkpt>
      <trkpt lat="43.21885" lon="5.35063">
        <ele>89.8</ele>
        <time>2018-03-03T12:51:25Z</time>
      </trkpt>
      <trkpt lat="43.21884" lon="5.35058">
        <ele>90.8</ele>
        <time>2018-03-03T12:51:30Z</time>
      </trkpt>
      <trkpt lat="43.21883" lon="5.35055">
        <ele>92.6</ele>
        <time>2018-03-03T12:51:35Z</time>
      </trkpt>
      <trkpt lat="43.21884" lon="5.35054">
        <ele>91.8</ele>
        <time>2018-03-03T12:51:40Z</time>
      </trkpt>
      <trkpt lat="43.21886" lon="5.35051">
        <ele>91</ele>
        <time>2018-03-03T12:51:45Z</time>
      </trkpt>
      <trkpt lat="43.21889" lon="5.35047">
        <ele>90</ele>
        <time>2018-03-03T12:51:50Z</time>
      </trkpt>
      <trkpt lat="43.2189" lon="5.35047">
        <ele>90.8</ele>
        <time>2018-03-03T12:51:55Z</time>
      </trkpt>
      <trkpt lat="43.21891" lon="5.35047">
        <ele>91.2</ele>
        <time>2018-03-03T12:52:05Z</time>
      </trkpt>
      <trkpt lat="43.21893" lon="5.3505">
        <ele>90</ele>
        <time>2018-03-03T12:52:15Z</time>
      </trkpt>
      <trkpt lat="43.21894" lon="5.35049">
        <ele>88.4</ele>
        <time>2018-03-03T12:52:20Z</time>
      </trkpt>
      <trkpt lat="43.21894" lon="5.35049">
        <ele>88.8</ele>
        <time>2018-03-03T12:52:25Z</time>
      </trkpt>
      <trkpt lat="43.21896" lon="5.35045">
        <ele>89.8</ele>
        <time>2018-03-03T12:52:30Z</time>
      </trkpt>
      <trkpt lat="43.21895" lon="5.35039">
        <ele>87.4</ele>
        <time>2018-03-03T12:52:35Z</time>
      </trkpt>
      <trkpt lat="43.21894" lon="5.35034">
        <ele>84.4</ele>
        <time>2018-03-03T12:52:40Z</time>
      </trkpt>
      <trkpt lat="43.21894" lon="5.35031">
        <ele>84.6</ele>
        <time>2018-03-03T12:52:45Z</time>
      </trkpt>
      <trkpt lat="43.21893" lon="5.35026">
        <ele>82.8</ele>
        <time>2018-03-03T12:52:50Z</time>
      </trkpt>
      <trkpt lat="43.21891" lon="5.35023">
        <ele>81.4</ele>
        <time>2018-03-03T12:52:55Z</time>
      </trkpt>
      <trkpt lat="43.2189" lon="5.35022">
        <ele>79.8</ele>
        <time>2018-03-03T12:53:10Z</time>
      </trkpt>
      <trkpt lat="43.21889" lon="5.35021">
        <ele>79</ele>
        <time>2018-03-03T12:53:45Z</time>
      </trkpt>
      <trkpt lat="43.2189" lon="5.3502">
        <ele>78.6</ele>
        <time>2018-03-03T12:53:50Z</time>
      </trkpt>
      <trkpt lat="43.21892" lon="5.35019">
        <ele>76.6</ele>
        <time>2018-03-03T12:53:55Z</time>
      </trkpt>
      <trkpt lat="43.21892" lon="5.35019">
        <ele>76.8</ele>
        <time>2018-03-03T12:54:00Z</time>
      </trkpt>
      <trkpt lat="43.21893" lon="5.35019">
        <ele>75.4</ele>
        <time>2018-03-03T12:54:05Z</time>
      </trkpt>
      <trkpt lat="43.21894" lon="5.35019">
        <ele>76.6</ele>
        <time>2018-03-03T12:54:10Z</time>
      </trkpt>
      <trkpt lat="43.21896" lon="5.35019">
        <ele>75.6</ele>
        <time>2018-03-03T12:54:15Z</time>
      </trkpt>
      <trkpt lat="43.21896" lon="5.35018">
        <ele>74.4</ele>
        <time>2018-03-03T12:54:20Z</time>
      </trkpt>
      <trkpt lat="43.21896" lon="5.35015">
        <ele>75.8</ele>
        <time>2018-03-03T12:54:25Z</time>
      </trkpt>
      <trkpt lat="43.21896" lon="5.35013">
        <ele>76</ele>
        <time>2018-03-03T12:54:30Z</time>
      </trkpt>
      <trkpt lat="43.21896" lon="5.35012">
        <ele>75</ele>
        <time>2018-03-03T12:54:35Z</time>
      </trkpt>
      <trkpt lat="43.21897" lon="5.3501">
        <ele>74.8</ele>
        <time>2018-03-03T12:54:40Z</time>
      </trkpt>
      <trkpt lat="43.21897" lon="5.35007">
        <ele>73.2</ele>
        <time>2018-03-03T12:54:45Z</time>
      </trkpt>
      <trkpt lat="43.21898" lon="5.35003">
        <ele>73</ele>
        <time>2018-03-03T12:54:50Z</time>
      </trkpt>
      <trkpt lat="43.21899" lon="5.35001">
        <ele>71.4</ele>
        <time>2018-03-03T12:54:55Z</time>
      </trkpt>
      <trkpt lat="43.21899" lon="5.35001">
        <ele>72.6</ele>
        <time>2018-03-03T12:55:10Z</time>
      </trkpt>
      <trkpt lat="43.219" lon="5.35">
        <ele>73.8</ele>
        <time>2018-03-03T12:55:15Z</time>
      </trkpt>
      <trkpt lat="43.219" lon="5.34996">
        <ele>70.4</ele>
        <time>2018-03-03T12:55:20Z</time>
      </trkpt>
      <trkpt lat="43.21899" lon="5.34993">
        <ele>68.8</ele>
        <time>2018-03-03T12:55:25Z</time>
      </trkpt>
      <trkpt lat="43.219" lon="5.34992">
        <ele>68.2</ele>
        <time>2018-03-03T12:55:30Z</time>
      </trkpt>
      <trkpt lat="43.21901" lon="5.34989">
        <ele>68.4</ele>
        <time>2018-03-03T12:55:35Z</time>
      </trkpt>
      <trkpt lat="43.21901" lon="5.34987">
        <ele>68.4</ele>
        <time>2018-03-03T12:55:40Z</time>
      </trkpt>
      <trkpt lat="43.21902" lon="5.34984">
        <ele>68.4</ele>
        <time>2018-03-03T12:55:45Z</time>
      </trkpt>
      <trkpt lat="43.21902" lon="5.34984">
        <ele>67.8</ele>
        <time>2018-03-03T12:55:50Z</time>
      </trkpt>
      <trkpt lat="43.219" lon="5.34981">
        <ele>69.2</ele>
        <time>2018-03-03T12:55:55Z</time>
      </trkpt>
      <trkpt lat="43.21899" lon="5.34976">
        <ele>65.8</ele>
        <time>2018-03-03T12:56:00Z</time>
      </trkpt>
      <trkpt lat="43.21899" lon="5.34973">
        <ele>66.4</ele>
        <time>2018-03-03T12:56:05Z</time>
      </trkpt>
      <trkpt lat="43.21898" lon="5.34971">
        <ele>67.4</ele>
        <time>2018-03-03T12:56:10Z</time>
      </trkpt>
      <trkpt lat="43.21895" lon="5.34967">
        <ele>65.8</ele>
        <time>2018-03-03T12:56:15Z</time>
      </trkpt>
      <trkpt lat="43.21893" lon="5.34961">
        <ele>65.4</ele>
        <time>2018-03-03T12:56:20Z</time>
      </trkpt>
      <trkpt lat="43.2189" lon="5.34956">
        <ele>65</ele>
        <time>2018-03-03T12:56:25Z</time>
      </trkpt>
      <trkpt lat="43.21886" lon="5.3495">
        <ele>64.2</ele>
        <time>2018-03-03T12:56:30Z</time>
      </trkpt>
      <trkpt lat="43.21884" lon="5.34945">
        <ele>66</ele>
        <time>2018-03-03T12:56:35Z</time>
      </trkpt>
      <trkpt lat="43.2188" lon="5.34944">
        <ele>68.4</ele>
        <time>2018-03-03T12:56:40Z</time>
      </trkpt>
      <trkpt lat="43.21877" lon="5.34948">
        <ele>65.8</ele>
        <time>2018-03-03T12:56:45Z</time>
      </trkpt>
      <trkpt lat="43.21875" lon="5.3495">
        <ele>62.6</ele>
        <time>2018-03-03T12:56:50Z</time>
      </trkpt>
      <trkpt lat="43.21873" lon="5.34953">
        <ele>64.4</ele>
        <time>2018-03-03T12:56:55Z</time>
      </trkpt>
      <trkpt lat="43.21869" lon="5.34957">
        <ele>60.8</ele>
        <time>2018-03-03T12:57:00Z</time>
      </trkpt>
      <trkpt lat="43.21865" lon="5.34962">
        <ele>58</ele>
        <time>2018-03-03T12:57:05Z</time>
      </trkpt>
      <trkpt lat="43.21862" lon="5.34966">
        <ele>64.8</ele>
        <time>2018-03-03T12:57:10Z</time>
      </trkpt>
      <trkpt lat="43.21859" lon="5.34969">
        <ele>58.8</ele>
        <time>2018-03-03T12:57:15Z</time>
      </trkpt>
      <trkpt lat="43.21854" lon="5.34972">
        <ele>60</ele>
        <time>2018-03-03T12:57:20Z</time>
      </trkpt>
      <trkpt lat="43.21849" lon="5.34973">
        <ele>55.8</ele>
        <time>2018-03-03T12:57:25Z</time>
      </trkpt>
      <trkpt lat="43.21845" lon="5.34973">
        <ele>59.2</ele>
        <time>2018-03-03T12:57:30Z</time>
      </trkpt>
      <trkpt lat="43.21839" lon="5.34974">
        <ele>56.6</ele>
        <time>2018-03-03T12:57:35Z</time>
      </trkpt>
      <trkpt lat="43.21834" lon="5.34975">
        <ele>59.4</ele>
        <time>2018-03-03T12:57:40Z</time>
      </trkpt>
      <trkpt lat="43.21829" lon="5.34976">
        <ele>58.4</ele>
        <time>2018-03-03T12:57:45Z</time>
      </trkpt>
      <trkpt lat="43.21825" lon="5.34977">
        <ele>58</ele>
        <time>2018-03-03T12:57:50Z</time>
      </trkpt>
      <trkpt lat="43.21821" lon="5.3498">
        <ele>54.2</ele>
        <time>2018-03-03T12:57:55Z</time>
      </trkpt>
      <trkpt lat="43.21818" lon="5.34982">
        <ele>55.8</ele>
        <time>2018-03-03T12:58:00Z</time>
      </trkpt>
      <trkpt lat="43.21814" lon="5.34983">
        <ele>56.4</ele>
        <time>2018-03-03T12:58:05Z</time>
      </trkpt>
      <trkpt lat="43.21809" lon="5.34984">
        <ele>59.2</ele>
        <time>2018-03-03T12:58:10Z</time>
      </trkpt>
      <trkpt lat="43.21805" lon="5.34987">
        <ele>60.6</ele>
        <time>2018-03-03T12:58:15Z</time>
      </trkpt>
      <trkpt lat="43.21801" lon="5.34991">
        <ele>58.8</ele>
        <time>2018-03-03T12:58:20Z</time>
      </trkpt>
      <trkpt lat="43.21799" lon="5.34995">
        <ele>53.4</ele>
        <time>2018-03-03T12:58:25Z</time>
      </trkpt>
      <trkpt lat="43.218" lon="5.35">
        <ele>54.8</ele>
        <time>2018-03-03T12:58:30Z</time>
      </trkpt>
      <trkpt lat="43.21799" lon="5.35004">
        <ele>56</ele>
        <time>2018-03-03T12:58:35Z</time>
      </trkpt>
      <trkpt lat="43.21799" lon="5.35011">
        <ele>56.6</ele>
        <time>2018-03-03T12:58:40Z</time>
      </trkpt>
      <trkpt lat="43.21799" lon="5.35018">
        <ele>55.4</ele>
        <time>2018-03-03T12:58:45Z</time>
      </trkpt>
      <trkpt lat="43.21799" lon="5.35026">
        <ele>55.2</ele>
        <time>2018-03-03T12:58:50Z</time>
      </trkpt>
      <trkpt lat="43.21799" lon="5.35032">
        <ele>53.6</ele>
        <time>2018-03-03T12:58:55Z</time>
      </trkpt>
      <trkpt lat="43.21799" lon="5.35039">
        <ele>56</ele>
        <time>2018-03-03T12:59:00Z</time>
      </trkpt>
      <trkpt lat="43.218" lon="5.35044">
        <ele>57</ele>
        <time>2018-03-03T12:59:05Z</time>
      </trkpt>
      <trkpt lat="43.21802" lon="5.35047">
        <ele>55.4</ele>
        <time>2018-03-03T12:59:10Z</time>
      </trkpt>
      <trkpt lat="43.21803" lon="5.35052">
        <ele>59.6</ele>
        <time>2018-03-03T12:59:15Z</time>
      </trkpt>
      <trkpt lat="43.21805" lon="5.35057">
        <ele>57.4</ele>
        <time>2018-03-03T12:59:20Z</time>
      </trkpt>
      <trkpt lat="43.21807" lon="5.35063">
        <ele>59.2</ele>
        <time>2018-03-03T12:59:25Z</time>
      </trkpt>
      <trkpt lat="43.21807" lon="5.35069">
        <ele>57.2</ele>
        <time>2018-03-03T12:59:30Z</time>
      </trkpt>
      <trkpt lat="43.21807" lon="5.35076">
        <ele>59.4</ele>
        <time>2018-03-03T12:59:35Z</time>
      </trkpt>
      <trkpt lat="43.21806" lon="5.35082">
        <ele>55</ele>
        <time>2018-03-03T12:59:40Z</time>
      </trkpt>
      <trkpt lat="43.21807" lon="5.35089">
        <ele>57.6</ele>
        <time>2018-03-03T12:59:45Z</time>
      </trkpt>
      <trkpt lat="43.21808" lon="5.35094">
        <ele>59</ele>
        <time>2018-03-03T12:59:50Z</time>
      </trkpt>
      <trkpt lat="43.21807" lon="5.351">
        <ele>56</ele>
        <time>2018-03-03T12:59:55Z</time>
      </trkpt>
      <trkpt lat="43.21805" lon="5.35105">
        <ele>55</ele>
        <time>2018-03-03T13:00:00Z</time>
      </trkpt>
      <trkpt lat="43.21804" lon="5.35111">
        <ele>58.4</ele>
        <time>2018-03-03T13:00:05Z</time>
      </trkpt>
      <trkpt lat="43.21805" lon="5.35116">
        <ele>58.8</ele>
        <time>2018-03-03T13:00:10Z</time>
      </trkpt>
      <trkpt lat="43.21804" lon="5.35122">
        <ele>60.6</ele>
        <time>2018-03-03T13:00:15Z</time>
      </trkpt>
      <trkpt lat="43.21804" lon="5.35128">
        <ele>59</ele>
        <time>2018-03-03T13:00:20Z</time>
      </trkpt>
      <trkpt lat="43.21805" lon="5.35131">
        <ele>57</ele>
        <time>2018-03-03T13:00:25Z</time>
      </trkpt>
      <trkpt lat="43.21806" lon="5.35135">
        <ele>55.6</ele>
        <time>2018-03-03T13:00:30Z</time>
      </trkpt>
      <trkpt lat="43.21807" lon="5.35139">
        <ele>58.6</ele>
        <time>2018-03-03T13:00:35Z</time>
      </trkpt>
      <trkpt lat="43.21808" lon="5.35145">
        <ele>57.2</ele>
        <time>2018-03-03T13:00:40Z</time>
      </trkpt>
      <trkpt lat="43.21806" lon="5.35151">
        <ele>61.6</ele>
        <time>2018-03-03T13:00:45Z</time>
      </trkpt>
      <trkpt lat="43.21805" lon="5.35158">
        <ele>58</ele>
        <time>2018-03-03T13:00:50Z</time>
      </trkpt>
      <trkpt lat="43.21806" lon="5.35163">
        <ele>57.6</ele>
        <time>2018-03-03T13:00:55Z</time>
      </trkpt>
      <trkpt lat="43.21807" lon="5.35168">
        <ele>60.6</ele>
        <time>2018-03-03T13:01:00Z</time>
      </trkpt>
      <trkpt lat="43.21807" lon="5.35169">
        <ele>61.2</ele>
        <time>2018-03-03T13:01:05Z</time>
      </trkpt>
      <trkpt lat="43.2181" lon="5.35174">
        <ele>64.4</ele>
        <time>2018-03-03T13:01:10Z</time>
      </trkpt>
      <trkpt lat="43.21812" lon="5.35179">
        <ele>63.2</ele>
        <time>2018-03-03T13:01:15Z</time>
      </trkpt>
      <trkpt lat="43.21815" lon="5.35184">
        <ele>62.6</ele>
        <time>2018-03-03T13:01:20Z</time>
      </trkpt>
      <trkpt lat="43.21816" lon="5.3519">
        <ele>60.6</ele>
        <time>2018-03-03T13:01:25Z</time>
      </trkpt>
      <trkpt lat="43.21815" lon="5.35195">
        <ele>60.6</ele>
        <time>2018-03-03T13:01:30Z</time>
      </trkpt>
      <trkpt lat="43.21813" lon="5.35199">
        <ele>62.2</ele>
        <time>2018-03-03T13:01:35Z</time>
      </trkpt>
      <trkpt lat="43.21811" lon="5.35202">
        <ele>64.6</ele>
        <time>2018-03-03T13:01:40Z</time>
      </trkpt>
      <trkpt lat="43.21809" lon="5.35204">
        <ele>65.6</ele>
        <time>2018-03-03T13:01:45Z</time>
      </trkpt>
      <trkpt lat="43.21806" lon="5.35206">
        <ele>63.4</ele>
        <time>2018-03-03T13:01:50Z</time>
      </trkpt>
      <trkpt lat="43.21803" lon="5.35208">
        <ele>63.2</ele>
        <time>2018-03-03T13:01:55Z</time>
      </trkpt>
      <trkpt lat="43.21801" lon="5.35211">
        <ele>63.4</ele>
        <time>2018-03-03T13:02:00Z</time>
      </trkpt>
      <trkpt lat="43.21797" lon="5.35214">
        <ele>65.4</ele>
        <time>2018-03-03T13:02:05Z</time>
      </trkpt>
      <trkpt lat="43.21793" lon="5.35216">
        <ele>64.8</ele>
        <time>2018-03-03T13:02:10Z</time>
      </trkpt>
      <trkpt lat="43.21789" lon="5.35217">
        <ele>67.6</ele>
        <time>2018-03-03T13:02:15Z</time>
      </trkpt>
      <trkpt lat="43.21786" lon="5.35218">
        <ele>68.6</ele>
        <time>2018-03-03T13:02:20Z</time>
      </trkpt>
      <trkpt lat="43.21785" lon="5.35217">
        <ele>69.6</ele>
        <time>2018-03-03T13:02:25Z</time>
      </trkpt>
      <trkpt lat="43.21782" lon="5.35215">
        <ele>73.2</ele>
        <time>2018-03-03T13:02:30Z</time>
      </trkpt>
      <trkpt lat="43.21779" lon="5.35214">
        <ele>71.4</ele>
        <time>2018-03-03T13:02:35Z</time>
      </trkpt>
      <trkpt lat="43.21776" lon="5.35213">
        <ele>74.8</ele>
        <time>2018-03-03T13:02:40Z</time>
      </trkpt>
      <trkpt lat="43.21772" lon="5.35211">
        <ele>75</ele>
        <time>2018-03-03T13:02:45Z</time>
      </trkpt>
      <trkpt lat="43.21768" lon="5.3521">
        <ele>76</ele>
        <time>2018-03-03T13:02:50Z</time>
      </trkpt>
      <trkpt lat="43.21764" lon="5.35209">
        <ele>79.2</ele>
        <time>2018-03-03T13:02:55Z</time>
      </trkpt>
      <trkpt lat="43.2176" lon="5.35208">
        <ele>78</ele>
        <time>2018-03-03T13:03:00Z</time>
      </trkpt>
      <trkpt lat="43.21756" lon="5.35207">
        <ele>78.8</ele>
        <time>2018-03-03T13:03:05Z</time>
      </trkpt>
      <trkpt lat="43.21752" lon="5.35206">
        <ele>76.8</ele>
        <time>2018-03-03T13:03:10Z</time>
      </trkpt>
      <trkpt lat="43.21748" lon="5.35205">
        <ele>77.4</ele>
        <time>2018-03-03T13:03:15Z</time>
      </trkpt>
      <trkpt lat="43.21744" lon="5.35205">
        <ele>76.6</ele>
        <time>2018-03-03T13:03:20Z</time>
      </trkpt>
      <trkpt lat="43.21742" lon="5.35209">
        <ele>75.4</ele>
        <time>2018-03-03T13:03:25Z</time>
      </trkpt>
      <trkpt lat="43.21741" lon="5.35214">
        <ele>77.2</ele>
        <time>2018-03-03T13:03:30Z</time>
      </trkpt>
      <trkpt lat="43.2174" lon="5.35219">
        <ele>76.6</ele>
        <time>2018-03-03T13:03:35Z</time>
      </trkpt>
      <trkpt lat="43.2174" lon="5.35224">
        <ele>75.6</ele>
        <time>2018-03-03T13:03:40Z</time>
      </trkpt>
      <trkpt lat="43.21739" lon="5.35228">
        <ele>77</ele>
        <time>2018-03-03T13:03:45Z</time>
      </trkpt>
      <trkpt lat="43.21738" lon="5.35232">
        <ele>77</ele>
        <time>2018-03-03T13:03:50Z</time>
      </trkpt>
      <trkpt lat="43.21738" lon="5.35237">
        <ele>79.2</ele>
        <time>2018-03-03T13:03:55Z</time>
      </trkpt>
      <trkpt lat="43.21738" lon="5.35242">
        <ele>79</ele>
        <time>2018-03-03T13:04:00Z</time>
      </trkpt>
      <trkpt lat="43.21739" lon="5.35245">
        <ele>80.2</ele>
        <time>2018-03-03T13:04:05Z</time>
      </trkpt>
      <trkpt lat="43.2174" lon="5.35247">
        <ele>79.2</ele>
        <time>2018-03-03T13:04:10Z</time>
      </trkpt>
      <trkpt lat="43.2174" lon="5.35252">
        <ele>80.4</ele>
        <time>2018-03-03T13:04:15Z</time>
      </trkpt>
      <trkpt lat="43.21743" lon="5.35256">
        <ele>81.4</ele>
        <time>2018-03-03T13:04:20Z</time>
      </trkpt>
      <trkpt lat="43.21745" lon="5.35261">
        <ele>79.4</ele>
        <time>2018-03-03T13:04:25Z</time>
      </trkpt>
      <trkpt lat="43.2175" lon="5.35264">
        <ele>82</ele>
        <time>2018-03-03T13:04:30Z</time>
      </trkpt>
      <trkpt lat="43.21754" lon="5.35265">
        <ele>80</ele>
        <time>2018-03-03T13:04:35Z</time>
      </trkpt>
      <trkpt lat="43.21754" lon="5.35265">
        <ele>80.4</ele>
        <time>2018-03-03T13:04:45Z</time>
      </trkpt>
      <trkpt lat="43.21757" lon="5.35267">
        <ele>82</ele>
        <time>2018-03-03T13:04:50Z</time>
      </trkpt>
      <trkpt lat="43.21761" lon="5.3527">
        <ele>82.8</ele>
        <time>2018-03-03T13:04:55Z</time>
      </trkpt>
      <trkpt lat="43.21764" lon="5.35274">
        <ele>84.8</ele>
        <time>2018-03-03T13:05:00Z</time>
      </trkpt>
      <trkpt lat="43.21768" lon="5.35278">
        <ele>81.8</ele>
        <time>2018-03-03T13:05:05Z</time>
      </trkpt>
      <trkpt lat="43.2177" lon="5.35283">
        <ele>82</ele>
        <time>2018-03-03T13:05:10Z</time>
      </trkpt>
      <trkpt lat="43.21772" lon="5.35289">
        <ele>81</ele>
        <time>2018-03-03T13:05:15Z</time>
      </trkpt>
      <trkpt lat="43.21774" lon="5.35295">
        <ele>83.4</ele>
        <time>2018-03-03T13:05:20Z</time>
      </trkpt>
      <trkpt lat="43.21774" lon="5.35301">
        <ele>80.4</ele>
        <time>2018-03-03T13:05:25Z</time>
      </trkpt>
      <trkpt lat="43.21775" lon="5.35307">
        <ele>82.2</ele>
        <time>2018-03-03T13:05:30Z</time>
      </trkpt>
      <trkpt lat="43.21777" lon="5.35312">
        <ele>85.8</ele>
        <time>2018-03-03T13:05:35Z</time>
      </trkpt>
      <trkpt lat="43.21779" lon="5.35316">
        <ele>84.2</ele>
        <time>2018-03-03T13:05:40Z</time>
      </trkpt>
      <trkpt lat="43.2178" lon="5.3532">
        <ele>84.8</ele>
        <time>2018-03-03T13:05:45Z</time>
      </trkpt>
      <trkpt lat="43.2178" lon="5.35326">
        <ele>86.4</ele>
        <time>2018-03-03T13:05:51Z</time>
      </trkpt>
      <trkpt lat="43.21779" lon="5.35333">
        <ele>84.8</ele>
        <time>2018-03-03T13:05:56Z</time>
      </trkpt>
      <trkpt lat="43.21776" lon="5.35336">
        <ele>85</ele>
        <time>2018-03-03T13:06:01Z</time>
      </trkpt>
      <trkpt lat="43.21772" lon="5.35339">
        <ele>83</ele>
        <time>2018-03-03T13:06:06Z</time>
      </trkpt>
      <trkpt lat="43.21768" lon="5.35342">
        <ele>84.6</ele>
        <time>2018-03-03T13:06:11Z</time>
      </trkpt>
      <trkpt lat="43.21764" lon="5.35346">
        <ele>86.4</ele>
        <time>2018-03-03T13:06:16Z</time>
      </trkpt>
      <trkpt lat="43.2176" lon="5.35348">
        <ele>80</ele>
        <time>2018-03-03T13:06:21Z</time>
      </trkpt>
      <trkpt lat="43.21756" lon="5.35352">
        <ele>80.6</ele>
        <time>2018-03-03T13:06:26Z</time>
      </trkpt>
      <trkpt lat="43.21754" lon="5.35355">
        <ele>81.8</ele>
        <time>2018-03-03T13:06:31Z</time>
      </trkpt>
      <trkpt lat="43.21754" lon="5.35355">
        <ele>81.8</ele>
        <time>2018-03-03T13:06:36Z</time>
      </trkpt>
      <trkpt lat="43.21752" lon="5.35361">
        <ele>84.2</ele>
        <time>2018-03-03T13:06:51Z</time>
      </trkpt>
      <trkpt lat="43.21751" lon="5.35367">
        <ele>82.2</ele>
        <time>2018-03-03T13:06:56Z</time>
      </trkpt>
      <trkpt lat="43.21749" lon="5.35373">
        <ele>83</ele>
        <time>2018-03-03T13:07:01Z</time>
      </trkpt>
      <trkpt lat="43.21748" lon="5.35379">
        <ele>87</ele>
        <time>2018-03-03T13:07:06Z</time>
      </trkpt>
      <trkpt lat="43.21745" lon="5.35383">
        <ele>83</ele>
        <time>2018-03-03T13:07:11Z</time>
      </trkpt>
      <trkpt lat="43.21743" lon="5.35387">
        <ele>86</ele>
        <time>2018-03-03T13:07:16Z</time>
      </trkpt>
      <trkpt lat="43.2174" lon="5.35391">
        <ele>88.8</ele>
        <time>2018-03-03T13:07:21Z</time>
      </trkpt>
      <trkpt lat="43.21736" lon="5.35395">
        <ele>90.8</ele>
        <time>2018-03-03T13:07:26Z</time>
      </trkpt>
      <trkpt lat="43.21732" lon="5.354">
        <ele>90.8</ele>
        <time>2018-03-03T13:07:31Z</time>
      </trkpt>
      <trkpt lat="43.21728" lon="5.35404">
        <ele>88.2</ele>
        <time>2018-03-03T13:07:36Z</time>
      </trkpt>
      <trkpt lat="43.21724" lon="5.35404">
        <ele>85</ele>
        <time>2018-03-03T13:07:41Z</time>
      </trkpt>
      <trkpt lat="43.21722" lon="5.35405">
        <ele>84.8</ele>
        <time>2018-03-03T13:07:46Z</time>
      </trkpt>
      <trkpt lat="43.21722" lon="5.35406">
        <ele>85</ele>
        <time>2018-03-03T13:07:56Z</time>
      </trkpt>
      <trkpt lat="43.21721" lon="5.35406">
        <ele>85</ele>
        <time>2018-03-03T13:08:21Z</time>
      </trkpt>
      <trkpt lat="43.21719" lon="5.35407">
        <ele>82.4</ele>
        <time>2018-03-03T13:08:41Z</time>
      </trkpt>
      <trkpt lat="43.21718" lon="5.35409">
        <ele>82</ele>
        <time>2018-03-03T13:08:46Z</time>
      </trkpt>
      <trkpt lat="43.21716" lon="5.35411">
        <ele>82</ele>
        <time>2018-03-03T13:08:51Z</time>
      </trkpt>
      <trkpt lat="43.21715" lon="5.35414">
        <ele>83.4</ele>
        <time>2018-03-03T13:08:56Z</time>
      </trkpt>
      <trkpt lat="43.21713" lon="5.35418">
        <ele>82.2</ele>
        <time>2018-03-03T13:09:01Z</time>
      </trkpt>
      <trkpt lat="43.21711" lon="5.35419">
        <ele>80.8</ele>
        <time>2018-03-03T13:09:07Z</time>
      </trkpt>
      <trkpt lat="43.2171" lon="5.35421">
        <ele>81.2</ele>
        <time>2018-03-03T13:09:12Z</time>
      </trkpt>
      <trkpt lat="43.2171" lon="5.35421">
        <ele>83.8</ele>
        <time>2018-03-03T13:09:17Z</time>
      </trkpt>
      <trkpt lat="43.21707" lon="5.35421">
        <ele>84.8</ele>
        <time>2018-03-03T13:09:22Z</time>
      </trkpt>
      <trkpt lat="43.21705" lon="5.35421">
        <ele>82</ele>
        <time>2018-03-03T13:09:27Z</time>
      </trkpt>
      <trkpt lat="43.21705" lon="5.35422">
        <ele>81.8</ele>
        <time>2018-03-03T13:09:32Z</time>
      </trkpt>
      <trkpt lat="43.21702" lon="5.35423">
        <ele>78.8</ele>
        <time>2018-03-03T13:09:37Z</time>
      </trkpt>
      <trkpt lat="43.21699" lon="5.35425">
        <ele>80.2</ele>
        <time>2018-03-03T13:09:42Z</time>
      </trkpt>
      <trkpt lat="43.21697" lon="5.35427">
        <ele>80</ele>
        <time>2018-03-03T13:09:47Z</time>
      </trkpt>
      <trkpt lat="43.21697" lon="5.35427">
        <ele>79.8</ele>
        <time>2018-03-03T13:09:52Z</time>
      </trkpt>
      <trkpt lat="43.21696" lon="5.35428">
        <ele>79.8</ele>
        <time>2018-03-03T13:09:57Z</time>
      </trkpt>
      <trkpt lat="43.21695" lon="5.35427">
        <ele>79.8</ele>
        <time>2018-03-03T13:10:02Z</time>
      </trkpt>
      <trkpt lat="43.21692" lon="5.35427">
        <ele>75.4</ele>
        <time>2018-03-03T13:10:07Z</time>
      </trkpt>
      <trkpt lat="43.21688" lon="5.35425">
        <ele>76.4</ele>
        <time>2018-03-03T13:10:12Z</time>
      </trkpt>
      <trkpt lat="43.21686" lon="5.35424">
        <ele>76.6</ele>
        <time>2018-03-03T13:10:17Z</time>
      </trkpt>
      <trkpt lat="43.21685" lon="5.35424">
        <ele>76.6</ele>
        <time>2018-03-03T13:10:22Z</time>
      </trkpt>
      <trkpt lat="43.21683" lon="5.35424">
        <ele>76</ele>
        <time>2018-03-03T13:10:37Z</time>
      </trkpt>
      <trkpt lat="43.21681" lon="5.35424">
        <ele>75.2</ele>
        <time>2018-03-03T13:10:47Z</time>
      </trkpt>
      <trkpt lat="43.2168" lon="5.35424">
        <ele>78.2</ele>
        <time>2018-03-03T13:10:52Z</time>
      </trkpt>
      <trkpt lat="43.21678" lon="5.35424">
        <ele>77.8</ele>
        <time>2018-03-03T13:10:57Z</time>
      </trkpt>
      <trkpt lat="43.21675" lon="5.35424">
        <ele>78</ele>
        <time>2018-03-03T13:11:02Z</time>
      </trkpt>
      <trkpt lat="43.21673" lon="5.35423">
        <ele>75.2</ele>
        <time>2018-03-03T13:11:07Z</time>
      </trkpt>
      <trkpt lat="43.2167" lon="5.35421">
        <ele>76.6</ele>
        <time>2018-03-03T13:11:12Z</time>
      </trkpt>
      <trkpt lat="43.2167" lon="5.35421">
        <ele>75.6</ele>
        <time>2018-03-03T13:11:17Z</time>
      </trkpt>
      <trkpt lat="43.21668" lon="5.35418">
        <ele>70.4</ele>
        <time>2018-03-03T13:11:22Z</time>
      </trkpt>
      <trkpt lat="43.21667" lon="5.35415">
        <ele>65.6</ele>
        <time>2018-03-03T13:11:27Z</time>
      </trkpt>
      <trkpt lat="43.21664" lon="5.35416">
        <ele>67.4</ele>
        <time>2018-03-03T13:11:32Z</time>
      </trkpt>
      <trkpt lat="43.21661" lon="5.35417">
        <ele>66.6</ele>
        <time>2018-03-03T13:11:37Z</time>
      </trkpt>
      <trkpt lat="43.21657" lon="5.35417">
        <ele>69.2</ele>
        <time>2018-03-03T13:11:42Z</time>
      </trkpt>
      <trkpt lat="43.21655" lon="5.35414">
        <ele>65.4</ele>
        <time>2018-03-03T13:11:47Z</time>
      </trkpt>
      <trkpt lat="43.21655" lon="5.35413">
        <ele>66.8</ele>
        <time>2018-03-03T13:11:57Z</time>
      </trkpt>
      <trkpt lat="43.21655" lon="5.35411">
        <ele>66</ele>
        <time>2018-03-03T13:12:02Z</time>
      </trkpt>
      <trkpt lat="43.21653" lon="5.35408">
        <ele>68</ele>
        <time>2018-03-03T13:12:07Z</time>
      </trkpt>
      <trkpt lat="43.2165" lon="5.35404">
        <ele>66</ele>
        <time>2018-03-03T13:12:12Z</time>
      </trkpt>
      <trkpt lat="43.21649" lon="5.35401">
        <ele>66</ele>
        <time>2018-03-03T13:12:18Z</time>
      </trkpt>
      <trkpt lat="43.21648" lon="5.35398">
        <ele>66.6</ele>
        <time>2018-03-03T13:12:23Z</time>
      </trkpt>
      <trkpt lat="43.21647" lon="5.35395">
        <ele>66.8</ele>
        <time>2018-03-03T13:12:28Z</time>
      </trkpt>
      <trkpt lat="43.21647" lon="5.35395">
        <ele>66</ele>
        <time>2018-03-03T13:12:33Z</time>
      </trkpt>
      <trkpt lat="43.21645" lon="5.35392">
        <ele>66.6</ele>
        <time>2018-03-03T13:12:39Z</time>
      </trkpt>
      <trkpt lat="43.21644" lon="5.35387">
        <ele>66.4</ele>
        <time>2018-03-03T13:12:45Z</time>
      </trkpt>
      <trkpt lat="43.21641" lon="5.35385">
        <ele>66.2</ele>
        <time>2018-03-03T13:12:50Z</time>
      </trkpt>
      <trkpt lat="43.21639" lon="5.35382">
        <ele>67.8</ele>
        <time>2018-03-03T13:12:55Z</time>
      </trkpt>
      <trkpt lat="43.21636" lon="5.35379">
        <ele>65.6</ele>
        <time>2018-03-03T13:13:00Z</time>
      </trkpt>
      <trkpt lat="43.21633" lon="5.35377">
        <ele>64.8</ele>
        <time>2018-03-03T13:13:05Z</time>
      </trkpt>
      <trkpt lat="43.21631" lon="5.35376">
        <ele>64.2</ele>
        <time>2018-03-03T13:13:10Z</time>
      </trkpt>
      <trkpt lat="43.21631" lon="5.35374">
        <ele>64.4</ele>
        <time>2018-03-03T13:13:15Z</time>
      </trkpt>
      <trkpt lat="43.2163" lon="5.35374">
        <ele>66.8</ele>
        <time>2018-03-03T13:13:25Z</time>
      </trkpt>
      <trkpt lat="43.21628" lon="5.35374">
        <ele>66.8</ele>
        <time>2018-03-03T13:13:30Z</time>
      </trkpt>
      <trkpt lat="43.21626" lon="5.35373">
        <ele>66.2</ele>
        <time>2018-03-03T13:13:35Z</time>
      </trkpt>
      <trkpt lat="43.21622" lon="5.3537">
        <ele>64.8</ele>
        <time>2018-03-03T13:13:40Z</time>
      </trkpt>
      <trkpt lat="43.21619" lon="5.35369">
        <ele>66.2</ele>
        <time>2018-03-03T13:13:45Z</time>
      </trkpt>
      <trkpt lat="43.21617" lon="5.35367">
        <ele>66.2</ele>
        <time>2018-03-03T13:13:50Z</time>
      </trkpt>
      <trkpt lat="43.21615" lon="5.35366">
        <ele>66</ele>
        <time>2018-03-03T13:13:55Z</time>
      </trkpt>
      <trkpt lat="43.21611" lon="5.35366">
        <ele>66</ele>
        <time>2018-03-03T13:14:00Z</time>
      </trkpt>
      <trkpt lat="43.21608" lon="5.35366">
        <ele>63.8</ele>
        <time>2018-03-03T13:14:05Z</time>
      </trkpt>
      <trkpt lat="43.21605" lon="5.35365">
        <ele>61.8</ele>
        <time>2018-03-03T13:14:10Z</time>
      </trkpt>
      <trkpt lat="43.21602" lon="5.35365">
        <ele>64.4</ele>
        <time>2018-03-03T13:14:15Z</time>
      </trkpt>
      <trkpt lat="43.216" lon="5.35365">
        <ele>64</ele>
        <time>2018-03-03T13:14:20Z</time>
      </trkpt>
      <trkpt lat="43.21597" lon="5.35366">
        <ele>63.6</ele>
        <time>2018-03-03T13:14:25Z</time>
      </trkpt>
      <trkpt lat="43.21594" lon="5.35365">
        <ele>61.2</ele>
        <time>2018-03-03T13:14:30Z</time>
      </trkpt>
      <trkpt lat="43.21591" lon="5.35365">
        <ele>60.8</ele>
        <time>2018-03-03T13:14:35Z</time>
      </trkpt>
      <trkpt lat="43.21589" lon="5.35365">
        <ele>59.6</ele>
        <time>2018-03-03T13:14:40Z</time>
      </trkpt>
      <trkpt lat="43.21586" lon="5.35365">
        <ele>61.2</ele>
        <time>2018-03-03T13:14:45Z</time>
      </trkpt>
      <trkpt lat="43.21582" lon="5.35364">
        <ele>59.8</ele>
        <time>2018-03-03T13:14:50Z</time>
      </trkpt>
      <trkpt lat="43.21578" lon="5.35365">
        <ele>58.6</ele>
        <time>2018-03-03T13:14:55Z</time>
      </trkpt>
      <trkpt lat="43.21575" lon="5.35364">
        <ele>57.4</ele>
        <time>2018-03-03T13:15:00Z</time>
      </trkpt>
      <trkpt lat="43.21571" lon="5.35364">
        <ele>59</ele>
        <time>2018-03-03T13:15:05Z</time>
      </trkpt>
      <trkpt lat="43.21567" lon="5.35364">
        <ele>57.8</ele>
        <time>2018-03-03T13:15:10Z</time>
      </trkpt>
      <trkpt lat="43.21564" lon="5.35363">
        <ele>57.4</ele>
        <time>2018-03-03T13:15:15Z</time>
      </trkpt>
      <trkpt lat="43.2156" lon="5.35362">
        <ele>55.2</ele>
        <time>2018-03-03T13:15:20Z</time>
      </trkpt>
      <trkpt lat="43.21556" lon="5.35361">
        <ele>56.8</ele>
        <time>2018-03-03T13:15:25Z</time>
      </trkpt>
      <trkpt lat="43.21553" lon="5.35359">
        <ele>53.4</ele>
        <time>2018-03-03T13:15:30Z</time>
      </trkpt>
      <trkpt lat="43.21552" lon="5.35358">
        <ele>54.2</ele>
        <time>2018-03-03T13:15:45Z</time>
      </trkpt>
      <trkpt lat="43.21552" lon="5.3536">
        <ele>51.6</ele>
        <time>2018-03-03T13:15:50Z</time>
      </trkpt>
      <trkpt lat="43.21552" lon="5.35362">
        <ele>54.6</ele>
        <time>2018-03-03T13:15:55Z</time>
      </trkpt>
      <trkpt lat="43.21552" lon="5.35366">
        <ele>54.6</ele>
        <time>2018-03-03T13:16:00Z</time>
      </trkpt>
      <trkpt lat="43.21553" lon="5.35367">
        <ele>55.2</ele>
        <time>2018-03-03T13:16:05Z</time>
      </trkpt>
      <trkpt lat="43.21553" lon="5.35369">
        <ele>54.2</ele>
        <time>2018-03-03T13:16:10Z</time>
      </trkpt>
      <trkpt lat="43.21553" lon="5.35369">
        <ele>53.4</ele>
        <time>2018-03-03T13:16:15Z</time>
      </trkpt>
      <trkpt lat="43.21553" lon="5.35372">
        <ele>57.2</ele>
        <time>2018-03-03T13:16:20Z</time>
      </trkpt>
      <trkpt lat="43.21553" lon="5.35374">
        <ele>54</ele>
        <time>2018-03-03T13:16:25Z</time>
      </trkpt>
      <trkpt lat="43.21553" lon="5.35374">
        <ele>53.4</ele>
        <time>2018-03-03T13:16:30Z</time>
      </trkpt>
      <trkpt lat="43.21552" lon="5.35376">
        <ele>54.4</ele>
        <time>2018-03-03T13:16:35Z</time>
      </trkpt>
      <trkpt lat="43.21552" lon="5.35378">
        <ele>55</ele>
        <time>2018-03-03T13:16:40Z</time>
      </trkpt>
      <trkpt lat="43.21552" lon="5.35381">
        <ele>55.2</ele>
        <time>2018-03-03T13:16:45Z</time>
      </trkpt>
      <trkpt lat="43.21552" lon="5.35384">
        <ele>56.8</ele>
        <time>2018-03-03T13:16:50Z</time>
      </trkpt>
      <trkpt lat="43.21551" lon="5.35387">
        <ele>55.6</ele>
        <time>2018-03-03T13:17:00Z</time>
      </trkpt>
      <trkpt lat="43.21552" lon="5.35389">
        <ele>56.4</ele>
        <time>2018-03-03T13:17:05Z</time>
      </trkpt>
      <trkpt lat="43.21554" lon="5.35391">
        <ele>59.4</ele>
        <time>2018-03-03T13:17:10Z</time>
      </trkpt>
      <trkpt lat="43.21554" lon="5.35394">
        <ele>56.2</ele>
        <time>2018-03-03T13:17:20Z</time>
      </trkpt>
      <trkpt lat="43.21553" lon="5.35397">
        <ele>55</ele>
        <time>2018-03-03T13:17:25Z</time>
      </trkpt>
      <trkpt lat="43.21553" lon="5.35398">
        <ele>57.2</ele>
        <time>2018-03-03T13:17:30Z</time>
      </trkpt>
      <trkpt lat="43.21554" lon="5.354">
        <ele>61.4</ele>
        <time>2018-03-03T13:17:35Z</time>
      </trkpt>
      <trkpt lat="43.21554" lon="5.35401">
        <ele>64</ele>
        <time>2018-03-03T13:17:40Z</time>
      </trkpt>
      <trkpt lat="43.21554" lon="5.35402">
        <ele>63.4</ele>
        <time>2018-03-03T13:17:45Z</time>
      </trkpt>
      <trkpt lat="43.21555" lon="5.35404">
        <ele>63.6</ele>
        <time>2018-03-03T13:17:50Z</time>
      </trkpt>
      <trkpt lat="43.21555" lon="5.35406">
        <ele>66.2</ele>
        <time>2018-03-03T13:17:55Z</time>
      </trkpt>
      <trkpt lat="43.21555" lon="5.35409">
        <ele>59.8</ele>
        <time>2018-03-03T13:18:00Z</time>
      </trkpt>
      <trkpt lat="43.21553" lon="5.35412">
        <ele>64.4</ele>
        <time>2018-03-03T13:18:05Z</time>
      </trkpt>
      <trkpt lat="43.21551" lon="5.35415">
        <ele>62.8</ele>
        <time>2018-03-03T13:18:10Z</time>
      </trkpt>
      <trkpt lat="43.21548" lon="5.35417">
        <ele>64.6</ele>
        <time>2018-03-03T13:18:15Z</time>
      </trkpt>
      <trkpt lat="43.21548" lon="5.35417">
        <ele>63.6</ele>
        <time>2018-03-03T13:19:05Z</time>
      </trkpt>
      <trkpt lat="43.21548" lon="5.35415">
        <ele>63.6</ele>
        <time>2018-03-03T13:19:10Z</time>
      </trkpt>
      <trkpt lat="43.21546" lon="5.35413">
        <ele>60.2</ele>
        <time>2018-03-03T13:19:25Z</time>
      </trkpt>
      <trkpt lat="43.21543" lon="5.35411">
        <ele>61.2</ele>
        <time>2018-03-03T13:19:35Z</time>
      </trkpt>
      <trkpt lat="43.2154" lon="5.35411">
        <ele>62.8</ele>
        <time>2018-03-03T13:20:45Z</time>
      </trkpt>
      <trkpt lat="43.21539" lon="5.35411">
        <ele>62.8</ele>
        <time>2018-03-03T13:20:50Z</time>
      </trkpt>
      <trkpt lat="43.21539" lon="5.35411">
        <ele>63</ele>
        <time>2018-03-03T13:21:00Z</time>
      </trkpt>
      <trkpt lat="43.21537" lon="5.35408">
        <ele>64</ele>
        <time>2018-03-03T13:21:05Z</time>
      </trkpt>
      <trkpt lat="43.21533" lon="5.35404">
        <ele>64.4</ele>
        <time>2018-03-03T13:21:10Z</time>
      </trkpt>
      <trkpt lat="43.2153" lon="5.35401">
        <ele>61</ele>
        <time>2018-03-03T13:21:15Z</time>
      </trkpt>
      <trkpt lat="43.21527" lon="5.35398">
        <ele>63</ele>
        <time>2018-03-03T13:21:20Z</time>
      </trkpt>
      <trkpt lat="43.21523" lon="5.35397">
        <ele>62.8</ele>
        <time>2018-03-03T13:21:25Z</time>
      </trkpt>
      <trkpt lat="43.2152" lon="5.35396">
        <ele>63.6</ele>
        <time>2018-03-03T13:21:30Z</time>
      </trkpt>
      <trkpt lat="43.21516" lon="5.35396">
        <ele>64</ele>
        <time>2018-03-03T13:21:35Z</time>
      </trkpt>
      <trkpt lat="43.21516" lon="5.35396">
        <ele>63.8</ele>
        <time>2018-03-03T13:21:40Z</time>
      </trkpt>
      <trkpt lat="43.21515" lon="5.35396">
        <ele>63</ele>
        <time>2018-03-03T13:21:45Z</time>
      </trkpt>
      <trkpt lat="43.21511" lon="5.35393">
        <ele>66</ele>
        <time>2018-03-03T13:21:50Z</time>
      </trkpt>
      <trkpt lat="43.21508" lon="5.35389">
        <ele>63.2</ele>
        <time>2018-03-03T13:21:55Z</time>
      </trkpt>
      <trkpt lat="43.21505" lon="5.35387">
        <ele>64.2</ele>
        <time>2018-03-03T13:22:00Z</time>
      </trkpt>
      <trkpt lat="43.21502" lon="5.35385">
        <ele>62.6</ele>
        <time>2018-03-03T13:22:05Z</time>
      </trkpt>
      <trkpt lat="43.21501" lon="5.35385">
        <ele>63.2</ele>
        <time>2018-03-03T13:22:10Z</time>
      </trkpt>
      <trkpt lat="43.21498" lon="5.35384">
        <ele>62.8</ele>
        <time>2018-03-03T13:22:15Z</time>
      </trkpt>
      <trkpt lat="43.21495" lon="5.35383">
        <ele>63.8</ele>
        <time>2018-03-03T13:22:20Z</time>
      </trkpt>
      <trkpt lat="43.21492" lon="5.35381">
        <ele>64.4</ele>
        <time>2018-03-03T13:22:25Z</time>
      </trkpt>
      <trkpt lat="43.2149" lon="5.35378">
        <ele>68</ele>
        <time>2018-03-03T13:22:30Z</time>
      </trkpt>
      <trkpt lat="43.21488" lon="5.35375">
        <ele>65.2</ele>
        <time>2018-03-03T13:22:35Z</time>
      </trkpt>
      <trkpt lat="43.21484" lon="5.35372">
        <ele>64.8</ele>
        <time>2018-03-03T13:22:40Z</time>
      </trkpt>
      <trkpt lat="43.21481" lon="5.3537">
        <ele>62.8</ele>
        <time>2018-03-03T13:22:45Z</time>
      </trkpt>
      <trkpt lat="43.21479" lon="5.35368">
        <ele>64.4</ele>
        <time>2018-03-03T13:22:50Z</time>
      </trkpt>
      <trkpt lat="43.21476" lon="5.35367">
        <ele>66.4</ele>
        <time>2018-03-03T13:22:55Z</time>
      </trkpt>
      <trkpt lat="43.21473" lon="5.35364">
        <ele>64.4</ele>
        <time>2018-03-03T13:23:00Z</time>
      </trkpt>
      <trkpt lat="43.2147" lon="5.35361">
        <ele>65</ele>
        <time>2018-03-03T13:23:05Z</time>
      </trkpt>
      <trkpt lat="43.21466" lon="5.35357">
        <ele>69.2</ele>
        <time>2018-03-03T13:23:10Z</time>
      </trkpt>
      <trkpt lat="43.21463" lon="5.35356">
        <ele>67.2</ele>
        <time>2018-03-03T13:23:15Z</time>
      </trkpt>
      <trkpt lat="43.2146" lon="5.35355">
        <ele>67</ele>
        <time>2018-03-03T13:23:20Z</time>
      </trkpt>
      <trkpt lat="43.21457" lon="5.35354">
        <ele>70</ele>
        <time>2018-03-03T13:23:25Z</time>
      </trkpt>
      <trkpt lat="43.21454" lon="5.35354">
        <ele>70</ele>
        <time>2018-03-03T13:23:30Z</time>
      </trkpt>
      <trkpt lat="43.21452" lon="5.35351">
        <ele>70.6</ele>
        <time>2018-03-03T13:23:35Z</time>
      </trkpt>
      <trkpt lat="43.21448" lon="5.35349">
        <ele>72</ele>
        <time>2018-03-03T13:23:40Z</time>
      </trkpt>
      <trkpt lat="43.21445" lon="5.35348">
        <ele>71.6</ele>
        <time>2018-03-03T13:23:45Z</time>
      </trkpt>
      <trkpt lat="43.21441" lon="5.35348">
        <ele>69.8</ele>
        <time>2018-03-03T13:23:50Z</time>
      </trkpt>
      <trkpt lat="43.21437" lon="5.35345">
        <ele>73</ele>
        <time>2018-03-03T13:23:55Z</time>
      </trkpt>
      <trkpt lat="43.21435" lon="5.35343">
        <ele>73.8</ele>
        <time>2018-03-03T13:24:00Z</time>
      </trkpt>
      <trkpt lat="43.21433" lon="5.3534">
        <ele>71.6</ele>
        <time>2018-03-03T13:24:05Z</time>
      </trkpt>
      <trkpt lat="43.2143" lon="5.35336">
        <ele>69.6</ele>
        <time>2018-03-03T13:24:10Z</time>
      </trkpt>
      <trkpt lat="43.21427" lon="5.35333">
        <ele>71.6</ele>
        <time>2018-03-03T13:24:15Z</time>
      </trkpt>
      <trkpt lat="43.21426" lon="5.35333">
        <ele>71.4</ele>
        <time>2018-03-03T13:24:20Z</time>
      </trkpt>
      <trkpt lat="43.21424" lon="5.35329">
        <ele>71.8</ele>
        <time>2018-03-03T13:24:25Z</time>
      </trkpt>
      <trkpt lat="43.21423" lon="5.35329">
        <ele>72.8</ele>
        <time>2018-03-03T13:24:30Z</time>
      </trkpt>
      <trkpt lat="43.2142" lon="5.35324">
        <ele>70.2</ele>
        <time>2018-03-03T13:24:35Z</time>
      </trkpt>
      <trkpt lat="43.21417" lon="5.35319">
        <ele>69.8</ele>
        <time>2018-03-03T13:24:40Z</time>
      </trkpt>
      <trkpt lat="43.21416" lon="5.35316">
        <ele>66</ele>
        <time>2018-03-03T13:24:45Z</time>
      </trkpt>
      <trkpt lat="43.21414" lon="5.35314">
        <ele>65</ele>
        <time>2018-03-03T13:24:50Z</time>
      </trkpt>
      <trkpt lat="43.21412" lon="5.35309">
        <ele>68</ele>
        <time>2018-03-03T13:24:55Z</time>
      </trkpt>
      <trkpt lat="43.21412" lon="5.35309">
        <ele>67.4</ele>
        <time>2018-03-03T13:25:00Z</time>
      </trkpt>
      <trkpt lat="43.21412" lon="5.35308">
        <ele>67</ele>
        <time>2018-03-03T13:25:05Z</time>
      </trkpt>
      <trkpt lat="43.21412" lon="5.35307">
        <ele>66.8</ele>
        <time>2018-03-03T13:25:10Z</time>
      </trkpt>
      <trkpt lat="43.21411" lon="5.35305">
        <ele>65.8</ele>
        <time>2018-03-03T13:25:15Z</time>
      </trkpt>
      <trkpt lat="43.21411" lon="5.35305">
        <ele>66.2</ele>
        <time>2018-03-03T13:25:35Z</time>
      </trkpt>
      <trkpt lat="43.2141" lon="5.35305">
        <ele>66.6</ele>
        <time>2018-03-03T13:25:40Z</time>
      </trkpt>
      <trkpt lat="43.21409" lon="5.35301">
        <ele>66.2</ele>
        <time>2018-03-03T13:25:45Z</time>
      </trkpt>
      <trkpt lat="43.21407" lon="5.35298">
        <ele>65.6</ele>
        <time>2018-03-03T13:25:50Z</time>
      </trkpt>
      <trkpt lat="43.21407" lon="5.35298">
        <ele>66</ele>
        <time>2018-03-03T13:25:55Z</time>
      </trkpt>
      <trkpt lat="43.21405" lon="5.35297">
        <ele>66.8</ele>
        <time>2018-03-03T13:26:00Z</time>
      </trkpt>
      <trkpt lat="43.21402" lon="5.35295">
        <ele>66.8</ele>
        <time>2018-03-03T13:26:05Z</time>
      </trkpt>
      <trkpt lat="43.21399" lon="5.35291">
        <ele>64.8</ele>
        <time>2018-03-03T13:26:10Z</time>
      </trkpt>
      <trkpt lat="43.21397" lon="5.35288">
        <ele>63.4</ele>
        <time>2018-03-03T13:26:15Z</time>
      </trkpt>
      <trkpt lat="43.21394" lon="5.35285">
        <ele>63.6</ele>
        <time>2018-03-03T13:26:20Z</time>
      </trkpt>
      <trkpt lat="43.2139" lon="5.35284">
        <ele>59</ele>
        <time>2018-03-03T13:26:25Z</time>
      </trkpt>
      <trkpt lat="43.21388" lon="5.3528">
        <ele>61</ele>
        <time>2018-03-03T13:26:30Z</time>
      </trkpt>
      <trkpt lat="43.21384" lon="5.35278">
        <ele>62</ele>
        <time>2018-03-03T13:26:35Z</time>
      </trkpt>
      <trkpt lat="43.21381" lon="5.35276">
        <ele>61.2</ele>
        <time>2018-03-03T13:26:40Z</time>
      </trkpt>
      <trkpt lat="43.21378" lon="5.35273">
        <ele>64.4</ele>
        <time>2018-03-03T13:26:45Z</time>
      </trkpt>
      <trkpt lat="43.21375" lon="5.35269">
        <ele>61.2</ele>
        <time>2018-03-03T13:26:50Z</time>
      </trkpt>
      <trkpt lat="43.21372" lon="5.35266">
        <ele>59.4</ele>
        <time>2018-03-03T13:26:55Z</time>
      </trkpt>
      <trkpt lat="43.21371" lon="5.35266">
        <ele>57.8</ele>
        <time>2018-03-03T13:27:05Z</time>
      </trkpt>
      <trkpt lat="43.21369" lon="5.35265">
        <ele>57.6</ele>
        <time>2018-03-03T13:27:10Z</time>
      </trkpt>
      <trkpt lat="43.21367" lon="5.35261">
        <ele>55.4</ele>
        <time>2018-03-03T13:27:15Z</time>
      </trkpt>
      <trkpt lat="43.21364" lon="5.35257">
        <ele>57.4</ele>
        <time>2018-03-03T13:27:20Z</time>
      </trkpt>
      <trkpt lat="43.2136" lon="5.35254">
        <ele>58</ele>
        <time>2018-03-03T13:27:25Z</time>
      </trkpt>
      <trkpt lat="43.21358" lon="5.35249">
        <ele>57.6</ele>
        <time>2018-03-03T13:27:30Z</time>
      </trkpt>
      <trkpt lat="43.21357" lon="5.35245">
        <ele>58.8</ele>
        <time>2018-03-03T13:27:35Z</time>
      </trkpt>
      <trkpt lat="43.21354" lon="5.35243">
        <ele>57.4</ele>
        <time>2018-03-03T13:27:40Z</time>
      </trkpt>
      <trkpt lat="43.21352" lon="5.35239">
        <ele>57.8</ele>
        <time>2018-03-03T13:27:45Z</time>
      </trkpt>
      <trkpt lat="43.2135" lon="5.35235">
        <ele>55.8</ele>
        <time>2018-03-03T13:27:50Z</time>
      </trkpt>
      <trkpt lat="43.21349" lon="5.35234">
        <ele>58</ele>
        <time>2018-03-03T13:27:55Z</time>
      </trkpt>
      <trkpt lat="43.21347" lon="5.35232">
        <ele>56.6</ele>
        <time>2018-03-03T13:28:00Z</time>
      </trkpt>
      <trkpt lat="43.21346" lon="5.35231">
        <ele>57.6</ele>
        <time>2018-03-03T13:28:15Z</time>
      </trkpt>
      <trkpt lat="43.21345" lon="5.35229">
        <ele>60.4</ele>
        <time>2018-03-03T13:28:20Z</time>
      </trkpt>
      <trkpt lat="43.21344" lon="5.35228">
        <ele>58.4</ele>
        <time>2018-03-03T13:28:25Z</time>
      </trkpt>
      <trkpt lat="43.21342" lon="5.35223">
        <ele>55.4</ele>
        <time>2018-03-03T13:28:30Z</time>
      </trkpt>
      <trkpt lat="43.2134" lon="5.3522">
        <ele>55</ele>
        <time>2018-03-03T13:28:35Z</time>
      </trkpt>
      <trkpt lat="43.21337" lon="5.35219">
        <ele>52.4</ele>
        <time>2018-03-03T13:28:40Z</time>
      </trkpt>
      <trkpt lat="43.21333" lon="5.35217">
        <ele>53.8</ele>
        <time>2018-03-03T13:28:45Z</time>
      </trkpt>
      <trkpt lat="43.21331" lon="5.35213">
        <ele>56.6</ele>
        <time>2018-03-03T13:28:50Z</time>
      </trkpt>
      <trkpt lat="43.21329" lon="5.35209">
        <ele>50.2</ele>
        <time>2018-03-03T13:28:55Z</time>
      </trkpt>
      <trkpt lat="43.21328" lon="5.35208">
        <ele>51.6</ele>
        <time>2018-03-03T13:29:00Z</time>
      </trkpt>
      <trkpt lat="43.21325" lon="5.35207">
        <ele>51.6</ele>
        <time>2018-03-03T13:29:05Z</time>
      </trkpt>
      <trkpt lat="43.21323" lon="5.35205">
        <ele>52.6</ele>
        <time>2018-03-03T13:29:10Z</time>
      </trkpt>
      <trkpt lat="43.21321" lon="5.35203">
        <ele>49.6</ele>
        <time>2018-03-03T13:29:15Z</time>
      </trkpt>
      <trkpt lat="43.2132" lon="5.35203">
        <ele>52</ele>
        <time>2018-03-03T13:29:20Z</time>
      </trkpt>
      <trkpt lat="43.21317" lon="5.35202">
        <ele>49</ele>
        <time>2018-03-03T13:29:25Z</time>
      </trkpt>
      <trkpt lat="43.21317" lon="5.352">
        <ele>50.2</ele>
        <time>2018-03-03T13:29:30Z</time>
      </trkpt>
      <trkpt lat="43.21315" lon="5.35198">
        <ele>47.2</ele>
        <time>2018-03-03T13:29:35Z</time>
      </trkpt>
      <trkpt lat="43.21313" lon="5.35193">
        <ele>48.6</ele>
        <time>2018-03-03T13:29:40Z</time>
      </trkpt>
      <trkpt lat="43.2131" lon="5.35188">
        <ele>49.6</ele>
        <time>2018-03-03T13:29:45Z</time>
      </trkpt>
      <trkpt lat="43.21307" lon="5.35185">
        <ele>46.8</ele>
        <time>2018-03-03T13:29:50Z</time>
      </trkpt>
      <trkpt lat="43.21304" lon="5.35181">
        <ele>46</ele>
        <time>2018-03-03T13:29:55Z</time>
      </trkpt>
      <trkpt lat="43.21302" lon="5.35176">
        <ele>46.4</ele>
        <time>2018-03-03T13:30:00Z</time>
      </trkpt>
      <trkpt lat="43.21299" lon="5.35171">
        <ele>43.8</ele>
        <time>2018-03-03T13:30:05Z</time>
      </trkpt>
      <trkpt lat="43.21296" lon="5.35166">
        <ele>47</ele>
        <time>2018-03-03T13:30:10Z</time>
      </trkpt>
      <trkpt lat="43.21294" lon="5.35166">
        <ele>45.6</ele>
        <time>2018-03-03T13:30:15Z</time>
      </trkpt>
      <trkpt lat="43.21288" lon="5.35169">
        <ele>45</ele>
        <time>2018-03-03T13:30:25Z</time>
      </trkpt>
      <trkpt lat="43.21288" lon="5.35169">
        <ele>46</ele>
        <time>2018-03-03T13:30:30Z</time>
      </trkpt>
      <trkpt lat="43.21286" lon="5.35171">
        <ele>44.6</ele>
        <time>2018-03-03T13:30:35Z</time>
      </trkpt>
      <trkpt lat="43.21284" lon="5.35176">
        <ele>45.8</ele>
        <time>2018-03-03T13:30:45Z</time>
      </trkpt>
      <trkpt lat="43.21284" lon="5.35176">
        <ele>45.2</ele>
        <time>2018-03-03T13:30:55Z</time>
      </trkpt>
      <trkpt lat="43.21286" lon="5.35181">
        <ele>44.8</ele>
        <time>2018-03-03T13:31:00Z</time>
      </trkpt>
      <trkpt lat="43.21288" lon="5.35187">
        <ele>45.2</ele>
        <time>2018-03-03T13:31:05Z</time>
      </trkpt>
      <trkpt lat="43.2129" lon="5.35192">
        <ele>41.4</ele>
        <time>2018-03-03T13:31:10Z</time>
      </trkpt>
      <trkpt lat="43.21291" lon="5.35197">
        <ele>42.8</ele>
        <time>2018-03-03T13:31:15Z</time>
      </trkpt>
      <trkpt lat="43.21291" lon="5.35203">
        <ele>42.2</ele>
        <time>2018-03-03T13:31:20Z</time>
      </trkpt>
      <trkpt lat="43.21291" lon="5.35207">
        <ele>41.2</ele>
        <time>2018-03-03T13:31:25Z</time>
      </trkpt>
      <trkpt lat="43.2129" lon="5.35212">
        <ele>41.2</ele>
        <time>2018-03-03T13:31:30Z</time>
      </trkpt>
      <trkpt lat="43.2129" lon="5.35217">
        <ele>41.8</ele>
        <time>2018-03-03T13:31:35Z</time>
      </trkpt>
      <trkpt lat="43.21291" lon="5.35223">
        <ele>42</ele>
        <time>2018-03-03T13:31:40Z</time>
      </trkpt>
      <trkpt lat="43.21291" lon="5.35229">
        <ele>42.6</ele>
        <time>2018-03-03T13:31:45Z</time>
      </trkpt>
      <trkpt lat="43.21292" lon="5.35235">
        <ele>42.2</ele>
        <time>2018-03-03T13:31:50Z</time>
      </trkpt>
      <trkpt lat="43.21293" lon="5.3524">
        <ele>41.8</ele>
        <time>2018-03-03T13:31:55Z</time>
      </trkpt>
      <trkpt lat="43.21294" lon="5.35244">
        <ele>42</ele>
        <time>2018-03-03T13:32:00Z</time>
      </trkpt>
      <trkpt lat="43.21295" lon="5.35249">
        <ele>40.4</ele>
        <time>2018-03-03T13:32:05Z</time>
      </trkpt>
      <trkpt lat="43.21295" lon="5.35254">
        <ele>39.4</ele>
        <time>2018-03-03T13:32:10Z</time>
      </trkpt>
      <trkpt lat="43.21295" lon="5.35259">
        <ele>39</ele>
        <time>2018-03-03T13:32:15Z</time>
      </trkpt>
      <trkpt lat="43.21296" lon="5.35263">
        <ele>40.2</ele>
        <time>2018-03-03T13:32:20Z</time>
      </trkpt>
      <trkpt lat="43.21296" lon="5.35268">
        <ele>37.4</ele>
        <time>2018-03-03T13:32:25Z</time>
      </trkpt>
      <trkpt lat="43.21296" lon="5.35273">
        <ele>36.4</ele>
        <time>2018-03-03T13:32:30Z</time>
      </trkpt>
      <trkpt lat="43.21297" lon="5.35275">
        <ele>37</ele>
        <time>2018-03-03T13:32:35Z</time>
      </trkpt>
      <trkpt lat="43.21297" lon="5.3528">
        <ele>38</ele>
        <time>2018-03-03T13:32:40Z</time>
      </trkpt>
      <trkpt lat="43.21297" lon="5.35285">
        <ele>35</ele>
        <time>2018-03-03T13:32:45Z</time>
      </trkpt>
      <trkpt lat="43.21297" lon="5.35289">
        <ele>36.2</ele>
        <time>2018-03-03T13:32:50Z</time>
      </trkpt>
      <trkpt lat="43.21297" lon="5.3529">
        <ele>35.8</ele>
        <time>2018-03-03T13:32:55Z</time>
      </trkpt>
      <trkpt lat="43.21296" lon="5.35294">
        <ele>36</ele>
        <time>2018-03-03T13:33:00Z</time>
      </trkpt>
      <trkpt lat="43.21296" lon="5.35297">
        <ele>35.8</ele>
        <time>2018-03-03T13:33:05Z</time>
      </trkpt>
      <trkpt lat="43.21296" lon="5.35299">
        <ele>33.8</ele>
        <time>2018-03-03T13:33:10Z</time>
      </trkpt>
      <trkpt lat="43.21294" lon="5.35305">
        <ele>35.4</ele>
        <time>2018-03-03T13:33:15Z</time>
      </trkpt>
      <trkpt lat="43.21293" lon="5.3531">
        <ele>31.8</ele>
        <time>2018-03-03T13:33:20Z</time>
      </trkpt>
      <trkpt lat="43.21293" lon="5.35315">
        <ele>33.4</ele>
        <time>2018-03-03T13:33:25Z</time>
      </trkpt>
      <trkpt lat="43.21293" lon="5.35319">
        <ele>29.2</ele>
        <time>2018-03-03T13:33:30Z</time>
      </trkpt>
      <trkpt lat="43.21291" lon="5.35324">
        <ele>30</ele>
        <time>2018-03-03T13:33:35Z</time>
      </trkpt>
      <trkpt lat="43.21291" lon="5.35329">
        <ele>31</ele>
        <time>2018-03-03T13:33:40Z</time>
      </trkpt>
      <trkpt lat="43.2129" lon="5.3533">
        <ele>29.8</ele>
        <time>2018-03-03T13:33:45Z</time>
      </trkpt>
      <trkpt lat="43.2129" lon="5.35331">
        <ele>29.8</ele>
        <time>2018-03-03T13:33:55Z</time>
      </trkpt>
      <trkpt lat="43.21289" lon="5.35336">
        <ele>26</ele>
        <time>2018-03-03T13:34:00Z</time>
      </trkpt>
      <trkpt lat="43.21289" lon="5.35336">
        <ele>27</ele>
        <time>2018-03-03T13:34:05Z</time>
      </trkpt>
      <trkpt lat="43.21289" lon="5.35342">
        <ele>26.6</ele>
        <time>2018-03-03T13:34:10Z</time>
      </trkpt>
      <trkpt lat="43.21289" lon="5.35347">
        <ele>26</ele>
        <time>2018-03-03T13:34:15Z</time>
      </trkpt>
      <trkpt lat="43.21288" lon="5.35351">
        <ele>25.8</ele>
        <time>2018-03-03T13:34:20Z</time>
      </trkpt>
      <trkpt lat="43.21288" lon="5.35351">
        <ele>26.4</ele>
        <time>2018-03-03T13:34:25Z</time>
      </trkpt>
      <trkpt lat="43.21289" lon="5.35352">
        <ele>26.8</ele>
        <time>2018-03-03T13:34:30Z</time>
      </trkpt>
      <trkpt lat="43.2129" lon="5.35355">
        <ele>29.2</ele>
        <time>2018-03-03T13:34:35Z</time>
      </trkpt>
      <trkpt lat="43.21293" lon="5.35358">
        <ele>30.4</ele>
        <time>2018-03-03T13:34:40Z</time>
      </trkpt>
      <trkpt lat="43.21295" lon="5.35363">
        <ele>31.8</ele>
        <time>2018-03-03T13:35:10Z</time>
      </trkpt>
      <trkpt lat="43.21295" lon="5.35368">
        <ele>29.8</ele>
        <time>2018-03-03T13:35:15Z</time>
      </trkpt>
      <trkpt lat="43.21295" lon="5.3537">
        <ele>26.6</ele>
        <time>2018-03-03T13:35:50Z</time>
      </trkpt>
      <trkpt lat="43.21295" lon="5.35369">
        <ele>26.6</ele>
        <time>2018-03-03T13:36:05Z</time>
      </trkpt>
      <trkpt lat="43.21296" lon="5.35368">
        <ele>25.6</ele>
        <time>2018-03-03T13:36:10Z</time>
      </trkpt>
      <trkpt lat="43.21296" lon="5.35365">
        <ele>29.2</ele>
        <time>2018-03-03T13:36:15Z</time>
      </trkpt>
      <trkpt lat="43.21293" lon="5.35362">
        <ele>29.8</ele>
        <time>2018-03-03T13:36:20Z</time>
      </trkpt>
      <trkpt lat="43.2129" lon="5.35355">
        <ele>31.6</ele>
        <time>2018-03-03T13:36:40Z</time>
      </trkpt>
      <trkpt lat="43.21289" lon="5.35351">
        <ele>29.4</ele>
        <time>2018-03-03T13:36:45Z</time>
      </trkpt>
      <trkpt lat="43.21289" lon="5.3535">
        <ele>29.4</ele>
        <time>2018-03-03T13:37:50Z</time>
      </trkpt>
      <trkpt lat="43.21288" lon="5.35345">
        <ele>29.8</ele>
        <time>2018-03-03T13:37:55Z</time>
      </trkpt>
      <trkpt lat="43.21287" lon="5.3534">
        <ele>29.4</ele>
        <time>2018-03-03T13:38:00Z</time>
      </trkpt>
      <trkpt lat="43.21288" lon="5.35335">
        <ele>30</ele>
        <time>2018-03-03T13:38:05Z</time>
      </trkpt>
      <trkpt lat="43.2129" lon="5.3533">
        <ele>32</ele>
        <time>2018-03-03T13:38:10Z</time>
      </trkpt>
      <trkpt lat="43.21291" lon="5.35324">
        <ele>32</ele>
        <time>2018-03-03T13:38:15Z</time>
      </trkpt>
      <trkpt lat="43.21292" lon="5.35318">
        <ele>34.2</ele>
        <time>2018-03-03T13:38:20Z</time>
      </trkpt>
      <trkpt lat="43.21293" lon="5.35313">
        <ele>31.6</ele>
        <time>2018-03-03T13:38:25Z</time>
      </trkpt>
      <trkpt lat="43.21295" lon="5.35307">
        <ele>34.2</ele>
        <time>2018-03-03T13:38:30Z</time>
      </trkpt>
      <trkpt lat="43.21296" lon="5.35301">
        <ele>32.6</ele>
        <time>2018-03-03T13:38:35Z</time>
      </trkpt>
      <trkpt lat="43.21297" lon="5.35295">
        <ele>33.2</ele>
        <time>2018-03-03T13:38:40Z</time>
      </trkpt>
      <trkpt lat="43.21298" lon="5.35289">
        <ele>34.6</ele>
        <time>2018-03-03T13:38:45Z</time>
      </trkpt>
      <trkpt lat="43.21298" lon="5.35284">
        <ele>33</ele>
        <time>2018-03-03T13:38:50Z</time>
      </trkpt>
      <trkpt lat="43.21298" lon="5.3528">
        <ele>32.8</ele>
        <time>2018-03-03T13:38:55Z</time>
      </trkpt>
      <trkpt lat="43.21299" lon="5.35276">
        <ele>32.4</ele>
        <time>2018-03-03T13:39:00Z</time>
      </trkpt>
      <trkpt lat="43.21297" lon="5.35271">
        <ele>34.4</ele>
        <time>2018-03-03T13:39:05Z</time>
      </trkpt>
      <trkpt lat="43.21297" lon="5.35265">
        <ele>37.4</ele>
        <time>2018-03-03T13:39:10Z</time>
      </trkpt>
      <trkpt lat="43.21296" lon="5.3526">
        <ele>36</ele>
        <time>2018-03-03T13:39:15Z</time>
      </trkpt>
      <trkpt lat="43.21297" lon="5.35254">
        <ele>37.4</ele>
        <time>2018-03-03T13:39:20Z</time>
      </trkpt>
      <trkpt lat="43.21295" lon="5.35248">
        <ele>39.2</ele>
        <time>2018-03-03T13:39:25Z</time>
      </trkpt>
      <trkpt lat="43.21294" lon="5.35242">
        <ele>39.2</ele>
        <time>2018-03-03T13:39:30Z</time>
      </trkpt>
      <trkpt lat="43.21292" lon="5.35235">
        <ele>37.6</ele>
        <time>2018-03-03T13:39:35Z</time>
      </trkpt>
      <trkpt lat="43.21291" lon="5.35227">
        <ele>42.2</ele>
        <time>2018-03-03T13:39:40Z</time>
      </trkpt>
      <trkpt lat="43.21291" lon="5.35219">
        <ele>40.6</ele>
        <time>2018-03-03T13:39:45Z</time>
      </trkpt>
      <trkpt lat="43.2129" lon="5.35213">
        <ele>41</ele>
        <time>2018-03-03T13:39:50Z</time>
      </trkpt>
      <trkpt lat="43.21291" lon="5.35207">
        <ele>42</ele>
        <time>2018-03-03T13:39:55Z</time>
      </trkpt>
      <trkpt lat="43.21292" lon="5.35199">
        <ele>42.4</ele>
        <time>2018-03-03T13:40:00Z</time>
      </trkpt>
      <trkpt lat="43.2129" lon="5.35193">
        <ele>43</ele>
        <time>2018-03-03T13:40:05Z</time>
      </trkpt>
      <trkpt lat="43.21288" lon="5.35187">
        <ele>46.2</ele>
        <time>2018-03-03T13:40:10Z</time>
      </trkpt>
      <trkpt lat="43.21292" lon="5.35178">
        <ele>47</ele>
        <time>2018-03-03T13:43:15Z</time>
      </trkpt>
      <trkpt lat="43.21292" lon="5.35177">
        <ele>47.4</ele>
        <time>2018-03-03T13:59:16Z</time>
      </trkpt>
      <trkpt lat="43.21291" lon="5.35176">
        <ele>46.8</ele>
        <time>2018-03-03T14:09:18Z</time>
      </trkpt>
      <trkpt lat="43.21291" lon="5.35176">
        <ele>44.8</ele>
        <time>2018-03-03T14:51:28Z</time>
      </trkpt>
      <trkpt lat="43.2129" lon="5.35177">
        <ele>44.8</ele>
        <time>2018-03-03T14:51:43Z</time>
      </trkpt>
      <trkpt lat="43.21289" lon="5.35176">
        <ele>44.8</ele>
        <time>2018-03-03T14:51:48Z</time>
      </trkpt>
      <trkpt lat="43.21288" lon="5.35178">
        <ele>41.8</ele>
        <time>2018-03-03T14:51:53Z</time>
      </trkpt>
      <trkpt lat="43.21287" lon="5.3518">
        <ele>47.2</ele>
        <time>2018-03-03T14:51:58Z</time>
      </trkpt>
      <trkpt lat="43.21285" lon="5.35183">
        <ele>43.6</ele>
        <time>2018-03-03T14:52:08Z</time>
      </trkpt>
      <trkpt lat="43.21284" lon="5.35183">
        <ele>41.6</ele>
        <time>2018-03-03T14:52:13Z</time>
      </trkpt>
      <trkpt lat="43.21283" lon="5.35184">
        <ele>42.2</ele>
        <time>2018-03-03T14:52:18Z</time>
      </trkpt>
      <trkpt lat="43.21283" lon="5.35185">
        <ele>42.4</ele>
        <time>2018-03-03T14:52:23Z</time>
      </trkpt>
      <trkpt lat="43.21282" lon="5.35186">
        <ele>44.4</ele>
        <time>2018-03-03T14:52:28Z</time>
      </trkpt>
      <trkpt lat="43.21283" lon="5.35188">
        <ele>43.4</ele>
        <time>2018-03-03T14:52:33Z</time>
      </trkpt>
      <trkpt lat="43.21282" lon="5.35189">
        <ele>42.8</ele>
        <time>2018-03-03T14:52:38Z</time>
      </trkpt>
      <trkpt lat="43.21281" lon="5.3519">
        <ele>42.2</ele>
        <time>2018-03-03T14:52:43Z</time>
      </trkpt>
      <trkpt lat="43.21279" lon="5.35192">
        <ele>38.8</ele>
        <time>2018-03-03T14:52:48Z</time>
      </trkpt>
      <trkpt lat="43.21277" lon="5.35192">
        <ele>37.4</ele>
        <time>2018-03-03T14:52:53Z</time>
      </trkpt>
      <trkpt lat="43.21276" lon="5.35194">
        <ele>38.6</ele>
        <time>2018-03-03T14:52:58Z</time>
      </trkpt>
      <trkpt lat="43.21274" lon="5.35195">
        <ele>38.2</ele>
        <time>2018-03-03T14:53:08Z</time>
      </trkpt>
      <trkpt lat="43.21273" lon="5.35196">
        <ele>38.2</ele>
        <time>2018-03-03T14:53:13Z</time>
      </trkpt>
      <trkpt lat="43.2127" lon="5.35199">
        <ele>36.6</ele>
        <time>2018-03-03T14:53:23Z</time>
      </trkpt>
      <trkpt lat="43.21271" lon="5.35202">
        <ele>35.6</ele>
        <time>2018-03-03T14:53:28Z</time>
      </trkpt>
      <trkpt lat="43.2127" lon="5.35204">
        <ele>38.4</ele>
        <time>2018-03-03T14:53:33Z</time>
      </trkpt>
      <trkpt lat="43.21269" lon="5.35206">
        <ele>33</ele>
        <time>2018-03-03T14:53:38Z</time>
      </trkpt>
      <trkpt lat="43.21266" lon="5.35209">
        <ele>33</ele>
        <time>2018-03-03T14:53:53Z</time>
      </trkpt>
      <trkpt lat="43.21265" lon="5.35209">
        <ele>32.4</ele>
        <time>2018-03-03T14:53:58Z</time>
      </trkpt>
      <trkpt lat="43.21263" lon="5.35208">
        <ele>28</ele>
        <time>2018-03-03T14:54:03Z</time>
      </trkpt>
      <trkpt lat="43.21261" lon="5.35208">
        <ele>34</ele>
        <time>2018-03-03T14:54:08Z</time>
      </trkpt>
      <trkpt lat="43.21259" lon="5.35209">
        <ele>24.6</ele>
        <time>2018-03-03T14:54:13Z</time>
      </trkpt>
      <trkpt lat="43.21256" lon="5.35209">
        <ele>23.6</ele>
        <time>2018-03-03T14:54:18Z</time>
      </trkpt>
      <trkpt lat="43.21255" lon="5.35209">
        <ele>23.8</ele>
        <time>2018-03-03T14:54:23Z</time>
      </trkpt>
      <trkpt lat="43.21254" lon="5.3521">
        <ele>24.2</ele>
        <time>2018-03-03T14:54:28Z</time>
      </trkpt>
      <trkpt lat="43.21252" lon="5.3521">
        <ele>24.4</ele>
        <time>2018-03-03T14:54:33Z</time>
      </trkpt>
      <trkpt lat="43.2125" lon="5.3521">
        <ele>26.6</ele>
        <time>2018-03-03T14:54:38Z</time>
      </trkpt>
      <trkpt lat="43.21248" lon="5.35209">
        <ele>25.4</ele>
        <time>2018-03-03T14:54:43Z</time>
      </trkpt>
      <trkpt lat="43.21247" lon="5.35209">
        <ele>23</ele>
        <time>2018-03-03T14:54:48Z</time>
      </trkpt>
      <trkpt lat="43.21245" lon="5.35209">
        <ele>24.4</ele>
        <time>2018-03-03T14:54:53Z</time>
      </trkpt>
      <trkpt lat="43.21243" lon="5.3521">
        <ele>23</ele>
        <time>2018-03-03T14:54:58Z</time>
      </trkpt>
      <trkpt lat="43.21243" lon="5.3521">
        <ele>22.6</ele>
        <time>2018-03-03T14:55:03Z</time>
      </trkpt>
      <trkpt lat="43.21241" lon="5.35212">
        <ele>21.2</ele>
        <time>2018-03-03T14:55:08Z</time>
      </trkpt>
      <trkpt lat="43.21239" lon="5.35212">
        <ele>18</ele>
        <time>2018-03-03T14:55:13Z</time>
      </trkpt>
      <trkpt lat="43.21237" lon="5.35215">
        <ele>18.8</ele>
        <time>2018-03-03T14:55:23Z</time>
      </trkpt>
      <trkpt lat="43.21237" lon="5.35217">
        <ele>20</ele>
        <time>2018-03-03T14:55:28Z</time>
      </trkpt>
      <trkpt lat="43.21236" lon="5.35218">
        <ele>17</ele>
        <time>2018-03-03T14:55:33Z</time>
      </trkpt>
      <trkpt lat="43.21234" lon="5.35219">
        <ele>14</ele>
        <time>2018-03-03T14:55:38Z</time>
      </trkpt>
      <trkpt lat="43.21231" lon="5.3522">
        <ele>15.8</ele>
        <time>2018-03-03T14:55:43Z</time>
      </trkpt>
      <trkpt lat="43.21229" lon="5.35222">
        <ele>14.6</ele>
        <time>2018-03-03T14:55:48Z</time>
      </trkpt>
      <trkpt lat="43.21229" lon="5.35225">
        <ele>15.2</ele>
        <time>2018-03-03T14:55:53Z</time>
      </trkpt>
      <trkpt lat="43.21231" lon="5.35227">
        <ele>13.2</ele>
        <time>2018-03-03T14:55:58Z</time>
      </trkpt>
      <trkpt lat="43.21234" lon="5.35232">
        <ele>11.2</ele>
        <time>2018-03-03T14:56:08Z</time>
      </trkpt>
      <trkpt lat="43.21234" lon="5.35236">
        <ele>10.6</ele>
        <time>2018-03-03T14:56:13Z</time>
      </trkpt>
      <trkpt lat="43.21235" lon="5.35237">
        <ele>10.2</ele>
        <time>2018-03-03T14:56:18Z</time>
      </trkpt>
      <trkpt lat="43.21237" lon="5.35241">
        <ele>8.4</ele>
        <time>2018-03-03T14:56:23Z</time>
      </trkpt>
      <trkpt lat="43.21239" lon="5.35246">
        <ele>12.8</ele>
        <time>2018-03-03T14:56:28Z</time>
      </trkpt>
      <trkpt lat="43.21242" lon="5.3525">
        <ele>11.4</ele>
        <time>2018-03-03T14:56:33Z</time>
      </trkpt>
      <trkpt lat="43.21242" lon="5.35256">
        <ele>7.8</ele>
        <time>2018-03-03T14:56:38Z</time>
      </trkpt>
      <trkpt lat="43.21245" lon="5.35261">
        <ele>8</ele>
        <time>2018-03-03T14:56:43Z</time>
      </trkpt>
      <trkpt lat="43.21248" lon="5.35265">
        <ele>10.6</ele>
        <time>2018-03-03T14:56:48Z</time>
      </trkpt>
      <trkpt lat="43.2125" lon="5.35271">
        <ele>8</ele>
        <time>2018-03-03T14:56:53Z</time>
      </trkpt>
      <trkpt lat="43.21252" lon="5.35277">
        <ele>8.4</ele>
        <time>2018-03-03T14:56:58Z</time>
      </trkpt>
      <trkpt lat="43.21255" lon="5.35284">
        <ele>6.2</ele>
        <time>2018-03-03T14:57:03Z</time>
      </trkpt>
      <trkpt lat="43.21258" lon="5.35289">
        <ele>5.2</ele>
        <time>2018-03-03T14:57:08Z</time>
      </trkpt>
      <trkpt lat="43.2126" lon="5.35293">
        <ele>8.8</ele>
        <time>2018-03-03T14:57:13Z</time>
      </trkpt>
      <trkpt lat="43.21261" lon="5.35297">
        <ele>6.8</ele>
        <time>2018-03-03T14:57:18Z</time>
      </trkpt>
      <trkpt lat="43.21262" lon="5.35297">
        <ele>7.8</ele>
        <time>2018-03-03T14:57:33Z</time>
      </trkpt>
      <trkpt lat="43.21263" lon="5.35296">
        <ele>8</ele>
        <time>2018-03-03T14:57:38Z</time>
      </trkpt>
      <trkpt lat="43.21263" lon="5.35296">
        <ele>8</ele>
        <time>2018-03-03T14:57:53Z</time>
      </trkpt>
      <trkpt lat="43.21263" lon="5.35293">
        <ele>6.6</ele>
        <time>2018-03-03T14:59:13Z</time>
      </trkpt>
      <trkpt lat="43.21263" lon="5.35292">
        <ele>7.2</ele>
        <time>2018-03-03T15:00:28Z</time>
      </trkpt>
    </trkseg>
  </trk>
</gpx>